
Distance (Route):
Temperature : 14.9°C
Humidity : 45.4%
Pressure : 0hPa| Receiver | Frames | First received | Last received |
|---|---|---|---|
| 9A1FER-10 | 361 | 2026-09-01 11:21:17 | 2026-09-01 13:05:03 |
| 9A1FER-3 | 337 | 2026-09-01 11:21:06 | 2026-09-01 13:04:25 |
| PETON7-10 | 189 | 2026-09-01 11:54:37 | 2026-09-01 12:55:03 |
| 9A1FER-15 | 174 | 2026-09-01 12:14:44 | 2026-09-01 13:05:06 |
| OE5DRO-10 | 117 | 2026-09-01 11:56:56 | 2026-09-01 12:52:37 |
| PG1ADW-2 | 99 | 2026-09-01 12:14:15 | 2026-09-01 12:51:35 |
| OE3JTB-15 | 77 | 2026-09-01 11:46:53 | 2026-09-01 12:59:34 |
| OE5DXL-15 | 64 | 2026-09-01 12:11:18 | 2026-09-01 12:52:32 |
| OM5KV | 33 | 2026-09-01 12:41:42 | 2026-09-01 12:45:56 |
| OE8JPQ-2 | 15 | 2026-09-01 12:39:40 | 2026-09-01 12:48:22 |
| LZ4TU-5 | 6 | 2026-09-01 12:40:08 | 2026-09-01 12:47:20 |
| DO3MHA-11 | 2 | 2026-09-01 12:50:47 | 2026-09-01 12:50:57 |
| Receiver | Date | Latitude | Longitude | Direction | Speed | Altitude | Climb | Temperature | Humidity | Pressure | Voltage | Killtimer | Uptime | BKT | XDATA |
|---|---|---|---|---|---|---|---|---|---|---|---|---|---|---|---|
| 9A1FER-15 | 2026-09-01 13:05:06 | 45.90535 | 17.08339 | 258° | 13km/h | 1401m | -14.4m/s | 14.9°C | 45.4% | 0hPa | 2.6V | 00:00:00 | 02:01:49 | 00:00:00 | |
| 9A1FER-10 | 2026-09-01 13:05:03 | 45.90538 | 17.08352 | 254° | 11km/h | 1444m | -14.1m/s | 14.6°C | 43.4% | 0hPa | 2.6V | 00:00:00 | 02:01:46 | 00:00:00 | |
| 9A1FER-15 | 2026-09-01 13:05:00 | 45.90540 | 17.08367 | 256° | 11km/h | 1486m | -14.4m/s | 14.3°C | 42.1% | 0hPa | 2.6V | 00:00:00 | 02:01:43 | 00:00:00 | |
| 9A1FER-10 | 2026-09-01 13:04:55 | 45.90545 | 17.08384 | 238° | 9km/h | 1558m | -14.7m/s | 13.8°C | 42.8% | 0hPa | 2.6V | 08:13:00 | 02:01:38 | 00:00:00 | |
| 9A1FER-15 | 2026-09-01 13:04:55 | 45.90545 | 17.08384 | 238° | 9km/h | 1558m | -14.7m/s | 13.8°C | 42.8% | 0hPa | 2.6V | 08:13:00 | 02:01:38 | 00:00:00 | |
| 9A1FER-15 | 2026-09-01 13:04:50 | 45.90551 | 17.08398 | 238° | 7km/h | 1631m | -15.0m/s | 13.2°C | 43.9% | 0hPa | 2.6V | 00:00:00 | 02:01:33 | 00:00:00 | |
| 9A1FER-10 | 2026-09-01 13:04:50 | 45.90551 | 17.08398 | 238° | 7km/h | 1631m | -15.0m/s | 13.2°C | 43.9% | 0hPa | 2.6V | 00:00:00 | 02:01:33 | 00:00:00 | |
| 9A1FER-10 | 2026-09-01 13:04:40 | 45.90564 | 17.08408 | 209° | 7km/h | 1776m | -14.5m/s | 12.6°C | 42.6% | 0hPa | 2.6V | 00:00:00 | 02:01:23 | 00:00:00 | |
| 9A1FER-15 | 2026-09-01 13:04:40 | 45.90564 | 17.08408 | 209° | 7km/h | 1776m | -14.5m/s | 12.6°C | 42.6% | 0hPa | 2.6V | 00:00:00 | 02:01:23 | 00:00:00 | |
| 9A1FER-10 | 2026-09-01 13:04:35 | 45.90573 | 17.08415 | 198° | 11km/h | 1851m | -15.0m/s | 12.1°C | 39.8% | 0hPa | 2.6V | 00:00:00 | 02:01:18 | 00:00:00 | |
| 9A1FER-15 | 2026-09-01 13:04:35 | 45.90573 | 17.08415 | 198° | 11km/h | 1851m | -15.0m/s | 12.1°C | 39.8% | 0hPa | 2.6V | 00:00:00 | 02:01:18 | 00:00:00 | |
| 9A1FER-10 | 2026-09-01 13:04:30 | 45.90587 | 17.08422 | 201° | 11km/h | 1924m | -14.9m/s | 11.7°C | 38.6% | 0hPa | 2.6V | 00:00:00 | 02:01:13 | 00:00:00 | |
| 9A1FER-15 | 2026-09-01 13:04:30 | 45.90587 | 17.08422 | 201° | 11km/h | 1924m | -14.9m/s | 11.7°C | 38.6% | 0hPa | 2.6V | 00:00:00 | 02:01:13 | 00:00:00 | |
| 9A1FER-3 | 2026-09-01 13:04:25 | 45.90600 | 17.08426 | 194° | 7km/h | 1996m | -14.4m/s | 11.0°C | 47.5% | 0hPa | 2.6V | 00:00:00 | 02:01:08 | 00:00:00 | |
| 9A1FER-10 | 2026-09-01 13:04:25 | 45.90600 | 17.08426 | 194° | 5km/h | 1996m | -14.4m/s | 11.0°C | 47.5% | 0hPa | 2.6V | 00:00:00 | 02:01:08 | 00:00:00 | |
| 9A1FER-15 | 2026-09-01 13:04:25 | 45.90600 | 17.08426 | 194° | 5km/h | 1996m | -14.4m/s | 11.0°C | 47.5% | 0hPa | 2.6V | 00:00:00 | 02:01:08 | 00:00:00 | |
| 9A1FER-3 | 2026-09-01 13:04:19 | 45.90607 | 17.08433 | 246° | 4km/h | 2085m | -15.4m/s | 10.3°C | 47.7% | 0hPa | 2.6V | 00:00:00 | 02:01:02 | 00:00:00 | |
| 9A1FER-10 | 2026-09-01 13:04:17 | 45.90608 | 17.08436 | 274° | 5km/h | 2115m | -15.3m/s | 10.1°C | 47.0% | 0hPa | 2.6V | 00:00:00 | 02:01:00 | 00:00:00 | |
| 9A1FER-15 | 2026-09-01 13:04:15 | 45.90607 | 17.08438 | 317° | 5km/h | 2145m | -15.5m/s | 9.8°C | 48.2% | 0hPa | 2.6V | 00:00:00 | 02:00:58 | 00:00:00 | |
| 9A1FER-3 | 2026-09-01 13:04:10 | 45.90600 | 17.08439 | 2° | 9km/h | 2237m | -15.1m/s | 9.2°C | 43.9% | 0hPa | 2.6V | 00:00:00 | 02:00:52 | 00:00:00 | |
| 9A1FER-10 | 2026-09-01 13:04:07 | 45.90597 | 17.08439 | 345° | 11km/h | 2266m | -14.9m/s | 8.9°C | 44.5% | 0hPa | 2.6V | 00:00:00 | 02:00:50 | 00:00:00 | |
| 9A1FER-15 | 2026-09-01 13:04:05 | 45.90593 | 17.08440 | 351° | 11km/h | 2296m | -15.3m/s | 8.6°C | 44.2% | 0hPa | 2.6V | 00:00:00 | 02:00:48 | 00:00:00 | |
| 9A1FER-3 | 2026-09-01 13:03:59 | 45.90577 | 17.08435 | 20° | 15km/h | 2387m | -15.5m/s | 7.8°C | 46.1% | 0hPa | 2.6V | 00:00:00 | 02:00:42 | 00:00:00 | |
| 9A1FER-10 | 2026-09-01 13:03:57 | 45.90571 | 17.08432 | 26° | 15km/h | 2418m | -15.4m/s | 7.5°C | 46.8% | 0hPa | 2.6V | 08:14:00 | 02:00:40 | 00:00:00 | |
| 9A1FER-15 | 2026-09-01 13:03:55 | 45.90564 | 17.08426 | 31° | 15km/h | 2448m | -15.1m/s | 7.3°C | 46.7% | 0hPa | 2.6V | 08:14:00 | 02:00:38 | 00:00:00 | |
| 9A1FER-3 | 2026-09-01 13:03:49 | 45.90543 | 17.08404 | 41° | 16km/h | 2540m | -15.3m/s | 6.7°C | 49.8% | 0hPa | 2.6V | 00:00:00 | 02:00:32 | 00:00:00 | |
| 9A1FER-10 | 2026-09-01 13:03:47 | 45.90538 | 17.08396 | 47° | 18km/h | 2570m | -15.0m/s | 6.5°C | 49.6% | 0hPa | 2.6V | 00:00:00 | 02:00:30 | 00:00:00 | |
| 9A1FER-15 | 2026-09-01 13:03:45 | 45.90532 | 17.08387 | 56° | 20km/h | 2600m | -14.7m/s | 6.4°C | 54.1% | 0hPa | 2.6V | 00:00:00 | 02:00:28 | 00:00:00 | |
| 9A1FER-3 | 2026-09-01 13:03:39 | 45.90520 | 17.08347 | 84° | 24km/h | 2688m | -15.4m/s | 6.4°C | 73.3% | 0hPa | 2.6V | 00:00:00 | 02:00:22 | 00:00:00 | |
| 9A1FER-10 | 2026-09-01 13:03:37 | 45.90519 | 17.08329 | 90° | 24km/h | 2719m | -15.7m/s | 6.3°C | 75.1% | 0hPa | 2.6V | 00:00:00 | 02:00:20 | 00:00:00 | |
| 9A1FER-15 | 2026-09-01 13:03:35 | 45.90519 | 17.08310 | 95° | 24km/h | 2750m | -15.9m/s | 6.2°C | 75.9% | 0hPa | 2.6V | 00:00:00 | 02:00:18 | 00:00:00 | |
| 9A1FER-3 | 2026-09-01 13:03:29 | 45.90525 | 17.08259 | 107° | 22km/h | 2841m | -14.9m/s | 5.4°C | 79.7% | 0hPa | 2.6V | 08:15:00 | 02:00:12 | 00:00:00 | |
| 9A1FER-10 | 2026-09-01 13:03:27 | 45.90528 | 17.08242 | 108° | 22km/h | 2871m | -15.3m/s | 5.2°C | 80.8% | 0hPa | 2.6V | 00:00:00 | 02:00:10 | 00:00:00 | |
| 9A1FER-15 | 2026-09-01 13:03:25 | 45.90532 | 17.08226 | 111° | 24km/h | 2901m | -15.0m/s | 4.9°C | 81.6% | 0hPa | 2.6V | 00:00:00 | 02:00:08 | 00:00:00 | |
| 9A1FER-3 | 2026-09-01 13:03:19 | 45.90545 | 17.08180 | 120° | 24km/h | 2990m | -15.2m/s | 4.4°C | 78.8% | 0hPa | 2.5V | 00:00:00 | 02:00:02 | 00:00:00 | |
| 9A1FER-10 | 2026-09-01 13:03:17 | 45.90551 | 17.08164 | 125° | 24km/h | 3021m | -15.3m/s | 4.5°C | 72.1% | 0hPa | 2.5V | 00:00:00 | 02:00:00 | 00:00:00 | |
| 9A1FER-15 | 2026-09-01 13:03:15 | 45.90559 | 17.08149 | 128° | 24km/h | 3051m | -15.4m/s | 4.7°C | 62.6% | 0hPa | 2.5V | 00:00:00 | 01:59:58 | 00:00:00 | |
| 9A1FER-3 | 2026-09-01 13:03:08 | 45.90584 | 17.08101 | 129° | 27km/h | 3157m | -15.7m/s | 4.1°C | 59.5% | 0hPa | 2.5V | 00:00:00 | 01:59:51 | 00:00:00 | |
| 9A1FER-10 | 2026-09-01 13:03:02 | 45.90605 | 17.08058 | 121° | 27km/h | 3252m | -15.7m/s | 3.2°C | 60.5% | 0hPa | 2.5V | 00:00:00 | 01:59:45 | 00:00:00 | |
| 9A1FER-15 | 2026-09-01 13:03:00 | 45.90611 | 17.08043 | 119° | 27km/h | 3283m | -15.7m/s | 2.9°C | 61.1% | 0hPa | 2.5V | 00:00:00 | 01:59:43 | 00:00:00 | |
| 9A1FER-3 | 2026-09-01 13:02:45 | 45.90674 | 17.07923 | 134° | 31km/h | 3521m | -16.3m/s | 1.1°C | 42.0% | 0hPa | 2.5V | 00:00:00 | 01:59:28 | 00:00:00 | |
| 9A1FER-10 | 2026-09-01 13:02:33 | 45.90735 | 17.07808 | 128° | 37km/h | 3732m | -16.0m/s | 0.3°C | 21.3% | 0hPa | 2.5V | 00:00:00 | 01:59:15 | 00:00:00 | |
| 9A1FER-15 | 2026-09-01 13:02:30 | 45.90745 | 17.07788 | 126° | 38km/h | 3763m | -16.4m/s | 0.1°C | 21.5% | 0hPa | 2.5V | 00:00:00 | 01:59:13 | 00:00:00 | |
| 9A1FER-10 | 2026-09-01 13:02:17 | 45.90804 | 17.07632 | 116° | 42km/h | 3975m | -16.1m/s | -1.4°C | 21.1% | 0hPa | 2.5V | 00:00:00 | 01:59:00 | 00:00:00 | |
| 9A1FER-3 | 2026-09-01 13:02:15 | 45.90812 | 17.07606 | 116° | 42km/h | 4007m | -16.2m/s | -1.7°C | 21.0% | 0hPa | 2.5V | 00:00:00 | 01:58:58 | 00:00:00 | |
| 9A1FER-10 | 2026-09-01 13:02:02 | 45.90861 | 17.07416 | 112° | 46km/h | 4219m | -16.0m/s | -0.4°C | 11.3% | 0hPa | 2.5V | 08:16:00 | 01:58:45 | 00:00:00 | |
| 9A1FER-3 | 2026-09-01 13:02:00 | 45.90869 | 17.07387 | 110° | 46km/h | 4250m | -15.8m/s | -0.6°C | 13.1% | 0hPa | 2.6V | 00:00:00 | 01:58:43 | 00:00:00 | |
| 9A1FER-10 | 2026-09-01 13:01:47 | 45.90894 | 17.07172 | 97° | 51km/h | 4465m | -16.7m/s | -1.5°C | 13.1% | 0hPa | 2.5V | 00:00:00 | 01:58:30 | 00:00:00 | |
| 9A1FER-10 | 2026-09-01 13:01:32 | 45.90929 | 17.06898 | 103° | 57km/h | 4722m | -17.0m/s | -2.7°C | 10.2% | 0hPa | 2.5V | 00:00:00 | 01:58:15 | 00:00:00 | |
| 9A1FER-3 | 2026-09-01 13:01:30 | 45.90935 | 17.06858 | 102° | 57km/h | 4755m | -16.7m/s | -2.8°C | 9.1% | 0hPa | 2.5V | 00:00:00 | 01:58:13 | 00:00:00 | |
| 9A1FER-10 | 2026-09-01 13:01:17 | 45.90939 | 17.06587 | 86° | 53km/h | 4979m | -17.2m/s | -3.4°C | 12.3% | 0hPa | 2.5V | 00:00:00 | 01:58:00 | 00:00:00 | |
| 9A1FER-15 | 2026-09-01 13:01:15 | 45.90936 | 17.06549 | 86° | 51km/h | 5012m | -17.1m/s | -3.7°C | 13.8% | 0hPa | 2.6V | 00:00:00 | 01:57:58 | 00:00:00 | |
| 9A1FER-10 | 2026-09-01 13:01:02 | 45.90913 | 17.06305 | 86° | 47km/h | 5237m | -17.5m/s | -5.5°C | 17.5% | 0hPa | 2.6V | 00:00:00 | 01:57:45 | 00:00:00 | |
| 9A1FER-15 | 2026-09-01 13:01:00 | 45.90912 | 17.06270 | 91° | 47km/h | 5272m | -17.3m/s | -5.7°C | 17.0% | 0hPa | 2.6V | 00:00:00 | 01:57:43 | 00:00:00 | |
| 9A1FER-10 | 2026-09-01 13:00:47 | 45.90923 | 17.06043 | 96° | 53km/h | 5497m | -17.5m/s | -7.0°C | 13.6% | 0hPa | 2.6V | 00:00:00 | 01:57:30 | 00:00:00 | |
| 9A1FER-3 | 2026-09-01 13:00:45 | 45.90925 | 17.06007 | 94° | 53km/h | 5532m | -18.2m/s | -7.2°C | 13.8% | 0hPa | 2.6V | 00:00:00 | 01:57:28 | 00:00:00 | |
| 9A1FER-10 | 2026-09-01 13:00:32 | 45.90925 | 17.05755 | 86° | 53km/h | 5764m | -18.2m/s | -8.8°C | 10.5% | 0hPa | 2.6V | 00:00:00 | 01:57:15 | 00:00:00 | |
| 9A1FER-15 | 2026-09-01 13:00:30 | 45.90923 | 17.05718 | 86° | 53km/h | 5800m | -18.2m/s | -9.1°C | 10.8% | 0hPa | 2.5V | 00:00:00 | 01:57:13 | 00:00:00 | |
| 9A1FER-10 | 2026-09-01 13:00:17 | 45.90906 | 17.05475 | 83° | 51km/h | 6032m | -18.4m/s | -10.9°C | 11.6% | 0hPa | 2.6V | 00:00:00 | 01:57:00 | 00:00:00 | |
| 9A1FER-3 | 2026-09-01 13:00:15 | 45.90903 | 17.05437 | 83° | 49km/h | 6069m | -18.4m/s | -11.2°C | 11.6% | 0hPa | 2.6V | 00:00:00 | 01:56:58 | 00:00:00 | |
| 9A1FER-10 | 2026-09-01 13:00:02 | 45.90875 | 17.05205 | 81° | 49km/h | 6306m | -18.4m/s | -12.7°C | 8.3% | 0hPa | 2.6V | 00:00:00 | 01:56:45 | 00:00:00 | |
| 9A1FER-3 | 2026-09-01 13:00:00 | 45.90871 | 17.05170 | 81° | 49km/h | 6342m | -18.0m/s | -13.0°C | 8.1% | 0hPa | 2.6V | 00:00:00 | 01:56:43 | 00:00:00 | |
| 9A1FER-10 | 2026-09-01 12:59:47 | 45.90844 | 17.04939 | 83° | 51km/h | 6576m | -18.1m/s | -15.0°C | 9.2% | 0hPa | 2.6V | 08:18:00 | 01:56:30 | 00:00:00 | |
| 9A1FER-15 | 2026-09-01 12:59:45 | 45.90841 | 17.04905 | 84° | 53km/h | 6612m | -18.7m/s | -15.3°C | 9.2% | 0hPa | 2.5V | 08:18:00 | 01:56:28 | 00:00:00 | |
| OE3JTB-15 | 2026-09-01 12:59:34 | 45.90819 | 17.04698 | 81° | 51km/h | 6818m | -18.4m/s | -17.0°C | 10.0% | 0hPa | 2.6V | 00:00:00 | 00:00:00 | 00:00:00 | |
| 9A1FER-10 | 2026-09-01 12:59:32 | 45.90815 | 17.04662 | 83° | 51km/h | 6854m | -18.3m/s | -17.3°C | 10.4% | 0hPa | 2.6V | 00:00:00 | 01:56:15 | 00:00:00 | |
| 9A1FER-3 | 2026-09-01 12:59:31 | 45.90812 | 17.04626 | 84° | 51km/h | 6891m | -18.4m/s | -17.7°C | 10.6% | 0hPa | 2.6V | 00:00:00 | 01:56:13 | 00:00:00 | |
| 9A1FER-10 | 2026-09-01 12:59:17 | 45.90781 | 17.04385 | 81° | 49km/h | 7136m | -18.8m/s | -19.8°C | 11.0% | 0hPa | 2.6V | 00:00:00 | 01:56:00 | 00:00:00 | |
| 9A1FER-15 | 2026-09-01 12:59:15 | 45.90777 | 17.04351 | 82° | 49km/h | 7173m | -18.4m/s | -20.1°C | 11.1% | 0hPa | 2.6V | 00:00:00 | 01:55:58 | 00:00:00 | |
| OE3JTB-15 | 2026-09-01 12:59:05 | 45.90753 | 17.04173 | 79° | 62km/h | 7363m | -18.7m/s | -21.8°C | 12.4% | 0hPa | 2.6V | 00:00:00 | 01:55:48 | 00:00:00 | |
| 9A1FER-10 | 2026-09-01 12:59:02 | 45.90745 | 17.04119 | 78° | 58km/h | 7420m | -19.7m/s | -22.3°C | 12.2% | 0hPa | 2.6V | 00:00:00 | 01:55:45 | 00:00:00 | |
| 9A1FER-15 | 2026-09-01 12:59:00 | 45.90739 | 17.04080 | 77° | 58km/h | 7459m | -18.8m/s | -22.6°C | 12.2% | 0hPa | 2.6V | 00:00:00 | 01:55:43 | 00:00:00 | |
| 9A1FER-3 | 2026-09-01 12:58:45 | 45.90693 | 17.03762 | 82° | 71km/h | 7744m | -18.8m/s | -24.5°C | 6.3% | 0hPa | 2.5V | 00:00:00 | 01:55:28 | 00:00:00 | |
| OE3JTB-15 | 2026-09-01 12:58:36 | 45.90671 | 17.03506 | 83° | 73km/h | 7935m | -19.7m/s | -25.6°C | 7.4% | 0hPa | 2.5V | 00:00:00 | 00:00:00 | 00:00:00 | |
| 9A1FER-3 | 2026-09-01 12:58:31 | 45.90659 | 17.03378 | 86° | 71km/h | 8032m | -19.7m/s | -26.3°C | 8.5% | 0hPa | 2.6V | 00:00:00 | 01:55:13 | 00:00:00 | |
| 9A1FER-15 | 2026-09-01 12:58:30 | 45.90659 | 17.03378 | 86° | 71km/h | 8032m | -19.7m/s | -26.3°C | 8.5% | 0hPa | 2.6V | 00:00:00 | 01:55:13 | 00:00:00 | |
| 9A1FER-10 | 2026-09-01 12:58:23 | 45.90645 | 17.03197 | 85° | 73km/h | 8170m | -19.2m/s | -27.4°C | 13.8% | 0hPa | 2.6V | 00:00:00 | 01:55:06 | 00:00:00 | |
| 9A1FER-3 | 2026-09-01 12:58:15 | 45.90629 | 17.02987 | 84° | 75km/h | 8326m | -19.7m/s | -28.8°C | 30.2% | 0hPa | 2.6V | 00:00:00 | 01:54:58 | 00:00:00 | |
| 9A1FER-10 | 2026-09-01 12:58:08 | 45.90612 | 17.02801 | 82° | 77km/h | 8465m | -19.4m/s | -30.0°C | 50.3% | 0hPa | 2.6V | 00:00:00 | 01:54:51 | 00:00:00 | |
| OE3JTB-15 | 2026-09-01 12:58:07 | 45.90606 | 17.02747 | 82° | 80km/h | 8505m | -20.0m/s | -30.3°C | 49.3% | 0hPa | 2.6V | 00:00:00 | 00:00:00 | 00:00:00 | |
| 9A1FER-3 | 2026-09-01 12:58:00 | 45.90593 | 17.02584 | 82° | 80km/h | 8624m | -20.2m/s | -31.4°C | 55.9% | 0hPa | 2.6V | 00:00:00 | 01:54:43 | 00:00:00 | |
| 9A1FER-10 | 2026-09-01 12:57:53 | 45.90573 | 17.02385 | 83° | 82km/h | 8763m | -19.9m/s | -32.5°C | 54.9% | 0hPa | 2.6V | 00:00:00 | 01:54:36 | 00:00:00 | |
| 9A1FER-15 | 2026-09-01 12:57:45 | 45.90549 | 17.02152 | 82° | 82km/h | 8924m | -20.6m/s | -33.7°C | 57.0% | 0hPa | 2.6V | 00:00:00 | 01:54:28 | 00:00:00 | |
| 9A1FER-10 | 2026-09-01 12:57:38 | 45.90527 | 17.01946 | 84° | 84km/h | 9068m | -20.0m/s | -35.0°C | 62.8% | 0hPa | 2.6V | 00:00:00 | 01:54:21 | 00:00:00 | |
| 9A1FER-3 | 2026-09-01 12:57:30 | 45.90507 | 17.01709 | 83° | 91km/h | 9230m | -19.9m/s | -36.4°C | 59.6% | 0hPa | 2.6V | 00:00:00 | 01:54:13 | 00:00:00 | |
| 9A1FER-10 | 2026-09-01 12:57:23 | 45.90488 | 17.01486 | 86° | 95km/h | 9372m | -20.7m/s | -37.3°C | 53.0% | 0hPa | 2.5V | 08:21:00 | 01:54:06 | 00:00:00 | |
| 9A1FER-15 | 2026-09-01 12:57:15 | 45.90471 | 17.01211 | 86° | 99km/h | 9544m | -21.6m/s | -38.6°C | 52.3% | 0hPa | 2.5V | 00:00:00 | 01:53:58 | 00:00:00 | |
| OE3JTB-15 | 2026-09-01 12:57:09 | 45.90458 | 17.00969 | 85° | 102km/h | 9691m | -21.0m/s | -39.8°C | 52.6% | 0hPa | 2.5V | 00:00:00 | 00:00:00 | 00:00:00 | |
| 9A1FER-10 | 2026-09-01 12:57:08 | 45.90458 | 17.00969 | 85° | 104km/h | 9691m | -21.0m/s | -39.8°C | 52.6% | 0hPa | 2.6V | 00:00:00 | 01:53:51 | 00:00:00 | |
| 9A1FER-15 | 2026-09-01 12:57:00 | 45.90440 | 17.00672 | 85° | 102km/h | 9861m | -21.8m/s | -41.2°C | 52.1% | 0hPa | 2.6V | 00:00:00 | 01:53:43 | 00:00:00 | |
| 9A1FER-10 | 2026-09-01 12:56:53 | 45.90426 | 17.00408 | 86° | 100km/h | 10012m | -22.2m/s | -42.6°C | 54.6% | 0hPa | 2.6V | 00:00:00 | 01:53:36 | 00:00:00 | |
| 9A1FER-3 | 2026-09-01 12:56:45 | 45.90406 | 17.00116 | 84° | 99km/h | 10186m | -22.2m/s | -43.9°C | 55.4% | 0hPa | 2.6V | 08:21:00 | 01:53:28 | 00:00:00 | |
| OE3JTB-15 | 2026-09-01 12:56:40 | 45.90388 | 16.99902 | 82° | 102km/h | 10317m | -22.6m/s | -45.0°C | 58.0% | 0hPa | 2.5V | 00:00:00 | 00:00:00 | 00:00:00 | |
| 9A1FER-10 | 2026-09-01 12:56:38 | 45.90384 | 16.99866 | 83° | 99km/h | 10340m | -22.6m/s | -45.2°C | 58.6% | 0hPa | 2.5V | 00:00:00 | 01:53:21 | 00:00:00 | |
| 9A1FER-15 | 2026-09-01 12:56:30 | 45.90359 | 16.99584 | 83° | 102km/h | 10517m | -22.0m/s | -46.8°C | 63.4% | 0hPa | 2.5V | 00:00:00 | 01:53:13 | 00:00:00 | |
| 9A1FER-10 | 2026-09-01 12:56:23 | 45.90339 | 16.99330 | 84° | 106km/h | 10671m | -22.4m/s | -48.0°C | 63.4% | 0hPa | 2.5V | 00:00:00 | 01:53:06 | 00:00:00 | |
| 9A1FER-3 | 2026-09-01 12:56:15 | 45.90317 | 16.99030 | 86° | 111km/h | 10849m | -22.5m/s | -49.2°C | 59.6% | 0hPa | 2.5V | 00:00:00 | 01:52:58 | 00:00:00 | |
| OE3JTB-15 | 2026-09-01 12:56:11 | 45.90308 | 16.98871 | 85° | 120km/h | 10939m | -23.1m/s | -49.9°C | 57.4% | 0hPa | 2.5V | 00:00:00 | 01:52:54 | 00:00:00 | |
| 9A1FER-10 | 2026-09-01 12:56:08 | 45.90299 | 16.98752 | 85° | 117km/h | 11008m | -22.8m/s | -50.4°C | 55.1% | 0hPa | 2.5V | 00:00:00 | 01:52:51 | 00:00:00 | |
| 9A1FER-3 | 2026-09-01 12:56:00 | 45.90275 | 16.98419 | 85° | 122km/h | 11190m | -23.5m/s | -51.5°C | 47.5% | 0hPa | 2.5V | 00:00:00 | 01:52:43 | 00:00:00 | |
| 9A1FER-10 | 2026-09-01 12:55:53 | 45.90259 | 16.98114 | 86° | 126km/h | 11355m | -23.9m/s | -52.5°C | 41.8% | 0hPa | 2.6V | 00:00:00 | 01:52:36 | 00:00:00 | |
| 9A1FER-15 | 2026-09-01 12:55:45 | 45.90239 | 16.97753 | 85° | 131km/h | 11546m | -24.0m/s | -53.3°C | 34.7% | 0hPa | 2.5V | 00:00:00 | 01:52:28 | 00:00:00 | |
| OE3JTB-15 | 2026-09-01 12:55:42 | 45.90229 | 16.97613 | 84° | 137km/h | 11618m | -24.1m/s | -53.4°C | 33.1% | 0hPa | 2.5V | 08:23:00 | 00:00:00 | 00:00:00 | |
| 9A1FER-10 | 2026-09-01 12:55:38 | 45.90215 | 16.97427 | 84° | 137km/h | 11713m | -24.2m/s | -53.6°C | 30.9% | 0hPa | 2.5V | 00:00:00 | 01:52:21 | 00:00:00 | |
| 9A1FER-10 | 2026-09-01 12:55:23 | 45.90149 | 16.96689 | 84° | 142km/h | 12078m | -24.4m/s | -55.5°C | 24.9% | 0hPa | 2.5V | 00:00:00 | 01:52:06 | 00:00:00 | |
| 9A1FER-15 | 2026-09-01 12:55:15 | 45.90110 | 16.96285 | 81° | 144km/h | 12275m | -24.8m/s | -56.1°C | 21.1% | 0hPa | 2.5V | 08:23:00 | 01:51:58 | 00:00:00 | |
| OE3JTB-15 | 2026-09-01 12:55:13 | 45.90097 | 16.96181 | 81° | 142km/h | 12325m | -25.2m/s | -56.1°C | 20.5% | 0hPa | 2.5V | 00:00:00 | 00:00:00 | 00:00:00 | |
| 9A1FER-10 | 2026-09-01 12:55:08 | 45.90069 | 16.95924 | 82° | 144km/h | 12450m | -25.3m/s | -56.4°C | 18.5% | 0hPa | 2.5V | 08:23:00 | 01:51:51 | 00:00:00 | |
| PETON7-10 | 2026-09-01 12:55:03 | 45.90042 | 16.95664 | 83° | 144km/h | 12577m | -25.5m/s | -57.0°C | 16.4% | 0hPa | 2.6V | 08:23:00 | 00:00:00 | 00:00:00 | |
| 9A1FER-15 | 2026-09-01 12:55:00 | 45.90028 | 16.95509 | 84° | 142km/h | 12653m | -25.7m/s | -57.1°C | 14.9% | 0hPa | 2.5V | 00:00:00 | 01:51:43 | 00:00:00 | |
| 9A1FER-10 | 2026-09-01 12:54:53 | 45.89992 | 16.95145 | 83° | 137km/h | 12833m | -25.6m/s | -57.1°C | 11.7% | 0hPa | 2.5V | 00:00:00 | 01:51:36 | 00:00:00 | |
| PETON7-10 | 2026-09-01 12:54:48 | 45.89970 | 16.94889 | 85° | 97km/h | 12962m | -25.8m/s | -56.9°C | 10.0% | 0hPa | 2.5V | 00:00:00 | 00:00:00 | 00:00:00 | |
| 9A1FER-3 | 2026-09-01 12:54:45 | 45.89959 | 16.94739 | 84° | 130km/h | 13038m | -26.1m/s | -57.6°C | 9.2% | 0hPa | 2.5V | 00:00:00 | 01:51:28 | 00:00:00 | |
| OE3JTB-15 | 2026-09-01 12:54:44 | 45.89951 | 16.94641 | 84° | 122km/h | 13090m | -26.0m/s | -57.7°C | 8.5% | 0hPa | 2.5V | 00:00:00 | 01:51:26 | 00:00:00 | |
| 9A1FER-10 | 2026-09-01 12:54:38 | 45.89924 | 16.94408 | 81° | 122km/h | 13222m | -26.9m/s | -57.6°C | 7.4% | 0hPa | 2.5V | 00:00:00 | 01:51:21 | 00:00:00 | |
| 9A1FER-15 | 2026-09-01 12:54:30 | 45.89887 | 16.94049 | 85° | 117km/h | 13436m | -27.0m/s | -57.6°C | 6.8% | 0hPa | 2.5V | 00:00:00 | 01:51:13 | 00:00:00 | |
| 9A1FER-10 | 2026-09-01 12:54:23 | 45.89872 | 16.93747 | 88° | 111km/h | 13625m | -27.8m/s | -57.7°C | 6.5% | 0hPa | 2.5V | 00:00:00 | 01:51:06 | 00:00:00 | |
| OE3JTB-15 | 2026-09-01 12:54:15 | 45.89850 | 16.93296 | 87° | 100km/h | 13931m | -28.2m/s | -57.9°C | 6.4% | 0hPa | 2.5V | 00:00:00 | 00:00:00 | 00:00:00 | |
| 9A1FER-10 | 2026-09-01 12:54:08 | 45.89840 | 16.93140 | 85° | 100km/h | 14043m | -28.4m/s | -57.9°C | 6.3% | 0hPa | 2.5V | 00:00:00 | 01:50:51 | 00:00:00 | |
| 9A1FER-3 | 2026-09-01 12:54:01 | 45.89821 | 16.92840 | 86° | 95km/h | 14267m | -29.1m/s | -57.9°C | 6.3% | 0hPa | 2.5V | 00:00:00 | 01:50:43 | 00:00:00 | |
| 9A1FER-10 | 2026-09-01 12:53:53 | 45.89809 | 16.92597 | 85° | 88km/h | 14471m | -29.5m/s | -57.7°C | 6.0% | 0hPa | 2.5V | 00:00:00 | 01:50:36 | 00:00:00 | |
| 9A1FER-15 | 2026-09-01 12:53:45 | 45.89791 | 16.92327 | 86° | 78km/h | 14706m | -29.5m/s | -56.8°C | 5.3% | 0hPa | 2.5V | 00:00:00 | 01:50:28 | 00:00:00 | |
| 9A1FER-10 | 2026-09-01 12:53:38 | 45.89781 | 16.92121 | 87° | 73km/h | 14915m | -30.4m/s | -56.8°C | 5.2% | 0hPa | 2.6V | 00:00:00 | 01:50:21 | 00:00:00 | |
| 9A1FER-3 | 2026-09-01 12:53:30 | 45.89775 | 16.91905 | 88° | 68km/h | 15160m | -30.7m/s | -57.3°C | 5.2% | 0hPa | 2.5V | 00:00:00 | 01:50:13 | 00:00:00 | |
| PETON7-10 | 2026-09-01 12:53:26 | 45.89772 | 16.91802 | 87° | 53km/h | 15282m | -31.2m/s | -57.5°C | 5.2% | 0hPa | 2.5V | 00:00:00 | 01:50:09 | 00:00:00 | |
| 9A1FER-10 | 2026-09-01 12:53:23 | 45.89767 | 16.91727 | 84° | 66km/h | 15375m | -31.1m/s | -57.8°C | 5.2% | 0hPa | 2.5V | 00:00:00 | 01:50:06 | 00:00:00 | |
| OE3JTB-15 | 2026-09-01 12:53:16 | 45.89749 | 16.91562 | 82° | 62km/h | 15594m | -31.5m/s | -57.3°C | 5.1% | 0hPa | 2.5V | 00:00:00 | 01:49:59 | 00:00:00 | |
| 9A1FER-10 | 2026-09-01 12:53:08 | 45.89732 | 16.91371 | 89° | 58km/h | 15846m | -31.8m/s | -57.8°C | 5.3% | 0hPa | 2.5V | 00:00:00 | 01:49:51 | 00:00:00 | |
| 9A1FER-15 | 2026-09-01 12:53:00 | 45.89723 | 16.91196 | 84° | 62km/h | 16103m | -32.8m/s | -57.5°C | 5.3% | 0hPa | 2.5V | 08:25:00 | 01:49:43 | 00:00:00 | |
| 9A1FER-10 | 2026-09-01 12:52:53 | 45.89709 | 16.91049 | 82° | 58km/h | 16332m | -33.4m/s | -58.0°C | 5.5% | 0hPa | 2.5V | 08:25:00 | 01:49:36 | 00:00:00 | |
| OE3JTB-15 | 2026-09-01 12:52:47 | 45.89701 | 16.90906 | 93° | 46km/h | 16531m | -33.7m/s | -57.1°C | 5.2% | 0hPa | 2.6V | 00:00:00 | 00:00:00 | 00:00:00 | |
| 9A1FER-3 | 2026-09-01 12:52:45 | 45.89702 | 16.90860 | 94° | 47km/h | 16598m | -34.3m/s | -56.6°C | 4.9% | 0hPa | 2.6V | 00:00:00 | 01:49:28 | 00:00:00 | |
| 9A1FER-10 | 2026-09-01 12:52:38 | 45.89709 | 16.90734 | 91° | 42km/h | 16839m | -34.2m/s | -56.4°C | 4.9% | 0hPa | 2.6V | 00:00:00 | 01:49:21 | 00:00:00 | |
| OE5DRO-10 | 2026-09-01 12:52:37 | 45.89710 | 16.90718 | 99° | 31km/h | 16873m | -34.4m/s | -55.9°C | 4.6% | 0hPa | 2.6V | 00:00:00 | 00:00:00 | 00:00:00 | |
| OE5DXL-15 | 2026-09-01 12:52:32 | 45.89718 | 16.90640 | 96° | 37km/h | 17047m | -35.7m/s | -55.4°C | 4.5% | 0hPa | 2.6V | 00:00:00 | 00:00:00 | 00:00:00 | |
| 9A1FER-15 | 2026-09-01 12:52:30 | 45.89719 | 16.90612 | 94° | 42km/h | 17118m | -35.6m/s | -55.4°C | 4.5% | 0hPa | 2.6V | 00:00:00 | 01:49:13 | 00:00:00 | |
| 9A1FER-10 | 2026-09-01 12:52:23 | 45.89711 | 16.90511 | 80° | 38km/h | 17369m | -35.7m/s | -56.6°C | 4.8% | 0hPa | 2.6V | 00:00:00 | 01:49:06 | 00:00:00 | |
| OE3JTB-15 | 2026-09-01 12:52:19 | 45.89704 | 16.90434 | 88° | 22km/h | 17550m | -36.9m/s | -56.4°C | 4.7% | 0hPa | 2.6V | 00:00:00 | 00:00:00 | 00:00:00 | |
| 9A1FER-3 | 2026-09-01 12:52:16 | 45.89705 | 16.90389 | 93° | 29km/h | 17661m | -37.0m/s | -56.2°C | 4.7% | 0hPa | 2.6V | 08:26:00 | 01:48:58 | 00:00:00 | |
| 9A1FER-10 | 2026-09-01 12:52:08 | 45.89718 | 16.90305 | 111° | 27km/h | 17920m | -37.4m/s | -54.1°C | 3.9% | 0hPa | 2.6V | 00:00:00 | 01:48:51 | 00:00:00 | |
| OE5DXL-15 | 2026-09-01 12:52:02 | 45.89727 | 16.90252 | 94° | 24km/h | 18144m | -37.3m/s | -55.0°C | 4.2% | 0hPa | 2.5V | 00:00:00 | 00:00:00 | 00:00:00 | |
| 9A1FER-3 | 2026-09-01 12:52:00 | 45.89726 | 16.90234 | 79° | 26km/h | 18219m | -37.7m/s | -55.5°C | 4.4% | 0hPa | 2.5V | 00:00:00 | 01:48:43 | 00:00:00 | |
| 9A1FER-10 | 2026-09-01 12:51:53 | 45.89712 | 16.90165 | 73° | 22km/h | 18486m | -38.6m/s | -55.9°C | 4.7% | 0hPa | 2.5V | 00:00:00 | 01:48:36 | 00:00:00 | |
| PETON7-10 | 2026-09-01 12:51:48 | 45.89702 | 16.90129 | 67° | 24km/h | 18681m | -39.8m/s | -55.9°C | 4.8% | 0hPa | 2.5V | 00:00:00 | 00:00:00 | 00:00:00 | |
| 9A1FER-15 | 2026-09-01 12:51:45 | 45.89692 | 16.90108 | 54° | 22km/h | 18800m | -39.4m/s | -56.2°C | 4.9% | 0hPa | 2.6V | 00:00:00 | 01:48:28 | 00:00:00 | |
| 9A1FER-10 | 2026-09-01 12:51:38 | 45.89663 | 16.90065 | 45° | 18km/h | 19075m | -39.5m/s | -54.9°C | 4.4% | 0hPa | 2.6V | 00:00:00 | 01:48:21 | 00:00:00 | |
| PG1ADW-2 | 2026-09-01 12:51:35 | 45.89650 | 16.90045 | 51° | 18km/h | 19194m | -39.3m/s | -55.2°C | 4.6% | 0hPa | 2.6V | 00:00:00 | 00:00:00 | 00:00:00 | |
| PETON7-10 | 2026-09-01 12:51:33 | 45.89641 | 16.90026 | 60° | 16km/h | 19312m | -39.6m/s | -54.8°C | 4.5% | 0hPa | 2.6V | 00:00:00 | 00:00:00 | 00:00:00 | |
| 9A1FER-3 | 2026-09-01 12:51:30 | 45.89636 | 16.90016 | 49° | 16km/h | 19392m | -40.9m/s | -54.1°C | 4.3% | 0hPa | 2.6V | 00:00:00 | 01:48:13 | 00:00:00 | |
| 9A1FER-10 | 2026-09-01 12:51:23 | 45.89614 | 16.89996 | 38° | 20km/h | 19691m | -43.7m/s | -53.9°C | 4.1% | 0hPa | 2.6V | 00:00:00 | 01:48:06 | 00:00:00 | |
| 9A1FER-15 | 2026-09-01 12:51:15 | 45.89582 | 16.89964 | 41° | 18km/h | 20038m | -44.0m/s | -53.6°C | 3.9% | 0hPa | 2.6V | 00:00:00 | 01:47:58 | 00:00:00 | |
| 9A1FER-10 | 2026-09-01 12:51:08 | 45.89552 | 16.89928 | 37° | 16km/h | 20341m | -42.6m/s | -53.8°C | 4.2% | 0hPa | 2.6V | 00:00:00 | 01:47:51 | 00:00:00 | |
| OE5DXL-15 | 2026-09-01 12:51:02 | 45.89537 | 16.89904 | 59° | 16km/h | 20597m | -42.7m/s | -54.3°C | 4.3% | 0hPa | 2.6V | 00:00:00 | 00:00:00 | 00:00:00 | |
| 9A1FER-3 | 2026-09-01 12:51:00 | 45.89532 | 16.89893 | 55° | 18km/h | 20683m | -43.4m/s | -54.8°C | 4.5% | 0hPa | 2.6V | 00:00:00 | 01:47:43 | 00:00:00 | |
| DO3MHA-11 | 2026-09-01 12:50:57 | 45.89523 | 16.89879 | 47° | 18km/h | 20817m | -44.6m/s | 0°C | 0% | 0hPa | 2.6V | 00:00:00 | 01:47:40 | 00:00:00 | |
| PG1ADW-2 | 2026-09-01 12:50:55 | 45.89517 | 16.89872 | 35° | 16km/h | 20907m | -45.4m/s | -54.1°C | 4.3% | 0hPa | 2.6V | 00:00:00 | 01:47:38 | 00:00:00 | |
| 9A1FER-10 | 2026-09-01 12:50:53 | 45.89510 | 16.89866 | 38° | 18km/h | 20999m | -46.0m/s | -53.9°C | 4.3% | 0hPa | 2.6V | 00:00:00 | 01:47:36 | 00:00:00 | |
| PETON7-10 | 2026-09-01 12:50:52 | 45.89506 | 16.89862 | 41° | 16km/h | 21045m | -46.5m/s | -53.4°C | 4.1% | 0hPa | 2.6V | 00:00:00 | 01:47:35 | 00:00:00 | |
| DO3MHA-11 | 2026-09-01 12:50:47 | 45.89493 | 16.89833 | 69° | 18km/h | 21276m | -45.8m/s | 0°C | 0% | 0hPa | 2.6V | 00:00:00 | 01:47:30 | 00:00:00 | |
| 9A1FER-3 | 2026-09-01 12:50:45 | 45.89489 | 16.89820 | 70° | 13km/h | 21368m | -46.1m/s | -54.0°C | 4.4% | 0hPa | 2.6V | 00:00:00 | 01:47:28 | 00:00:00 | |
| 9A1FER-10 | 2026-09-01 12:50:38 | 45.89477 | 16.89784 | 56° | 9km/h | 21700m | -48.9m/s | -53.6°C | 4.4% | 0hPa | 2.6V | 08:28:00 | 01:47:21 | 00:00:00 | |
| PETON7-10 | 2026-09-01 12:50:36 | 45.89473 | 16.89779 | 35° | 11km/h | 21797m | -48.7m/s | -53.5°C | 4.3% | 0hPa | 2.6V | 00:00:00 | 00:00:00 | 00:00:00 | |
| PG1ADW-2 | 2026-09-01 12:50:35 | 45.89471 | 16.89777 | 41° | 7km/h | 21846m | -48.6m/s | -53.5°C | 4.4% | 0hPa | 2.6V | 00:00:00 | 00:00:00 | 00:00:00 | |
| OE5DXL-15 | 2026-09-01 12:50:32 | 45.89464 | 16.89769 | 35° | 7km/h | 21989m | -47.4m/s | -53.3°C | 4.4% | 0hPa | 2.6V | 00:00:00 | 00:00:00 | 00:00:00 | |
| 9A1FER-15 | 2026-09-01 12:50:30 | 45.89460 | 16.89764 | 53° | 5km/h | 22085m | -47.3m/s | -52.6°C | 4.2% | 0hPa | 2.6V | 00:00:00 | 01:47:13 | 00:00:00 | |
| 9A1FER-10 | 2026-09-01 12:50:23 | 45.89453 | 16.89751 | 41° | 5km/h | 22421m | -49.9m/s | -52.3°C | 4.1% | 0hPa | 2.6V | 00:00:00 | 01:47:06 | 00:00:00 | |
| PETON7-10 | 2026-09-01 12:50:21 | 45.89452 | 16.89750 | 29° | 5km/h | 22520m | -50.0m/s | -51.7°C | 3.9% | 0hPa | 2.6V | 00:00:00 | 00:00:00 | 00:00:00 | |
| 9A1FER-15 | 2026-09-01 12:50:15 | 45.89445 | 16.89749 | 340° | 9km/h | 22826m | -51.3m/s | -50.7°C | 3.5% | 0hPa | 2.6V | 00:00:00 | 01:46:58 | 00:00:00 | |
| 9A1FER-10 | 2026-09-01 12:50:08 | 45.89453 | 16.89756 | 232° | 9km/h | 23185m | -50.2m/s | -51.1°C | 3.6% | 0hPa | 2.6V | 00:00:00 | 01:46:51 | 00:00:00 | |
| PETON7-10 | 2026-09-01 12:50:07 | 45.89456 | 16.89764 | 248° | 11km/h | 23288m | -52.1m/s | -51.2°C | 3.7% | 0hPa | 2.6V | 00:00:00 | 01:46:49 | 00:00:00 | |
| OE5DXL-15 | 2026-09-01 12:50:02 | 45.89454 | 16.89779 | 322° | 7km/h | 23499m | -53.7m/s | -51.2°C | 3.7% | 0hPa | 2.6V | 00:00:00 | 00:00:00 | 00:00:00 | |
| 9A1FER-3 | 2026-09-01 12:50:00 | 45.89450 | 16.89784 | 340° | 9km/h | 23605m | -52.9m/s | -51.3°C | 3.8% | 0hPa | 2.6V | 00:00:00 | 01:46:43 | 08:30:00 | |
| PG1ADW-2 | 2026-09-01 12:49:55 | 45.89439 | 16.89790 | 330° | 7km/h | 23868m | -52.8m/s | -51.6°C | 4.0% | 0hPa | 2.6V | 00:00:00 | 00:00:00 | 00:00:00 | |
| PETON7-10 | 2026-09-01 12:49:50 | 45.89434 | 16.89801 | 294° | 7km/h | 24135m | -53.8m/s | -51.6°C | 4.1% | 0hPa | 2.6V | 08:28:00 | 00:00:00 | 00:00:00 | |
| 9A1FER-15 | 2026-09-01 12:49:45 | 45.89430 | 16.89816 | 293° | 5km/h | 24406m | -55.3m/s | -50.8°C | 3.9% | 0hPa | 2.6V | 00:00:00 | 01:46:28 | 00:00:00 | |
| 9A1FER-10 | 2026-09-01 12:49:42 | 45.89424 | 16.89823 | 320° | 5km/h | 24574m | -56.3m/s | -50.1°C | 3.8% | 0hPa | 2.6V | 00:00:00 | 01:46:25 | 00:00:00 | |
| PG1ADW-2 | 2026-09-01 12:49:35 | 45.89414 | 16.89823 | 27° | 4km/h | 24978m | -58.3m/s | -49.8°C | 3.8% | 0hPa | 2.6V | 00:00:00 | 01:46:18 | 00:00:00 | |
| PETON7-10 | 2026-09-01 12:49:33 | 45.89413 | 16.89822 | 330° | 4km/h | 25094m | -58.0m/s | -49.5°C | 3.7% | 0hPa | 2.6V | 00:00:00 | 00:00:00 | 00:00:00 | |
| OE5DXL-15 | 2026-09-01 12:49:32 | 45.89412 | 16.89821 | 43° | 5km/h | 25152m | -58.8m/s | -49.7°C | 3.8% | 0hPa | 2.6V | 00:00:00 | 00:00:00 | 00:00:00 | |
| 9A1FER-15 | 2026-09-01 12:49:30 | 45.89411 | 16.89820 | 53° | 4km/h | 25269m | -58.5m/s | -49.9°C | 4.0% | 0hPa | 2.6V | 00:00:00 | 01:46:13 | 00:00:00 | |
| 9A1FER-10 | 2026-09-01 12:49:27 | 45.89410 | 16.89816 | 70° | 5km/h | 25443m | -58.9m/s | -49.4°C | 3.9% | 0hPa | 2.6V | 00:00:00 | 01:46:10 | 00:00:00 | |
| 9A1FER-3 | 2026-09-01 12:49:20 | 45.89413 | 16.89809 | 319° | 7km/h | 25883m | -69.0m/s | -46.9°C | 3.1% | 0hPa | 2.6V | 00:00:00 | 01:46:03 | 00:00:00 | |
| PETON7-10 | 2026-09-01 12:49:18 | 45.89411 | 16.89810 | 338° | 7km/h | 26023m | -70.2m/s | -47.0°C | 3.2% | 0hPa | 2.6V | 00:00:00 | 01:46:01 | 00:00:00 | |
| PG1ADW-2 | 2026-09-01 12:49:15 | 45.89406 | 16.89809 | 33° | 9km/h | 26235m | -72.8m/s | -47.6°C | 3.5% | 0hPa | 2.6V | 00:00:00 | 00:00:00 | 00:00:00 | |
| 9A1FER-10 | 2026-09-01 12:49:11 | 45.89401 | 16.89800 | 57° | 9km/h | 26528m | -73.6m/s | -46.2°C | 3.1% | 0hPa | 2.6V | 00:00:00 | 01:45:54 | 00:00:00 | |
| 9A1FER-3 | 2026-09-01 12:49:05 | 45.89393 | 16.89790 | 34° | 11km/h | 26958m | -73.9m/s | -46.2°C | 3.2% | 0hPa | 2.6V | 00:00:00 | 01:45:48 | 00:00:00 | |
| OE3JTB-15 | 2026-09-01 12:49:04 | 45.89391 | 16.89787 | 46° | 11km/h | 27032m | -75.4m/s | -45.7°C | 3.1% | 0hPa | 2.6V | 00:00:00 | 00:00:00 | 08:30:00 | |
| PETON7-10 | 2026-09-01 12:49:03 | 45.89390 | 16.89785 | 59° | 11km/h | 27109m | -78.8m/s | -45.7°C | 3.1% | 0hPa | 2.6V | 00:00:00 | 00:00:00 | 00:00:00 | |
| OE5DXL-15 | 2026-09-01 12:49:02 | 45.89388 | 16.89781 | 69° | 11km/h | 27188m | -77.8m/s | -45.8°C | 3.1% | 0hPa | 2.6V | 00:00:00 | 00:00:00 | 00:00:00 | |
| 9A1FER-15 | 2026-09-01 12:49:00 | 45.89387 | 16.89773 | 81° | 9km/h | 27341m | -75.3m/s | -45.8°C | 3.2% | 0hPa | 2.6V | 00:00:00 | 01:45:43 | 00:00:00 | |
| 9A1FER-10 | 2026-09-01 12:48:56 | 45.89388 | 16.89758 | 124° | 13km/h | 27645m | -79.0m/s | -45.2°C | 3.1% | 0hPa | 2.6V | 00:00:00 | 01:45:39 | 00:00:00 | |
| PG1ADW-2 | 2026-09-01 12:48:55 | 45.89390 | 16.89755 | 109° | 11km/h | 27724m | -79.2m/s | -45.0°C | 3.1% | 0hPa | 2.7V | 00:00:00 | 00:00:00 | 00:00:00 | |
| 9A1FER-3 | 2026-09-01 12:48:50 | 45.89395 | 16.89740 | 130° | 11km/h | 28117m | -77.6m/s | -44.5°C | 3.0% | 0hPa | 2.7V | 00:00:00 | 01:45:33 | 00:00:00 | |
| PETON7-10 | 2026-09-01 12:48:48 | 45.89397 | 16.89734 | 101° | 11km/h | 28273m | -78.3m/s | -44.0°C | 3.0% | 0hPa | 2.7V | 00:00:00 | 00:00:00 | 00:00:00 | |
| 9A1FER-15 | 2026-09-01 12:48:45 | 45.89400 | 16.89723 | 104° | 11km/h | 28507m | -77.4m/s | -43.5°C | 2.9% | 0hPa | 2.7V | 00:00:00 | 01:45:28 | 00:00:00 | |
| OE5DRO-10 | 2026-09-01 12:48:43 | 45.89401 | 16.89711 | 111° | 9km/h | 28660m | -75.4m/s | -43.1°C | 2.8% | 0hPa | 2.7V | 00:00:00 | 00:00:00 | 00:00:00 | |
| 9A1FER-10 | 2026-09-01 12:48:40 | 45.89404 | 16.89695 | 111° | 9km/h | 28887m | -75.2m/s | -43.0°C | 2.8% | 0hPa | 2.7V | 00:00:00 | 01:45:23 | 00:00:00 | |
| 9A1FER-3 | 2026-09-01 12:48:35 | 45.89407 | 16.89682 | 68° | 9km/h | 29263m | -75.3m/s | -42.7°C | 2.8% | 0hPa | 2.7V | 00:00:00 | 01:45:18 | 00:00:00 | |
| PETON7-10 | 2026-09-01 12:48:33 | 45.89406 | 16.89678 | 41° | 11km/h | 29413m | -75.0m/s | -42.0°C | 2.7% | 0hPa | 2.7V | 00:00:00 | 01:45:16 | 00:00:00 | |
| OE5DXL-15 | 2026-09-01 12:48:32 | 45.89405 | 16.89676 | 52° | 9km/h | 29488m | -74.5m/s | -41.4°C | 2.5% | 0hPa | 2.7V | 00:00:00 | 00:00:00 | 08:30:00 | |
| 9A1FER-15 | 2026-09-01 12:48:30 | 45.89402 | 16.89673 | 30° | 11km/h | 29637m | -73.1m/s | -40.9°C | 2.4% | 0hPa | 2.6V | 00:00:00 | 01:45:13 | 08:30:00 | |
| OE5DRO-10 | 2026-09-01 12:48:24 | 45.89393 | 16.89653 | 80° | 9km/h | 30053m | -66.2m/s | -40.6°C | 2.3% | 0hPa | 2.7V | 00:00:00 | 00:00:00 | 00:00:00 | |
| OE8JPQ-2 | 2026-09-01 12:48:22 | 45.89391 | 16.89640 | 83° | 9km/h | 30246m | -60.4m/s | -40.4°C | 2.2% | 0hPa | 2.7V | 00:00:00 | 00:00:00 | 00:00:00 | |
| 9A1FER-3 | 2026-09-01 12:48:21 | 45.89390 | 16.89636 | 84° | 9km/h | 30304m | -54.5m/s | -40.4°C | 2.2% | 0hPa | 2.7V | 00:00:00 | 01:45:03 | 00:00:00 | |
| PETON7-10 | 2026-09-01 12:48:20 | 45.89390 | 16.89627 | 83° | 7km/h | 30401m | -43.0m/s | -40.4°C | 2.2% | 0hPa | 2.7V | 00:00:00 | 00:00:00 | 00:00:00 | |
| PG1ADW-2 | 2026-09-01 12:48:15 | 45.89389 | 16.89618 | 82° | 7km/h | 30501m | -23.2m/s | -40.5°C | 2.2% | 0hPa | 2.6V | 00:00:00 | 01:44:58 | 00:00:00 | |
| 9A1FER-10 | 2026-09-01 12:48:09 | 45.89383 | 16.89614 | 354° | 9km/h | 30515m | 6.6m/s | -40.7°C | 2.4% | 0hPa | 2.6V | 00:00:00 | 01:44:52 | 08:30:00 | |
| OE3JTB-15 | 2026-09-01 12:48:06 | 45.89377 | 16.89618 | 312° | 7km/h | 30496m | 5.4m/s | -40.6°C | 2.4% | 0hPa | 2.6V | 00:00:00 | 01:44:49 | 00:00:00 | |
| 9A1FER-3 | 2026-09-01 12:48:05 | 45.89376 | 16.89620 | 299° | 7km/h | 30490m | 7.4m/s | -40.5°C | 2.4% | 0hPa | 2.6V | 00:00:00 | 01:44:48 | 00:00:00 | |
| PETON7-10 | 2026-09-01 12:48:03 | 45.89374 | 16.89628 | 267° | 7km/h | 30477m | 5.6m/s | -40.6°C | 2.4% | 0hPa | 2.6V | 00:00:00 | 00:00:00 | 00:00:00 | |
| OE5DXL-15 | 2026-09-01 12:48:02 | 45.89375 | 16.89632 | 249° | 7km/h | 30470m | 7.1m/s | -40.6°C | 2.4% | 0hPa | 2.6V | 00:00:00 | 00:00:00 | 00:00:00 | |
| OE8JPQ-2 | 2026-09-01 12:48:01 | 45.89377 | 16.89635 | 216° | 9km/h | 30463m | 6.6m/s | -40.5°C | 2.4% | 0hPa | 2.6V | 00:00:00 | 01:44:44 | 00:00:00 | |
| 9A1FER-15 | 2026-09-01 12:47:59 | 45.89380 | 16.89636 | 156° | 9km/h | 30453m | 5.4m/s | -40.5°C | 2.4% | 0hPa | 2.6V | 00:00:00 | 01:44:42 | 00:00:00 | |
| PG1ADW-2 | 2026-09-01 12:47:55 | 45.89376 | 16.89631 | 32° | 7km/h | 30427m | 7.0m/s | -40.6°C | 2.3% | 0hPa | 2.6V | 00:00:00 | 00:00:00 | 00:00:00 | |
| 9A1FER-10 | 2026-09-01 12:47:54 | 45.89374 | 16.89629 | 46° | 9km/h | 30420m | 6.8m/s | -40.6°C | 2.3% | 0hPa | 2.6V | 00:00:00 | 01:44:37 | 00:00:00 | |
| 9A1FER-3 | 2026-09-01 12:47:50 | 45.89370 | 16.89626 | 291° | 9km/h | 30395m | 5.1m/s | -41.0°C | 2.3% | 0hPa | 2.6V | 00:00:00 | 01:44:33 | 00:00:00 | |
| PETON7-10 | 2026-09-01 12:47:48 | 45.89372 | 16.89629 | 205° | 9km/h | 30383m | 8.0m/s | -41.1°C | 2.4% | 0hPa | 2.6V | 00:00:00 | 01:44:31 | 00:00:00 | |
| OE5DRO-10 | 2026-09-01 12:47:46 | 45.89379 | 16.89630 | 186° | 7km/h | 30370m | 5.2m/s | -41.1°C | 2.4% | 0hPa | 2.6V | 00:00:00 | 00:00:00 | 00:00:00 | |
| 9A1FER-15 | 2026-09-01 12:47:45 | 45.89387 | 16.89632 | 196° | 7km/h | 30359m | 6.9m/s | -41.0°C | 2.4% | 0hPa | 2.6V | 00:00:00 | 01:44:27 | 00:00:00 | |
| OE8JPQ-2 | 2026-09-01 12:47:41 | 45.89391 | 16.89637 | 258° | 7km/h | 30339m | 6.4m/s | -41.2°C | 2.4% | 0hPa | 2.7V | 00:00:00 | 00:00:00 | 08:30:00 | |
| 9A1FER-10 | 2026-09-01 12:47:39 | 45.89392 | 16.89637 | 107° | 7km/h | 30326m | 5.3m/s | -41.4°C | 2.3% | 0hPa | 2.6V | 00:00:00 | 01:44:22 | 00:00:00 | |
| OE3JTB-15 | 2026-09-01 12:47:37 | 45.89391 | 16.89633 | 56° | 13km/h | 30313m | 7.7m/s | -41.6°C | 2.3% | 0hPa | 2.6V | 00:00:00 | 00:00:00 | 00:00:00 | |
| PG1ADW-2 | 2026-09-01 12:47:35 | 45.89389 | 16.89628 | 76° | 13km/h | 30301m | 5.8m/s | -41.7°C | 2.4% | 0hPa | 2.6V | 00:00:00 | 00:00:00 | 00:00:00 | |
| PETON7-10 | 2026-09-01 12:47:33 | 45.89390 | 16.89622 | 127° | 11km/h | 30287m | 6.6m/s | -41.7°C | 2.4% | 0hPa | 2.6V | 00:00:00 | 00:00:00 | 08:30:00 | |
| OE5DXL-15 | 2026-09-01 12:47:32 | 45.89391 | 16.89619 | 136° | 16km/h | 30281m | 6.2m/s | -41.7°C | 2.4% | 0hPa | 2.7V | 00:00:00 | 00:00:00 | 00:00:00 | |
| 9A1FER-15 | 2026-09-01 12:47:29 | 45.89394 | 16.89613 | 96° | 15km/h | 30261m | 4.5m/s | -41.7°C | 2.5% | 0hPa | 2.7V | 00:00:00 | 01:44:12 | 00:00:00 | |
| OE5DRO-10 | 2026-09-01 12:47:27 | 45.89395 | 16.89608 | 127° | 15km/h | 30249m | 7.2m/s | -41.7°C | 2.5% | 0hPa | 2.7V | 00:00:00 | 00:00:00 | 00:00:00 | |
| 9A1FER-10 | 2026-09-01 12:47:24 | 45.89398 | 16.89600 | 101° | 16km/h | 30231m | 7.5m/s | -42.0°C | 2.5% | 0hPa | 2.7V | 00:00:00 | 01:44:07 | 00:00:00 | |
| LZ4TU-5 | 2026-09-01 12:47:20 | 45.89400 | 16.89582 | 111° | 20km/h | 30205m | 6.8m/s | 0°C | 0% | 0hPa | 2.6V | 00:00:00 | 00:00:00 | 00:00:00 | |
| PETON7-10 | 2026-09-01 12:47:18 | 45.89404 | 16.89566 | 109° | 18km/h | 30194m | 5.2m/s | -42.1°C | 2.5% | 0hPa | 2.6V | 00:00:00 | 00:00:00 | 00:00:00 | |
| PG1ADW-2 | 2026-09-01 12:47:15 | 45.89406 | 16.89541 | 84° | 18km/h | 30175m | 6.1m/s | -42.2°C | 2.5% | 0hPa | 2.6V | 00:00:00 | 00:00:00 | 08:30:00 | |
| 9A1FER-15 | 2026-09-01 12:47:14 | 45.89406 | 16.89535 | 84° | 20km/h | 30168m | 7.0m/s | -42.2°C | 2.6% | 0hPa | 2.7V | 00:00:00 | 01:43:57 | 00:00:00 | |
| 9A1FER-10 | 2026-09-01 12:47:09 | 45.89401 | 16.89518 | 57° | 22km/h | 30134m | 5.3m/s | -42.0°C | 2.5% | 0hPa | 2.7V | 00:00:00 | 01:43:52 | 00:00:00 | |
| OE5DRO-10 | 2026-09-01 12:47:08 | 45.89399 | 16.89514 | 71° | 22km/h | 30128m | 7.0m/s | -42.1°C | 2.5% | 0hPa | 2.7V | 00:00:00 | 00:00:00 | 00:00:00 | |
| 9A1FER-3 | 2026-09-01 12:47:05 | 45.89397 | 16.89490 | 84° | 22km/h | 30109m | 6.7m/s | -42.1°C | 2.6% | 0hPa | 2.7V | 00:00:00 | 01:43:48 | 00:00:00 | |
| PETON7-10 | 2026-09-01 12:47:03 | 45.89394 | 16.89466 | 77° | 22km/h | 30095m | 6.0m/s | -41.9°C | 2.6% | 0hPa | 2.7V | 00:00:00 | 01:43:46 | 00:00:00 | |
| OE8JPQ-2 | 2026-09-01 12:47:01 | 45.89390 | 16.89444 | 76° | 20km/h | 30083m | 6.6m/s | -41.8°C | 2.5% | 0hPa | 2.7V | 00:00:00 | 01:43:44 | 00:00:00 | |
| 9A1FER-15 | 2026-09-01 12:46:59 | 45.89387 | 16.89432 | 44° | 18km/h | 30072m | 5.4m/s | -41.7°C | 2.5% | 0hPa | 2.7V | 00:00:00 | 01:43:42 | 00:00:00 | |
| PG1ADW-2 | 2026-09-01 12:46:55 | 45.89373 | 16.89428 | 10° | 18km/h | 30046m | 6.2m/s | -41.7°C | 2.5% | 0hPa | 2.6V | 00:00:00 | 01:43:38 | 00:00:00 | |
| 9A1FER-10 | 2026-09-01 12:46:54 | 45.89370 | 16.89427 | 39° | 20km/h | 30040m | 6.7m/s | -41.8°C | 2.5% | 0hPa | 2.6V | 00:00:00 | 01:43:37 | 00:00:00 | |
| 9A1FER-3 | 2026-09-01 12:46:50 | 45.89362 | 16.89399 | 64° | 18km/h | 30014m | 6.1m/s | -42.1°C | 2.6% | 0hPa | 2.6V | 00:00:00 | 01:43:33 | 00:00:00 | |
| OE5DRO-10 | 2026-09-01 12:46:49 | 45.89359 | 16.89390 | 57° | 20km/h | 30008m | 4.9m/s | -42.1°C | 2.6% | 0hPa | 2.6V | 00:00:00 | 00:00:00 | 00:00:00 | |
| PETON7-10 | 2026-09-01 12:46:48 | 45.89355 | 16.89383 | 52° | 18km/h | 30002m | 6.2m/s | -42.1°C | 2.6% | 0hPa | 2.6V | 00:00:00 | 00:00:00 | 00:00:00 | |
| 9A1FER-15 | 2026-09-01 12:46:44 | 45.89340 | 16.89371 | 358° | 20km/h | 29975m | 7.9m/s | -42.2°C | 2.6% | 0hPa | 2.6V | 00:00:00 | 01:43:27 | 00:00:00 | |
| OE8JPQ-2 | 2026-09-01 12:46:41 | 45.89326 | 16.89376 | 340° | 18km/h | 29958m | 7.5m/s | -42.4°C | 2.6% | 0hPa | 2.6V | 00:00:00 | 00:00:00 | 00:00:00 | |
| 9A1FER-10 | 2026-09-01 12:46:39 | 45.89320 | 16.89379 | 359° | 20km/h | 29944m | 5.4m/s | -42.4°C | 2.6% | 0hPa | 2.6V | 00:00:00 | 01:43:22 | 00:00:00 | |
| 9A1FER-3 | 2026-09-01 12:46:35 | 45.89303 | 16.89367 | 34° | 18km/h | 29918m | 6.3m/s | -42.5°C | 2.6% | 0hPa | 2.7V | 00:00:00 | 01:43:18 | 00:00:00 | |
| PETON7-10 | 2026-09-01 12:46:33 | 45.89293 | 16.89358 | 25° | 18km/h | 29904m | 6.0m/s | -42.6°C | 2.6% | 0hPa | 2.7V | 00:00:00 | 00:00:00 | 00:00:00 | |
| OE5DXL-15 | 2026-09-01 12:46:32 | 45.89288 | 16.89355 | 16° | 18km/h | 29898m | 6.4m/s | -42.7°C | 2.6% | 0hPa | 2.7V | 00:00:00 | 00:00:00 | 00:00:00 | |
| OE5DRO-10 | 2026-09-01 12:46:30 | 45.89275 | 16.89353 | 360° | 20km/h | 29884m | 5.8m/s | -42.5°C | 2.6% | 0hPa | 2.7V | 00:00:00 | 00:00:00 | 00:00:00 | |
| 9A1FER-15 | 2026-09-01 12:46:29 | 45.89269 | 16.89353 | 352° | 20km/h | 29879m | 4.1m/s | -42.5°C | 2.6% | 0hPa | 2.7V | 00:00:00 | 01:43:12 | 00:00:00 | |
| 9A1FER-10 | 2026-09-01 12:46:24 | 45.89250 | 16.89357 | 30° | 22km/h | 29847m | 6.8m/s | -42.4°C | 2.6% | 0hPa | 2.7V | 00:00:00 | 01:43:07 | 00:00:00 | |
| 9A1FER-3 | 2026-09-01 12:46:20 | 45.89240 | 16.89346 | 22° | 22km/h | 29821m | 5.1m/s | -42.3°C | 2.5% | 0hPa | 2.7V | 00:00:00 | 01:43:03 | 00:00:00 | |
| PETON7-10 | 2026-09-01 12:46:18 | 45.89230 | 16.89343 | 4° | 20km/h | 29808m | 7.7m/s | -42.4°C | 2.5% | 0hPa | 2.7V | 00:00:00 | 01:43:01 | 00:00:00 | |
| PG1ADW-2 | 2026-09-01 12:46:15 | 45.89205 | 16.89346 | 349° | 18km/h | 29790m | 6.9m/s | -42.5°C | 2.6% | 0hPa | 2.7V | 00:00:00 | 00:00:00 | 00:00:00 | |
| 9A1FER-15 | 2026-09-01 12:46:14 | 45.89198 | 16.89349 | 344° | 18km/h | 29784m | 6.2m/s | -42.4°C | 2.5% | 0hPa | 2.6V | 00:00:00 | 01:42:57 | 08:30:00 | |
| OE5DRO-10 | 2026-09-01 12:46:11 | 45.89182 | 16.89353 | 1° | 15km/h | 29766m | 7.2m/s | -42.3°C | 2.5% | 0hPa | 2.7V | 00:00:00 | 00:00:00 | 00:00:00 | |
| OE3JTB-15 | 2026-09-01 12:46:10 | 45.89178 | 16.89353 | 9° | 15km/h | 29759m | 5.8m/s | -42.3°C | 2.5% | 0hPa | 2.7V | 00:00:00 | 00:00:00 | 00:00:00 | |
| 9A1FER-10 | 2026-09-01 12:46:09 | 45.89173 | 16.89352 | 10° | 16km/h | 29754m | 4.9m/s | -42.4°C | 2.5% | 0hPa | 2.7V | 00:00:00 | 01:42:52 | 00:00:00 | |
| 9A1FER-3 | 2026-09-01 12:46:06 | 45.89162 | 16.89357 | 316° | 16km/h | 29730m | 4.2m/s | -42.4°C | 2.5% | 0hPa | 2.7V | 00:00:00 | 01:42:48 | 00:00:00 | |
| PETON7-10 | 2026-09-01 12:46:04 | 45.89156 | 16.89363 | 340° | 15km/h | 29717m | 7.3m/s | -42.4°C | 2.5% | 0hPa | 2.6V | 00:00:00 | 00:00:00 | 00:00:00 | |
| OE5DXL-15 | 2026-09-01 12:46:03 | 45.89151 | 16.89364 | 350° | 13km/h | 29710m | 6.0m/s | -42.4°C | 2.5% | 0hPa | 2.7V | 00:00:00 | 00:00:00 | 00:00:00 | |
| 9A1FER-15 | 2026-09-01 12:45:59 | 45.89136 | 16.89370 | 335° | 13km/h | 29691m | 7.2m/s | -42.6°C | 2.5% | 0hPa | 2.7V | 00:00:00 | 01:42:42 | 00:00:00 | |
| OM5KV | 2026-09-01 12:45:56 | 45.89126 | 16.89379 | 334° | 13km/h | 29671m | 7.0m/s | -42.6°C | 0.7% | 0hPa | 2.7V | 00:00:00 | 00:00:00 | 00:00:00 | |
| PG1ADW-2 | 2026-09-01 12:45:55 | 45.89123 | 16.89380 | 329° | 11km/h | 29665m | 4.9m/s | -42.6°C | 2.5% | 0hPa | 2.7V | 00:00:00 | 00:00:00 | 00:00:00 | |
| 9A1FER-10 | 2026-09-01 12:45:54 | 45.89121 | 16.89383 | 309° | 13km/h | 29660m | 4.3m/s | -42.6°C | 2.5% | 0hPa | 2.7V | 00:00:00 | 01:42:37 | 08:30:00 | |
| OE5DRO-10 | 2026-09-01 12:45:52 | 45.89119 | 16.89391 | 276° | 13km/h | 29647m | 7.0m/s | -42.8°C | 2.5% | 0hPa | 2.6V | 00:00:00 | 00:00:00 | 00:00:00 | |
| 9A1FER-3 | 2026-09-01 12:45:50 | 45.89119 | 16.89401 | 275° | 11km/h | 29634m | 6.9m/s | -42.7°C | 2.5% | 0hPa | 2.6V | 00:00:00 | 01:42:33 | 00:00:00 | |
| PETON7-10 | 2026-09-01 12:45:48 | 45.89117 | 16.89409 | 308° | 11km/h | 29622m | 5.4m/s | -42.9°C | 2.6% | 0hPa | 2.6V | 00:00:00 | 00:00:00 | 00:00:00 | |
| 9A1FER-15 | 2026-09-01 12:45:44 | 45.89109 | 16.89428 | 292° | 11km/h | 29597m | 4.4m/s | -43.0°C | 2.5% | 0hPa | 2.6V | 00:00:00 | 01:42:27 | 00:00:00 | |
| OM5KV | 2026-09-01 12:45:42 | 45.89108 | 16.89433 | 297° | 16km/h | 29592m | 6.1m/s | -43.1°C | 0.7% | 0hPa | 2.6V | 00:00:00 | 00:00:00 | 00:00:00 | |
| OE3JTB-15 | 2026-09-01 12:45:41 | 45.89104 | 16.89441 | 317° | 9km/h | 29578m | 6.6m/s | -43.0°C | 2.6% | 0hPa | 2.6V | 00:00:00 | 00:00:00 | 00:00:00 | |
| 9A1FER-10 | 2026-09-01 12:45:39 | 45.89102 | 16.89445 | 297° | 9km/h | 29564m | 7.5m/s | -43.2°C | 2.6% | 0hPa | 2.6V | 00:00:00 | 01:42:22 | 00:00:00 | |
| OE8JPQ-2 | 2026-09-01 12:45:36 | 45.89104 | 16.89451 | 204° | 11km/h | 29546m | 7.3m/s | -43.2°C | 2.6% | 0hPa | 2.6V | 00:00:00 | 00:00:00 | 00:00:00 | |
| 9A1FER-3 | 2026-09-01 12:45:35 | 45.89106 | 16.89451 | 174° | 9km/h | 29538m | 7.8m/s | -43.2°C | 2.6% | 0hPa | 2.6V | 00:00:00 | 01:42:18 | 00:00:00 | |
| PETON7-10 | 2026-09-01 12:45:33 | 45.89112 | 16.89450 | 174° | 9km/h | 29524m | 6.5m/s | -43.1°C | 2.6% | 0hPa | 2.6V | 00:00:00 | 01:42:16 | 00:00:00 | |
| OE5DXL-15 | 2026-09-01 12:45:32 | 45.89116 | 16.89450 | 190° | 13km/h | 29517m | 7.6m/s | -43.1°C | 2.6% | 0hPa | 2.6V | 00:00:00 | 00:00:00 | 00:00:00 | |
| 9A1FER-15 | 2026-09-01 12:45:29 | 45.89124 | 16.89453 | 189° | 9km/h | 29497m | 7.8m/s | -43.2°C | 2.6% | 0hPa | 2.7V | 00:00:00 | 01:42:12 | 00:00:00 | |
| 9A1FER-10 | 2026-09-01 12:45:24 | 45.89130 | 16.89458 | 183° | 13km/h | 29464m | 5.9m/s | -43.4°C | 2.6% | 0hPa | 2.6V | 00:00:00 | 01:42:07 | 00:00:00 | |
| OM5KV | 2026-09-01 12:45:23 | 45.89130 | 16.89458 | 184° | 5km/h | 29464m | 6.0m/s | -43.4°C | 0.7% | 0hPa | 2.6V | 00:00:00 | 00:00:00 | 00:00:00 | |
| 9A1FER-3 | 2026-09-01 12:45:20 | 45.89138 | 16.89449 | 145° | 15km/h | 29439m | 6.6m/s | -44.0°C | 2.7% | 0hPa | 2.6V | 00:00:00 | 01:42:03 | 08:30:00 | |
| PETON7-10 | 2026-09-01 12:45:18 | 45.89144 | 16.89445 | 174° | 16km/h | 29427m | 5.4m/s | -44.1°C | 2.7% | 0hPa | 2.7V | 00:00:00 | 00:00:00 | 08:30:00 | |
| PG1ADW-2 | 2026-09-01 12:45:17 | 45.89151 | 16.89442 | 135° | 15km/h | 29409m | 7.4m/s | -44.5°C | 2.8% | 0hPa | 2.6V | 00:00:00 | 00:00:00 | 00:00:00 | |
| LZ4TU-5 | 2026-09-01 12:45:14 | 45.89153 | 16.89439 | 127° | 15km/h | 29402m | 6.0m/s | 0°C | 0% | 0hPa | 2.6V | 00:00:00 | 00:00:00 | 00:00:00 | |
| OM5KV | 2026-09-01 12:45:13 | 45.89155 | 16.89434 | 132° | 18km/h | 29396m | 6.0m/s | -44.7°C | 0.7% | 0hPa | 2.6V | 00:00:00 | 00:00:00 | 00:00:00 | |
| OE3JTB-15 | 2026-09-01 12:45:12 | 45.89158 | 16.89430 | 140° | 15km/h | 29389m | 8.1m/s | -44.6°C | 2.8% | 0hPa | 2.6V | 00:00:00 | 01:41:55 | 00:00:00 | |
| 9A1FER-10 | 2026-09-01 12:45:09 | 45.89170 | 16.89416 | 135° | 15km/h | 29368m | 7.6m/s | -44.5°C | 2.7% | 0hPa | 2.6V | 00:00:00 | 01:41:52 | 00:00:00 | |
| OM5KV | 2026-09-01 12:45:08 | 45.89174 | 16.89411 | 136° | 18km/h | 29362m | 4.8m/s | -44.6°C | 0.8% | 0hPa | 2.7V | 00:00:00 | 00:00:00 | 00:00:00 | |
| OM5KV | 2026-09-01 12:45:07 | 45.89174 | 16.89411 | 136° | 18km/h | 29362m | 4.8m/s | -44.6°C | 0.8% | 0hPa | 2.7V | 00:00:00 | 00:00:00 | 00:00:00 | |
| 9A1FER-3 | 2026-09-01 12:45:05 | 45.89185 | 16.89402 | 173° | 15km/h | 29342m | 6.5m/s | -44.7°C | 2.8% | 0hPa | 2.7V | 00:00:00 | 01:41:48 | 00:00:00 | |
| 9A1FER-15 | 2026-09-01 12:44:59 | 45.89201 | 16.89398 | 177° | 15km/h | 29305m | 7.3m/s | -44.5°C | 2.9% | 0hPa | 2.7V | 00:00:00 | 01:41:42 | 00:00:00 | |
| OM5KV | 2026-09-01 12:44:57 | 45.89205 | 16.89398 | 183° | 16km/h | 29298m | 6.7m/s | -44.5°C | 0.8% | 0hPa | 2.7V | 00:00:00 | 00:00:00 | 00:00:00 | |
| OE8JPQ-2 | 2026-09-01 12:44:56 | 45.89214 | 16.89397 | 168° | 16km/h | 29285m | 7.2m/s | -44.5°C | 2.9% | 0hPa | 2.7V | 00:00:00 | 01:41:39 | 00:00:00 | |
| PG1ADW-2 | 2026-09-01 12:44:55 | 45.89218 | 16.89395 | 154° | 16km/h | 29278m | 7.2m/s | -44.4°C | 2.9% | 0hPa | 2.7V | 00:00:00 | 00:00:00 | 00:00:00 | |
| 9A1FER-10 | 2026-09-01 12:44:54 | 45.89222 | 16.89392 | 150° | 15km/h | 29271m | 5.9m/s | -44.4°C | 2.8% | 0hPa | 2.7V | 00:00:00 | 01:41:37 | 00:00:00 | |
| OM5KV | 2026-09-01 12:44:52 | 45.89230 | 16.89387 | 165° | 15km/h | 29257m | 7.2m/s | -44.4°C | 0.7% | 0hPa | 2.7V | 00:00:00 | 00:00:00 | 00:00:00 | |
| 9A1FER-3 | 2026-09-01 12:44:50 | 45.89236 | 16.89384 | 160° | 16km/h | 29244m | 7.8m/s | -44.3°C | 2.7% | 0hPa | 2.7V | 00:00:00 | 01:41:33 | 00:00:00 | |
| PETON7-10 | 2026-09-01 12:44:48 | 45.89241 | 16.89380 | 154° | 16km/h | 29231m | 5.0m/s | -44.4°C | 2.7% | 0hPa | 2.7V | 00:00:00 | 01:41:31 | 00:00:00 | |
| 9A1FER-15 | 2026-09-01 12:44:44 | 45.89254 | 16.89375 | 150° | 16km/h | 29205m | 7.4m/s | -44.4°C | 2.8% | 0hPa | 2.7V | 00:00:00 | 01:41:27 | 00:00:00 | |
| OE3JTB-15 | 2026-09-01 12:44:43 | 45.89257 | 16.89372 | 132° | 20km/h | 29197m | 7.0m/s | -44.4°C | 2.8% | 0hPa | 2.6V | 00:00:00 | 00:00:00 | 08:30:00 | |
| 9A1FER-10 | 2026-09-01 12:44:39 | 45.89266 | 16.89352 | 122° | 20km/h | 29171m | 5.9m/s | -44.3°C | 2.8% | 0hPa | 2.6V | 00:00:00 | 01:41:22 | 00:00:00 | |
| OM5KV | 2026-09-01 12:44:38 | 45.89266 | 16.89352 | 123° | 18km/h | 29171m | 5.9m/s | -44.3°C | 0.7% | 0hPa | 2.6V | 00:00:00 | 00:00:00 | 00:00:00 | |
| OM5KV | 2026-09-01 12:44:37 | 45.89269 | 16.89345 | 117° | 22km/h | 29164m | 8.2m/s | -44.3°C | 0.7% | 0hPa | 2.6V | 00:00:00 | 00:00:00 | 00:00:00 | |
| OE5DRO-10 | 2026-09-01 12:44:36 | 45.89274 | 16.89330 | 118° | 22km/h | 29151m | 4.6m/s | -44.2°C | 2.7% | 0hPa | 2.6V | 00:00:00 | 00:00:00 | 00:00:00 | |
| 9A1FER-3 | 2026-09-01 12:44:35 | 45.89276 | 16.89324 | 125° | 24km/h | 29145m | 7.2m/s | -44.3°C | 2.7% | 0hPa | 2.6V | 00:00:00 | 01:41:18 | 00:00:00 | |
| PETON7-10 | 2026-09-01 12:44:33 | 45.89282 | 16.89316 | 148° | 22km/h | 29132m | 5.5m/s | -44.3°C | 2.7% | 0hPa | 2.7V | 00:00:00 | 00:00:00 | 00:00:00 | |
| OE5DXL-15 | 2026-09-01 12:44:32 | 45.89285 | 16.89314 | 147° | 24km/h | 29126m | 5.7m/s | -44.3°C | 2.7% | 0hPa | 2.6V | 00:00:00 | 00:00:00 | 00:00:00 | |
| OM5KV | 2026-09-01 12:44:31 | 45.89285 | 16.89314 | 147° | 13km/h | 29126m | 5.8m/s | -44.3°C | 0.7% | 0hPa | 2.6V | 00:00:00 | 00:00:00 | 00:00:00 | |
| 9A1FER-15 | 2026-09-01 12:44:29 | 45.89291 | 16.89299 | 109° | 24km/h | 29107m | 5.0m/s | -44.6°C | 2.8% | 0hPa | 2.6V | 00:00:00 | 01:41:12 | 00:00:00 | |
| OM5KV | 2026-09-01 12:44:26 | 45.89295 | 16.89283 | 107° | 24km/h | 29094m | 7.0m/s | -44.9°C | 0.7% | 0hPa | 2.6V | 00:00:00 | 00:00:00 | 00:00:00 | |
| OM5KV | 2026-09-01 12:44:25 | 45.89296 | 16.89275 | 101° | 24km/h | 29088m | 5.7m/s | -44.9°C | 0.8% | 0hPa | 2.6V | 00:00:00 | 00:00:00 | 00:00:00 | |
| 9A1FER-10 | 2026-09-01 12:44:24 | 45.89297 | 16.89255 | 90° | 24km/h | 29075m | 8.4m/s | -45.0°C | 2.8% | 0hPa | 2.6V | 00:00:00 | 01:41:07 | 00:00:00 | |
| OM5KV | 2026-09-01 12:44:20 | 45.89296 | 16.89222 | 90° | 27km/h | 29055m | 7.8m/s | -45.0°C | 0.8% | 0hPa | 2.7V | 00:00:00 | 00:00:00 | 00:00:00 | |
| 9A1FER-3 | 2026-09-01 12:44:19 | 45.89297 | 16.89206 | 96° | 24km/h | 29042m | 5.2m/s | -44.9°C | 2.8% | 0hPa | 2.7V | 00:00:00 | 01:41:02 | 00:00:00 | |
| PETON7-10 | 2026-09-01 12:44:18 | 45.89297 | 16.89199 | 92° | 24km/h | 29036m | 7.7m/s | -44.9°C | 2.8% | 0hPa | 2.7V | 00:00:00 | 00:00:00 | 00:00:00 | |
| OE5DRO-10 | 2026-09-01 12:44:17 | 45.89297 | 16.89192 | 87° | 24km/h | 29028m | 6.6m/s | -45.0°C | 2.8% | 0hPa | 2.7V | 00:00:00 | 00:00:00 | 00:00:00 | |
| OE3JTB-15 | 2026-09-01 12:44:15 | 45.89295 | 16.89172 | 84° | 26km/h | 29008m | 7.2m/s | -45.2°C | 2.9% | 0hPa | 2.7V | 00:00:00 | 00:00:00 | 00:00:00 | |
| 9A1FER-15 | 2026-09-01 12:44:14 | 45.89295 | 16.89172 | 84° | 26km/h | 29008m | 7.2m/s | -45.2°C | 2.9% | 0hPa | 2.7V | 00:00:00 | 01:40:57 | 00:00:00 | |
| OE8JPQ-2 | 2026-09-01 12:44:12 | 45.89295 | 16.89159 | 94° | 27km/h | 28996m | 6.1m/s | -45.1°C | 2.9% | 0hPa | 2.7V | 00:00:00 | 00:00:00 | 00:00:00 | |
| OM5KV | 2026-09-01 12:44:10 | 45.89295 | 16.89150 | 97° | 26km/h | 28989m | 8.0m/s | -45.2°C | 0.8% | 0hPa | 2.7V | 00:00:00 | 00:00:00 | 00:00:00 | |
| 9A1FER-10 | 2026-09-01 12:44:09 | 45.89298 | 16.89129 | 104° | 26km/h | 28975m | 6.8m/s | -44.9°C | 2.9% | 0hPa | 2.7V | 00:00:00 | 01:40:52 | 00:00:00 | |
| 9A1FER-3 | 2026-09-01 12:44:04 | 45.89310 | 16.89081 | 117° | 26km/h | 28944m | 5.2m/s | -44.8°C | 2.9% | 0hPa | 2.7V | 00:00:00 | 01:40:47 | 00:00:00 | |
| PETON7-10 | 2026-09-01 12:44:03 | 45.89314 | 16.89074 | 126° | 26km/h | 28938m | 6.4m/s | -44.8°C | 2.9% | 0hPa | 2.7V | 00:00:00 | 01:40:46 | 00:00:00 | |
| OE5DXL-15 | 2026-09-01 12:44:02 | 45.89318 | 16.89068 | 140° | 22km/h | 28931m | 7.5m/s | -44.8°C | 2.9% | 0hPa | 2.7V | 00:00:00 | 00:00:00 | 08:30:00 | |
| OM5KV | 2026-09-01 12:44:00 | 45.89322 | 16.89062 | 148° | 24km/h | 28924m | 6.4m/s | -44.8°C | 0% | 0hPa | 2.6V | 00:00:00 | 00:00:00 | 00:00:00 | |
| 9A1FER-15 | 2026-09-01 12:43:59 | 45.89332 | 16.89052 | 137° | 24km/h | 28910m | 7.2m/s | -44.8°C | 2.9% | 0hPa | 2.6V | 00:00:00 | 01:40:42 | 08:30:00 | |
| OE5DRO-10 | 2026-09-01 12:43:58 | 45.89337 | 16.89045 | 128° | 22km/h | 28904m | 5.0m/s | -44.8°C | 2.8% | 0hPa | 2.6V | 00:00:00 | 00:00:00 | 00:00:00 | |
| 9A1FER-10 | 2026-09-01 12:43:54 | 45.89350 | 16.89013 | 113° | 24km/h | 28880m | 5.3m/s | -44.7°C | 2.8% | 0hPa | 2.6V | 00:00:00 | 01:40:37 | 00:00:00 | |
| OE8JPQ-2 | 2026-09-01 12:43:52 | 45.89355 | 16.88993 | 104° | 22km/h | 28866m | 6.3m/s | -44.7°C | 2.8% | 0hPa | 2.6V | 00:00:00 | 01:40:35 | 00:00:00 | |
| 9A1FER-3 | 2026-09-01 12:43:49 | 45.89360 | 16.88965 | 112° | 20km/h | 28847m | 6.8m/s | -44.8°C | 2.9% | 0hPa | 2.6V | 00:00:00 | 01:40:32 | 00:00:00 | |
| PETON7-10 | 2026-09-01 12:43:48 | 45.89362 | 16.88960 | 118° | 20km/h | 28840m | 6.2m/s | -44.8°C | 2.9% | 0hPa | 2.6V | 00:00:00 | 00:00:00 | 00:00:00 | |
| OE3JTB-15 | 2026-09-01 12:43:45 | 45.89366 | 16.88942 | 100° | 18km/h | 28820m | 5.6m/s | -44.9°C | 2.9% | 0hPa | 2.7V | 00:00:00 | 01:40:28 | 00:00:00 | |
| 9A1FER-15 | 2026-09-01 12:43:44 | 45.89367 | 16.88936 | 97° | 20km/h | 28815m | 5.7m/s | -45.0°C | 2.8% | 0hPa | 2.7V | 00:00:00 | 01:40:27 | 00:00:00 | |
| OM5KV | 2026-09-01 12:43:42 | 45.89367 | 16.88930 | 100° | 16km/h | 28808m | 7.3m/s | -45.1°C | 0.8% | 0hPa | 2.7V | 00:00:00 | 00:00:00 | 00:00:00 | |
| 9A1FER-10 | 2026-09-01 12:43:39 | 45.89370 | 16.88899 | 91° | 18km/h | 28781m | 4.8m/s | -45.3°C | 2.9% | 0hPa | 2.7V | 00:00:00 | 01:40:22 | 08:30:00 | |
| OM5KV | 2026-09-01 12:43:37 | 45.89369 | 16.88890 | 89° | 26km/h | 28776m | 6.1m/s | -45.3°C | 0.8% | 0hPa | 2.6V | 00:00:00 | 00:00:00 | 00:00:00 | |
| PG1ADW-2 | 2026-09-01 12:43:35 | 45.89367 | 16.88868 | 70° | 16km/h | 28755m | 6.9m/s | -44.9°C | 2.9% | 0hPa | 2.6V | 00:00:00 | 00:00:00 | 00:00:00 | |
| 9A1FER-3 | 2026-09-01 12:43:34 | 45.89365 | 16.88862 | 65° | 16km/h | 28748m | 7.4m/s | -44.9°C | 2.9% | 0hPa | 2.6V | 00:00:00 | 01:40:17 | 00:00:00 | |
| PETON7-10 | 2026-09-01 12:43:33 | 45.89363 | 16.88855 | 59° | 16km/h | 28741m | 6.1m/s | -44.8°C | 2.9% | 0hPa | 2.6V | 00:00:00 | 00:00:00 | 00:00:00 | |
| OE5DXL-15 | 2026-09-01 12:43:32 | 45.89360 | 16.88850 | 52° | 15km/h | 28734m | 7.7m/s | -44.9°C | 2.9% | 0hPa | 2.6V | 00:00:00 | 00:00:00 | 00:00:00 | |
| 9A1FER-15 | 2026-09-01 12:43:29 | 45.89354 | 16.88838 | 61° | 16km/h | 28714m | 7.7m/s | -44.9°C | 2.9% | 0hPa | 2.6V | 00:00:00 | 01:40:12 | 00:00:00 | |
| OM5KV | 2026-09-01 12:43:27 | 45.89352 | 16.88833 | 74° | 18km/h | 28707m | 6.4m/s | 0°C | 0% | 0hPa | 2.6V | 00:00:00 | 00:00:00 | 00:00:00 | |
| OM5KV | 2026-09-01 12:43:25 | 45.89351 | 16.88820 | 96° | 18km/h | 28695m | 6.8m/s | -45.1°C | 0.7% | 0hPa | 2.6V | 00:00:00 | 00:00:00 | 00:00:00 | |
| 9A1FER-10 | 2026-09-01 12:43:22 | 45.89358 | 16.88798 | 118° | 15km/h | 28668m | 7.8m/s | -45.2°C | 2.8% | 0hPa | 2.6V | 00:00:00 | 01:40:05 | 00:00:00 | |
| OM5KV | 2026-09-01 12:43:21 | 45.89358 | 16.88798 | 118° | 18km/h | 28668m | 7.9m/s | 0°C | 0% | 0hPa | 2.6V | 00:00:00 | 00:00:00 | 00:00:00 | |
| OE5DRO-10 | 2026-09-01 12:43:20 | 45.89362 | 16.88785 | 105° | 15km/h | 28654m | 5.7m/s | -45.1°C | 2.8% | 0hPa | 2.6V | 00:00:00 | 00:00:00 | 00:00:00 | |
| 9A1FER-3 | 2026-09-01 12:43:19 | 45.89363 | 16.88779 | 110° | 13km/h | 28648m | 7.4m/s | -45.0°C | 2.8% | 0hPa | 2.6V | 00:00:00 | 01:40:02 | 00:00:00 | |
| PETON7-10 | 2026-09-01 12:43:18 | 45.89364 | 16.88773 | 116° | 13km/h | 28640m | 6.9m/s | -45.1°C | 2.8% | 0hPa | 2.6V | 00:00:00 | 01:40:01 | 00:00:00 | |
| OE3JTB-15 | 2026-09-01 12:43:16 | 45.89367 | 16.88766 | 103° | 9km/h | 28627m | 7.6m/s | -45.3°C | 2.8% | 0hPa | 2.6V | 00:00:00 | 00:00:00 | 00:00:00 | |
| PG1ADW-2 | 2026-09-01 12:43:15 | 45.89367 | 16.88762 | 91° | 9km/h | 28619m | 6.8m/s | -45.3°C | 2.8% | 0hPa | 2.6V | 00:00:00 | 00:00:00 | 00:00:00 | |
| 9A1FER-15 | 2026-09-01 12:43:14 | 45.89367 | 16.88758 | 92° | 11km/h | 28613m | 5.4m/s | -45.3°C | 2.9% | 0hPa | 2.6V | 00:00:00 | 01:39:57 | 00:00:00 | |
| OM5KV | 2026-09-01 12:43:13 | 45.89367 | 16.88758 | 93° | 11km/h | 28613m | 5.5m/s | 0°C | 0% | 0hPa | 2.7V | 00:00:00 | 00:00:00 | 00:00:00 | |
| OE8JPQ-2 | 2026-09-01 12:43:12 | 45.89369 | 16.88751 | 137° | 9km/h | 28600m | 7.1m/s | 0°C | 0% | 0hPa | 2.7V | 00:00:00 | 00:00:00 | 00:00:00 | |
| OM5KV | 2026-09-01 12:43:10 | 45.89374 | 16.88745 | 137° | 16km/h | 28587m | 7.0m/s | -45.5°C | 0.8% | 0hPa | 2.7V | 00:00:00 | 00:00:00 | 00:00:00 | |
| 9A1FER-10 | 2026-09-01 12:43:07 | 45.89381 | 16.88729 | 119° | 5km/h | 28566m | 6.5m/s | -45.4°C | 2.9% | 0hPa | 2.7V | 00:00:00 | 01:39:50 | 00:00:00 | |
| OM5KV | 2026-09-01 12:43:04 | 45.89386 | 16.88718 | 100° | 7km/h | 28548m | 5.7m/s | -45.6°C | 0.8% | 0hPa | 2.7V | 00:00:00 | 00:00:00 | 00:00:00 | |
| PETON7-10 | 2026-09-01 12:43:03 | 45.89385 | 16.88716 | 69° | 5km/h | 28541m | 7.5m/s | -45.4°C | 2.9% | 0hPa | 2.7V | 00:00:00 | 00:00:00 | 08:30:00 | |
| OE5DXL-15 | 2026-09-01 12:43:02 | 45.89384 | 16.88713 | 54° | 5km/h | 28534m | 6.0m/s | -45.4°C | 2.9% | 0hPa | 2.6V | 00:00:00 | 00:00:00 | 00:00:00 | |
| 9A1FER-15 | 2026-09-01 12:42:59 | 45.89381 | 16.88707 | 22° | 4km/h | 28514m | 7.0m/s | -45.4°C | 2.8% | 0hPa | 2.6V | 00:00:00 | 01:39:42 | 00:00:00 | |
| OM5KV | 2026-09-01 12:42:57 | 45.89380 | 16.88708 | 0° | 0km/h | 28508m | 6.0m/s | -45.5°C | 0.8% | 0hPa | 2.6V | 00:00:00 | 00:00:00 | 00:00:00 | |
| OE5DRO-10 | 2026-09-01 12:42:56 | 45.89380 | 16.88708 | 27° | 2km/h | 28494m | 6.3m/s | -45.7°C | 2.9% | 0hPa | 2.6V | 00:00:00 | 00:00:00 | 00:00:00 | |
| PG1ADW-2 | 2026-09-01 12:42:55 | 45.89380 | 16.88708 | 239° | 5km/h | 28488m | 5.0m/s | -45.7°C | 2.9% | 0hPa | 2.6V | 00:00:00 | 01:39:38 | 00:00:00 | |
| OE8JPQ-2 | 2026-09-01 12:42:52 | 45.89383 | 16.88712 | 224° | 5km/h | 28467m | 5.8m/s | 0°C | 0% | 0hPa | 2.6V | 00:00:00 | 01:39:35 | 00:00:00 | |
| OM5KV | 2026-09-01 12:42:50 | 45.89384 | 16.88714 | 221° | 5km/h | 28460m | 8.0m/s | -45.8°C | 0.8% | 0hPa | 2.6V | 00:00:00 | 00:00:00 | 00:00:00 | |
| 9A1FER-10 | 2026-09-01 12:42:49 | 45.89386 | 16.88716 | 216° | 5km/h | 28447m | 6.1m/s | -46.0°C | 3.0% | 0hPa | 2.6V | 00:00:00 | 01:39:32 | 00:00:00 | |
| PETON7-10 | 2026-09-01 12:42:48 | 45.89387 | 16.88717 | 232° | 5km/h | 28440m | 8.2m/s | -46.0°C | 3.1% | 0hPa | 2.7V | 00:00:00 | 00:00:00 | 00:00:00 | |
| OE3JTB-15 | 2026-09-01 12:42:47 | 45.89388 | 16.88720 | 246° | 9km/h | 28427m | 5.9m/s | -45.9°C | 3.1% | 0hPa | 2.7V | 00:00:00 | 00:00:00 | 00:00:00 | |
| 9A1FER-15 | 2026-09-01 12:42:44 | 45.89389 | 16.88723 | 244° | 7km/h | 28413m | 6.2m/s | -45.9°C | 3.0% | 0hPa | 2.7V | 00:00:00 | 01:39:27 | 00:00:00 | |
| OM5KV | 2026-09-01 12:42:43 | 45.89389 | 16.88723 | 245° | 4km/h | 28413m | 6.2m/s | -46.0°C | 0.8% | 0hPa | 2.7V | 00:00:00 | 00:00:00 | 00:00:00 | |
| PG1ADW-2 | 2026-09-01 12:42:35 | 45.89400 | 16.88733 | 336° | 9km/h | 28357m | 7.0m/s | -46.0°C | 3.0% | 0hPa | 2.7V | 00:00:00 | 00:00:00 | 00:00:00 | |
| 9A1FER-10 | 2026-09-01 12:42:34 | 45.89399 | 16.88734 | 301° | 9km/h | 28350m | 7.0m/s | -45.9°C | 3.0% | 0hPa | 2.7V | 00:00:00 | 01:39:17 | 00:00:00 | |
| OE5DRO-10 | 2026-09-01 12:42:33 | 45.89398 | 16.88736 | 287° | 11km/h | 28344m | 5.6m/s | -45.9°C | 3.0% | 0hPa | 2.7V | 00:00:00 | 00:00:00 | 00:00:00 | |
| OE5DXL-15 | 2026-09-01 12:42:32 | 45.89398 | 16.88739 | 276° | 11km/h | 28338m | 6.0m/s | -45.7°C | 3.0% | 0hPa | 2.7V | 00:00:00 | 00:00:00 | 00:00:00 | |
| OE8JPQ-2 | 2026-09-01 12:42:31 | 45.89398 | 16.88740 | 242° | 13km/h | 28331m | 7.5m/s | 0°C | 0% | 0hPa | 2.6V | 00:00:00 | 00:00:00 | 00:00:00 | |
| 9A1FER-15 | 2026-09-01 12:42:29 | 45.89401 | 16.88740 | 174° | 11km/h | 28318m | 6.8m/s | -45.6°C | 2.9% | 0hPa | 2.6V | 00:00:00 | 01:39:12 | 00:00:00 | |
| LZ4TU-5 | 2026-09-01 12:42:28 | 45.89401 | 16.88740 | 174° | 13km/h | 28318m | 6.9m/s | 0°C | 0% | 0hPa | 2.7V | 00:00:00 | 00:00:00 | 00:00:00 | |
| OM5KV | 2026-09-01 12:42:26 | 45.89411 | 16.88739 | 176° | 22km/h | 28304m | 5.9m/s | -45.6°C | 0.8% | 0hPa | 2.7V | 00:00:00 | 00:00:00 | 00:00:00 | |
| LZ4TU-5 | 2026-09-01 12:42:24 | 45.89421 | 16.88736 | 161° | 16km/h | 28291m | 6.9m/s | 0°C | 0% | 0hPa | 2.7V | 00:00:00 | 00:00:00 | 00:00:00 | |
| 9A1FER-10 | 2026-09-01 12:42:19 | 45.89428 | 16.88732 | 52° | 13km/h | 28251m | 8.0m/s | -46.1°C | 3.0% | 0hPa | 2.7V | 00:00:00 | 01:39:02 | 00:00:00 | |
| PETON7-10 | 2026-09-01 12:42:18 | 45.89427 | 16.88730 | 66° | 13km/h | 28244m | 5.1m/s | -46.1°C | 3.0% | 0hPa | 2.7V | 00:00:00 | 00:00:00 | 00:00:00 | |
| OM5KV | 2026-09-01 12:42:16 | 45.89426 | 16.88727 | 83° | 9km/h | 28240m | 4.3m/s | -46.1°C | 0% | 0hPa | 2.6V | 00:00:00 | 00:00:00 | 00:00:00 | |
| PG1ADW-2 | 2026-09-01 12:42:15 | 45.89428 | 16.88721 | 141° | 11km/h | 28227m | 7.4m/s | -45.9°C | 3.0% | 0hPa | 2.6V | 00:00:00 | 00:00:00 | 00:00:00 | |
| 9A1FER-15 | 2026-09-01 12:42:14 | 45.89431 | 16.88718 | 150° | 11km/h | 28220m | 5.9m/s | -45.9°C | 2.9% | 0hPa | 2.7V | 00:00:00 | 01:38:57 | 00:00:00 | |
| OE5DRO-10 | 2026-09-01 12:42:13 | 45.89435 | 16.88714 | 147° | 11km/h | 28214m | 6.9m/s | -45.9°C | 2.9% | 0hPa | 2.7V | 00:00:00 | 00:00:00 | 08:30:00 | |
| OE8JPQ-2 | 2026-09-01 12:42:11 | 45.89444 | 16.88704 | 138° | 11km/h | 28200m | 5.8m/s | 0°C | 0% | 0hPa | 2.6V | 00:00:00 | 00:00:00 | 00:00:00 | |
| OM5KV | 2026-09-01 12:42:10 | 45.89444 | 16.88704 | 138° | 22km/h | 28200m | 5.8m/s | -46.0°C | 0% | 0hPa | 2.6V | 00:00:00 | 00:00:00 | 00:00:00 | |
| 9A1FER-10 | 2026-09-01 12:42:04 | 45.89450 | 16.88691 | 357° | 7km/h | 28153m | 7.4m/s | -46.0°C | 2.9% | 0hPa | 2.6V | 00:00:00 | 01:38:47 | 00:00:00 | |
| PETON7-10 | 2026-09-01 12:42:03 | 45.89449 | 16.88691 | 318° | 7km/h | 28146m | 6.9m/s | -46.0°C | 3.0% | 0hPa | 2.6V | 00:00:00 | 00:00:00 | 00:00:00 | |
| OE5DXL-15 | 2026-09-01 12:42:02 | 45.89449 | 16.88692 | 174° | 11km/h | 28140m | 4.5m/s | -46.0°C | 2.9% | 0hPa | 2.6V | 00:00:00 | 00:00:00 | 00:00:00 | |
| 9A1FER-15 | 2026-09-01 12:41:59 | 45.89452 | 16.88684 | 119° | 9km/h | 28121m | 6.3m/s | -46.4°C | 3.0% | 0hPa | 2.6V | 00:00:00 | 01:38:42 | 00:00:00 | |
| OM5KV | 2026-09-01 12:41:58 | 45.89452 | 16.88684 | 120° | 15km/h | 28121m | 6.4m/s | 0°C | 0% | 0hPa | 2.6V | 00:00:00 | 00:00:00 | 00:00:00 | |
| 9A1FER-3 | 2026-09-01 12:41:56 | 45.89458 | 16.88672 | 120° | 9km/h | 28101m | 5.5m/s | -46.5°C | 3.1% | 0hPa | 2.6V | 00:00:00 | 01:38:39 | 00:00:00 | |
| PG1ADW-2 | 2026-09-01 12:41:55 | 45.89458 | 16.88669 | 96° | 11km/h | 28096m | 6.1m/s | -46.5°C | 3.1% | 0hPa | 2.6V | 00:00:00 | 00:00:00 | 00:00:00 | |
| OE5DRO-10 | 2026-09-01 12:41:50 | 45.89454 | 16.88661 | 279° | 11km/h | 28065m | 6.6m/s | -46.3°C | 3.1% | 0hPa | 2.6V | 00:00:00 | 00:00:00 | 00:00:00 | |
| 9A1FER-10 | 2026-09-01 12:41:49 | 45.89454 | 16.88663 | 261° | 13km/h | 28058m | 6.2m/s | -46.4°C | 3.0% | 0hPa | 2.6V | 00:00:00 | 01:38:32 | 00:00:00 | |
| PETON7-10 | 2026-09-01 12:41:48 | 45.89454 | 16.88665 | 256° | 13km/h | 28051m | 7.6m/s | -46.5°C | 3.0% | 0hPa | 2.6V | 00:00:00 | 01:38:31 | 00:00:00 | |
| OM5KV | 2026-09-01 12:41:47 | 45.89454 | 16.88664 | 257° | 4km/h | 28051m | 7.7m/s | 0°C | 0% | 0hPa | 2.6V | 00:00:00 | 00:00:00 | 00:00:00 | |
| OE8JPQ-2 | 2026-09-01 12:41:45 | 45.89459 | 16.88664 | 163° | 16km/h | 28032m | 8.2m/s | 0°C | 0% | 0hPa | 2.6V | 00:00:00 | 01:38:28 | 00:00:00 | |
| 9A1FER-15 | 2026-09-01 12:41:44 | 45.89462 | 16.88662 | 163° | 13km/h | 28024m | 7.0m/s | -46.2°C | 3.0% | 0hPa | 2.6V | 00:00:00 | 01:38:27 | 08:30:00 | |
| OM5KV | 2026-09-01 12:41:42 | 45.89468 | 16.88659 | 159° | 24km/h | 28018m | 5.1m/s | 0°C | 0% | 0hPa | 2.7V | 00:00:00 | 00:00:00 | 00:00:00 | |
| 9A1FER-3 | 2026-09-01 12:41:41 | 45.89478 | 16.88651 | 142° | 13km/h | 28006m | 7.2m/s | -46.3°C | 3.0% | 0hPa | 2.7V | 00:00:00 | 01:38:24 | 00:00:00 | |
| PG1ADW-2 | 2026-09-01 12:41:35 | 45.89492 | 16.88633 | 184° | 15km/h | 27965m | 7.9m/s | -46.4°C | 3.1% | 0hPa | 2.6V | 00:00:00 | 01:38:18 | 00:00:00 | |
| 9A1FER-10 | 2026-09-01 12:41:34 | 45.89493 | 16.88633 | 199° | 11km/h | 27958m | 6.7m/s | -46.3°C | 3.0% | 0hPa | 2.6V | 00:00:00 | 01:38:17 | 00:00:00 | |
| PETON7-10 | 2026-09-01 12:41:33 | 45.89494 | 16.88634 | 200° | 16km/h | 27952m | 5.1m/s | -46.3°C | 3.1% | 0hPa | 2.6V | 00:00:00 | 00:00:00 | 00:00:00 | |
| OE5DXL-15 | 2026-09-01 12:41:32 | 45.89496 | 16.88634 | 197° | 16km/h | 27946m | 7.8m/s | -46.4°C | 3.1% | 0hPa | 2.6V | 00:00:00 | 00:00:00 | 00:00:00 | |
| 9A1FER-15 | 2026-09-01 12:41:29 | 45.89504 | 16.88633 | 151° | 16km/h | 27926m | 7.9m/s | -46.3°C | 3.1% | 0hPa | 2.6V | 00:00:00 | 01:38:12 | 00:00:00 | |
| 9A1FER-3 | 2026-09-01 12:41:26 | 45.89514 | 16.88619 | 135° | 15km/h | 27905m | 8.1m/s | -46.2°C | 3.1% | 0hPa | 2.6V | 00:00:00 | 01:38:09 | 00:00:00 | |
| 9A1FER-10 | 2026-09-01 12:41:19 | 45.89539 | 16.88585 | 158° | 15km/h | 27858m | 5.3m/s | -46.3°C | 3.0% | 0hPa | 2.6V | 00:00:00 | 01:38:02 | 08:30:00 | |
| PETON7-10 | 2026-09-01 12:41:18 | 45.89542 | 16.88583 | 157° | 15km/h | 27852m | 5.9m/s | -46.3°C | 3.0% | 0hPa | 2.7V | 00:00:00 | 00:00:00 | 00:00:00 | |
| PG1ADW-2 | 2026-09-01 12:41:15 | 45.89548 | 16.88575 | 121° | 16km/h | 27832m | 7.6m/s | -46.1°C | 3.0% | 0hPa | 2.7V | 00:00:00 | 00:00:00 | 08:30:00 | |
| 9A1FER-15 | 2026-09-01 12:41:14 | 45.89550 | 16.88570 | 123° | 16km/h | 27824m | 7.0m/s | -46.1°C | 2.9% | 0hPa | 2.7V | 00:00:00 | 01:37:57 | 00:00:00 | |
| 9A1FER-3 | 2026-09-01 12:41:07 | 45.89562 | 16.88531 | 137° | 16km/h | 27779m | 5.2m/s | -46.1°C | 2.9% | 0hPa | 2.7V | 00:00:00 | 01:37:50 | 00:00:00 | |
| 9A1FER-10 | 2026-09-01 12:41:04 | 45.89567 | 16.88520 | 101° | 15km/h | 27760m | 6.2m/s | -46.3°C | 3.0% | 0hPa | 2.7V | 00:00:00 | 01:37:47 | 00:00:00 | |
| PETON7-10 | 2026-09-01 12:41:03 | 45.89568 | 16.88515 | 97° | 15km/h | 27753m | 6.5m/s | -46.3°C | 3.0% | 0hPa | 2.7V | 00:00:00 | 01:37:46 | 00:00:00 | |
| OE5DXL-15 | 2026-09-01 12:41:02 | 45.89568 | 16.88509 | 101° | 13km/h | 27746m | 8.1m/s | -46.5°C | 3.1% | 0hPa | 2.7V | 00:00:00 | 00:00:00 | 00:00:00 | |
| 9A1FER-15 | 2026-09-01 12:40:59 | 45.89571 | 16.88485 | 89° | 15km/h | 27727m | 7.8m/s | -46.6°C | 3.0% | 0hPa | 2.6V | 00:00:00 | 01:37:42 | 00:00:00 | |
| PG1ADW-2 | 2026-09-01 12:40:55 | 45.89568 | 16.88459 | 83° | 11km/h | 27699m | 5.8m/s | -46.8°C | 3.0% | 0hPa | 2.6V | 00:00:00 | 00:00:00 | 00:00:00 | |
| 9A1FER-3 | 2026-09-01 12:40:52 | 45.89564 | 16.88455 | 356° | 15km/h | 27679m | 6.6m/s | -46.7°C | 3.0% | 0hPa | 2.6V | 00:00:00 | 01:37:35 | 00:00:00 | |
| 9A1FER-10 | 2026-09-01 12:40:49 | 45.89561 | 16.88453 | 68° | 13km/h | 27659m | 4.2m/s | -46.8°C | 3.1% | 0hPa | 2.6V | 00:00:00 | 01:37:32 | 00:00:00 | |
| PETON7-10 | 2026-09-01 12:40:48 | 45.89560 | 16.88449 | 65° | 13km/h | 27654m | 6.5m/s | -46.7°C | 3.0% | 0hPa | 2.6V | 00:00:00 | 00:00:00 | 08:30:00 | |
| OE3JTB-15 | 2026-09-01 12:40:47 | 45.89550 | 16.88418 | 73° | 15km/h | 27627m | 6.9m/s | -46.9°C | 3.1% | 0hPa | 2.7V | 00:00:00 | 01:37:27 | 00:00:00 | |
| 9A1FER-15 | 2026-09-01 12:40:44 | 45.89550 | 16.88418 | 73° | 13km/h | 27627m | 6.9m/s | -46.9°C | 3.1% | 0hPa | 2.7V | 00:00:00 | 01:37:27 | 00:00:00 | |
| 9A1FER-3 | 2026-09-01 12:40:37 | 45.89540 | 16.88395 | 158° | 11km/h | 27579m | 4.9m/s | -46.9°C | 3.1% | 0hPa | 2.7V | 00:00:00 | 01:37:20 | 00:00:00 | |
| PG1ADW-2 | 2026-09-01 12:40:35 | 45.89539 | 16.88394 | 51° | 13km/h | 27568m | 7.4m/s | -47.1°C | 3.1% | 0hPa | 2.7V | 00:00:00 | 00:00:00 | 00:00:00 | |
| 9A1FER-10 | 2026-09-01 12:40:34 | 45.89538 | 16.88391 | 59° | 13km/h | 27561m | 5.9m/s | -47.1°C | 3.2% | 0hPa | 2.7V | 00:00:00 | 01:37:17 | 00:00:00 | |
| PETON7-10 | 2026-09-01 12:40:33 | 45.89537 | 16.88387 | 71° | 13km/h | 27555m | 6.2m/s | -47.0°C | 3.2% | 0hPa | 2.7V | 00:00:00 | 00:00:00 | 00:00:00 | |
| OE5DXL-15 | 2026-09-01 12:40:32 | 45.89536 | 16.88382 | 82° | 15km/h | 27548m | 8.1m/s | -46.9°C | 3.2% | 0hPa | 2.7V | 00:00:00 | 00:00:00 | 00:00:00 | |
| 9A1FER-15 | 2026-09-01 12:40:29 | 45.89534 | 16.88360 | 72° | 13km/h | 27527m | 7.0m/s | -46.9°C | 3.1% | 0hPa | 2.7V | 00:00:00 | 01:37:12 | 00:00:00 | |
| 9A1FER-3 | 2026-09-01 12:40:22 | 45.89523 | 16.88342 | 21° | 15km/h | 27483m | 7.1m/s | -47.2°C | 3.2% | 0hPa | 2.7V | 00:00:00 | 01:37:05 | 00:00:00 | |
| 9A1FER-10 | 2026-09-01 12:40:19 | 45.89516 | 16.88332 | 60° | 15km/h | 27465m | 7.2m/s | -47.2°C | 3.1% | 0hPa | 2.7V | 00:00:00 | 01:37:02 | 00:00:00 | |
| PETON7-10 | 2026-09-01 12:40:18 | 45.89514 | 16.88327 | 71° | 15km/h | 27458m | 6.1m/s | -47.2°C | 3.1% | 0hPa | 2.7V | 00:00:00 | 01:37:01 | 00:00:00 | |
| PG1ADW-2 | 2026-09-01 12:40:15 | 45.89509 | 16.88309 | 60° | 15km/h | 27438m | 6.4m/s | -47.5°C | 3.2% | 0hPa | 2.7V | 00:00:00 | 01:36:58 | 00:00:00 | |
| 9A1FER-15 | 2026-09-01 12:40:14 | 45.89507 | 16.88304 | 60° | 13km/h | 27432m | 5.5m/s | -47.4°C | 3.2% | 0hPa | 2.7V | 00:00:00 | 01:36:57 | 00:00:00 | |
| LZ4TU-5 | 2026-09-01 12:40:13 | 45.89506 | 16.88304 | 60° | 16km/h | 27432m | 5.6m/s | 0°C | 0% | 0hPa | 2.6V | 00:00:00 | 00:00:00 | 00:00:00 | |
| LZ4TU-5 | 2026-09-01 12:40:08 | 45.89499 | 16.88282 | 45° | 15km/h | 27400m | 6.9m/s | 0°C | 0% | 0hPa | 2.6V | 00:00:00 | 00:00:00 | 00:00:00 | |
| 9A1FER-3 | 2026-09-01 12:40:07 | 45.89493 | 16.88275 | 40° | 13km/h | 27389m | 5.6m/s | -47.1°C | 3.2% | 0hPa | 2.6V | 00:00:00 | 01:36:50 | 08:30:00 | |
| PETON7-10 | 2026-09-01 12:40:03 | 45.89488 | 16.88261 | 67° | 15km/h | 27363m | 7.5m/s | -47.2°C | 3.1% | 0hPa | 2.7V | 00:00:00 | 00:00:00 | 00:00:00 | |
| OE5DXL-15 | 2026-09-01 12:40:02 | 45.89486 | 16.88256 | 61° | 16km/h | 27356m | 5.4m/s | -47.3°C | 3.1% | 0hPa | 2.6V | 00:00:00 | 00:00:00 | 00:00:00 | |
| OE5DRO-10 | 2026-09-01 12:40:00 | 45.89482 | 16.88248 | 55° | 16km/h | 27344m | 8.1m/s | -47.3°C | 3.1% | 0hPa | 2.6V | 00:00:00 | 00:00:00 | 00:00:00 | |
| 9A1FER-15 | 2026-09-01 12:39:59 | 45.89481 | 16.88245 | 49° | 16km/h | 27337m | 5.9m/s | -47.3°C | 3.1% | 0hPa | 2.7V | 00:00:00 | 01:36:42 | 00:00:00 | |
| PG1ADW-2 | 2026-09-01 12:39:55 | 45.89469 | 16.88231 | 32° | 16km/h | 27311m | 6.3m/s | -47.4°C | 3.2% | 0hPa | 2.7V | 00:00:00 | 00:00:00 | 00:00:00 | |
| 9A1FER-3 | 2026-09-01 12:39:52 | 45.89459 | 16.88223 | 34° | 16km/h | 27290m | 7.1m/s | -47.4°C | 3.2% | 0hPa | 2.7V | 00:00:00 | 01:36:35 | 00:00:00 | |
| PETON7-10 | 2026-09-01 12:39:48 | 45.89444 | 16.88205 | 40° | 16km/h | 27264m | 7.8m/s | -47.4°C | 3.2% | 0hPa | 2.7V | 00:00:00 | 00:00:00 | 00:00:00 | |
| 9A1FER-15 | 2026-09-01 12:39:44 | 45.89430 | 16.88185 | 51° | 15km/h | 27238m | 5.2m/s | -47.4°C | 3.2% | 0hPa | 2.7V | 00:00:00 | 01:36:27 | 00:00:00 | |
| OE5DRO-10 | 2026-09-01 12:39:41 | 45.89422 | 16.88173 | 40° | 16km/h | 27218m | 6.3m/s | -47.6°C | 3.2% | 0hPa | 2.7V | 00:00:00 | 00:00:00 | 00:00:00 | |
| OE8JPQ-2 | 2026-09-01 12:39:40 | 45.89420 | 16.88170 | 39° | 13km/h | 27211m | 7.9m/s | 0°C | 0% | 0hPa | 2.7V | 00:00:00 | 00:00:00 | 00:00:00 | |
| 9A1FER-3 | 2026-09-01 12:39:37 | 45.89411 | 16.88165 | 360° | 16km/h | 27190m | 7.7m/s | -47.5°C | 3.2% | 0hPa | 2.7V | 00:00:00 | 01:36:20 | 00:00:00 | |
| PG1ADW-2 | 2026-09-01 12:39:35 | 45.89404 | 16.88165 | 6° | 16km/h | 27177m | 7.1m/s | -47.5°C | 3.2% | 0hPa | 2.7V | 00:00:00 | 00:00:00 | 00:00:00 | |
| PETON7-10 | 2026-09-01 12:39:33 | 45.89395 | 16.88161 | 31° | 16km/h | 27163m | 5.9m/s | -47.6°C | 3.2% | 0hPa | 2.7V | 00:00:00 | 01:36:16 | 00:00:00 | |
| OE5DXL-15 | 2026-09-01 12:39:32 | 45.89391 | 16.88158 | 36° | 16km/h | 27157m | 5.7m/s | -47.5°C | 3.2% | 0hPa | 2.7V | 00:00:00 | 00:00:00 | 08:30:00 | |
| 9A1FER-15 | 2026-09-01 12:39:29 | 45.89382 | 16.88149 | 18° | 16km/h | 27138m | 4.8m/s | -47.4°C | 3.2% | 0hPa | 2.6V | 00:00:00 | 01:36:12 | 08:30:00 | |
| 9A1FER-3 | 2026-09-01 12:39:22 | 45.89353 | 16.88139 | 360° | 16km/h | 27093m | 5.6m/s | -47.3°C | 3.2% | 0hPa | 2.7V | 00:00:00 | 01:36:05 | 00:00:00 | |
| 9A1FER-10 | 2026-09-01 12:39:19 | 45.89334 | 16.88134 | 11° | 16km/h | 27066m | 7.7m/s | -47.5°C | 3.2% | 0hPa | 2.6V | 00:00:00 | 01:36:01 | 00:00:00 | |
| PG1ADW-2 | 2026-09-01 12:39:15 | 45.89323 | 16.88130 | 27° | 15km/h | 27045m | 8.2m/s | -47.3°C | 3.1% | 0hPa | 2.7V | 00:00:00 | 00:00:00 | 00:00:00 | |
| 9A1FER-15 | 2026-09-01 12:39:14 | 45.89320 | 16.88128 | 33° | 15km/h | 27037m | 5.8m/s | -47.4°C | 3.1% | 0hPa | 2.6V | 00:00:00 | 01:35:57 | 00:00:00 | |
| 9A1FER-3 | 2026-09-01 12:39:07 | 45.89297 | 16.88114 | 10° | 15km/h | 26993m | 5.8m/s | -47.8°C | 3.2% | 0hPa | 2.6V | 00:00:00 | 01:35:50 | 00:00:00 | |
| PETON7-10 | 2026-09-01 12:39:03 | 45.89283 | 16.88118 | 350° | 15km/h | 26966m | 8.0m/s | -48.0°C | 3.2% | 0hPa | 2.6V | 00:00:00 | 00:00:00 | 00:00:00 | |
| OE5DXL-15 | 2026-09-01 12:39:02 | 45.89279 | 16.88119 | 355° | 9km/h | 26959m | 5.8m/s | -48.1°C | 3.3% | 0hPa | 2.6V | 00:00:00 | 00:00:00 | 00:00:00 | |
| 9A1FER-15 | 2026-09-01 12:38:59 | 45.89268 | 16.88123 | 334° | 13km/h | 26939m | 5.3m/s | -48.1°C | 3.3% | 0hPa | 2.6V | 00:00:00 | 01:35:42 | 00:00:00 | |
| PG1ADW-2 | 2026-09-01 12:38:55 | 45.89254 | 16.88133 | 325° | 9km/h | 26913m | 7.6m/s | -48.2°C | 3.3% | 0hPa | 2.6V | 00:00:00 | 01:35:38 | 00:00:00 | |
| 9A1FER-3 | 2026-09-01 12:38:52 | 45.89247 | 16.88144 | 316° | 7km/h | 26895m | 6.6m/s | -48.2°C | 3.3% | 0hPa | 2.6V | 00:00:00 | 01:35:35 | 00:00:00 | |
| OE3JTB-15 | 2026-09-01 12:38:50 | 45.89238 | 16.88147 | 356° | 7km/h | 26868m | 6.8m/s | -48.1°C | 3.3% | 0hPa | 2.6V | 00:00:00 | 00:00:00 | 00:00:00 | |
| PETON7-10 | 2026-09-01 12:38:48 | 45.89238 | 16.88147 | 356° | 5km/h | 26868m | 6.8m/s | -48.1°C | 3.3% | 0hPa | 2.6V | 00:00:00 | 01:35:31 | 00:00:00 | |
| 9A1FER-15 | 2026-09-01 12:38:44 | 45.89228 | 16.88143 | 32° | 5km/h | 26843m | 5.2m/s | -48.0°C | 3.3% | 0hPa | 2.6V | 00:00:00 | 01:35:27 | 00:00:00 | |
| 9A1FER-10 | 2026-09-01 12:38:40 | 45.89223 | 16.88140 | 239° | 4km/h | 26818m | 6.0m/s | -47.9°C | 3.4% | 0hPa | 2.7V | 00:00:00 | 01:35:23 | 00:00:00 | |
| 9A1FER-3 | 2026-09-01 12:38:37 | 45.89224 | 16.88136 | 100° | 5km/h | 26799m | 5.2m/s | -47.8°C | 3.2% | 0hPa | 2.7V | 00:00:00 | 01:35:20 | 00:00:00 | |
| PG1ADW-2 | 2026-09-01 12:38:35 | 45.89224 | 16.88133 | 104° | 5km/h | 26786m | 5.8m/s | -47.9°C | 3.2% | 0hPa | 2.6V | 00:00:00 | 00:00:00 | 00:00:00 | |
| PETON7-10 | 2026-09-01 12:38:33 | 45.89223 | 16.88131 | 34° | 7km/h | 26773m | 7.7m/s | -47.9°C | 3.2% | 0hPa | 2.6V | 00:00:00 | 00:00:00 | 08:30:00 | |
| OE5DXL-15 | 2026-09-01 12:38:32 | 45.89221 | 16.88130 | 25° | 7km/h | 26766m | 6.4m/s | -47.9°C | 3.2% | 0hPa | 2.7V | 00:00:00 | 00:00:00 | 00:00:00 | |
| 9A1FER-15 | 2026-09-01 12:38:29 | 45.89215 | 16.88130 | 317° | 5km/h | 26745m | 6.1m/s | -47.8°C | 3.3% | 0hPa | 2.7V | 00:00:00 | 01:35:12 | 00:00:00 | |
| 9A1FER-10 | 2026-09-01 12:38:25 | 45.89214 | 16.88134 | 127° | 5km/h | 26722m | 5.8m/s | -47.8°C | 3.3% | 0hPa | 2.7V | 00:00:00 | 01:35:08 | 08:30:00 | |
| 9A1FER-3 | 2026-09-01 12:38:22 | 45.89218 | 16.88129 | 146° | 7km/h | 26702m | 5.9m/s | -47.8°C | 3.3% | 0hPa | 2.6V | 00:00:00 | 01:35:05 | 00:00:00 | |
| OE3JTB-15 | 2026-09-01 12:38:20 | 45.89219 | 16.88122 | 60° | 9km/h | 26682m | 5.3m/s | -47.9°C | 3.3% | 0hPa | 2.6V | 00:00:00 | 00:00:00 | 00:00:00 | |
| PETON7-10 | 2026-09-01 12:38:18 | 45.89219 | 16.88121 | 38° | 9km/h | 26675m | 7.9m/s | -47.9°C | 3.3% | 0hPa | 2.6V | 00:00:00 | 00:00:00 | 00:00:00 | |
| PG1ADW-2 | 2026-09-01 12:38:15 | 45.89214 | 16.88120 | 2° | 11km/h | 26655m | 7.4m/s | -47.8°C | 3.2% | 0hPa | 2.6V | 00:00:00 | 00:00:00 | 08:30:00 | |
| 9A1FER-15 | 2026-09-01 12:38:14 | 45.89213 | 16.88120 | 32° | 11km/h | 26648m | 7.2m/s | -47.8°C | 3.3% | 0hPa | 2.7V | 00:00:00 | 01:34:57 | 00:00:00 | |
| 9A1FER-10 | 2026-09-01 12:38:10 | 45.89214 | 16.88112 | 149° | 11km/h | 26623m | 6.2m/s | -47.8°C | 3.2% | 0hPa | 2.7V | 00:00:00 | 01:34:53 | 00:00:00 | |
| 9A1FER-3 | 2026-09-01 12:38:07 | 45.89222 | 16.88102 | 132° | 11km/h | 26603m | 4.6m/s | -47.6°C | 3.2% | 0hPa | 2.7V | 00:00:00 | 01:34:50 | 00:00:00 | |
| OE5DRO-10 | 2026-09-01 12:38:06 | 45.89225 | 16.88099 | 139° | 11km/h | 26597m | 6.9m/s | -47.7°C | 3.2% | 0hPa | 2.7V | 00:00:00 | 00:00:00 | 08:30:00 | |
| PETON7-10 | 2026-09-01 12:38:03 | 45.89232 | 16.88091 | 132° | 11km/h | 26579m | 5.7m/s | -47.6°C | 3.2% | 0hPa | 2.6V | 00:00:00 | 01:34:46 | 00:00:00 | |
| 9A1FER-15 | 2026-09-01 12:37:59 | 45.89232 | 16.88074 | 77° | 13km/h | 26554m | 6.6m/s | -47.6°C | 3.1% | 0hPa | 2.6V | 00:00:00 | 01:34:42 | 00:00:00 | |
| PG1ADW-2 | 2026-09-01 12:37:55 | 45.89227 | 16.88064 | 37° | 15km/h | 26527m | 6.5m/s | -48.0°C | 3.2% | 0hPa | 2.7V | 00:00:00 | 00:00:00 | 00:00:00 | |
| 9A1FER-3 | 2026-09-01 12:37:50 | 45.89225 | 16.88049 | 113° | 15km/h | 26496m | 7.1m/s | -48.1°C | 3.3% | 0hPa | 2.7V | 00:00:00 | 01:34:33 | 08:30:00 | |
| 9A1FER-10 | 2026-09-01 12:37:48 | 45.89228 | 16.88035 | 99° | 16km/h | 26482m | 5.3m/s | -48.3°C | 3.3% | 0hPa | 2.6V | 00:00:00 | 01:34:31 | 00:00:00 | |
| OE5DRO-10 | 2026-09-01 12:37:47 | 45.89228 | 16.88027 | 97° | 16km/h | 26476m | 5.7m/s | -48.4°C | 3.3% | 0hPa | 2.6V | 00:00:00 | 00:00:00 | 00:00:00 | |
| 9A1FER-15 | 2026-09-01 12:37:44 | 45.89228 | 16.88007 | 69° | 15km/h | 26457m | 7.1m/s | -48.4°C | 3.3% | 0hPa | 2.6V | 00:00:00 | 01:34:27 | 00:00:00 | |
| PG1ADW-2 | 2026-09-01 12:37:35 | 45.89201 | 16.87982 | 53° | 16km/h | 26401m | 5.2m/s | -48.7°C | 3.3% | 0hPa | 2.6V | 00:00:00 | 01:34:18 | 00:00:00 | |
| PETON7-10 | 2026-09-01 12:37:33 | 45.89197 | 16.87974 | 56° | 18km/h | 26388m | 6.5m/s | -48.8°C | 3.4% | 0hPa | 2.6V | 00:00:00 | 00:00:00 | 00:00:00 | |
| OE5DXL-15 | 2026-09-01 12:37:32 | 45.89195 | 16.87970 | 57° | 16km/h | 26381m | 6.8m/s | -48.7°C | 3.4% | 0hPa | 2.6V | 00:00:00 | 00:00:00 | 00:00:00 | |
| 9A1FER-3 | 2026-09-01 12:37:30 | 45.89185 | 16.87956 | 23° | 18km/h | 26362m | 7.3m/s | -48.6°C | 3.3% | 0hPa | 2.6V | 00:00:00 | 01:34:12 | 00:00:00 | |
| 9A1FER-15 | 2026-09-01 12:37:29 | 45.89185 | 16.87956 | 23° | 18km/h | 26362m | 7.3m/s | -48.6°C | 3.3% | 0hPa | 2.6V | 00:00:00 | 01:34:12 | 00:00:00 | |
| OE5DRO-10 | 2026-09-01 12:37:28 | 45.89180 | 16.87955 | 4° | 18km/h | 26355m | 7.5m/s | -48.6°C | 3.3% | 0hPa | 2.6V | 00:00:00 | 00:00:00 | 00:00:00 | |
| OE3JTB-15 | 2026-09-01 12:37:22 | 45.89136 | 16.87958 | 43° | 15km/h | 26295m | 5.2m/s | -49.1°C | 3.5% | 0hPa | 2.6V | 00:00:00 | 00:00:00 | 00:00:00 | |
| 9A1FER-10 | 2026-09-01 12:37:18 | 45.89134 | 16.87954 | 45° | 15km/h | 26290m | 5.1m/s | -49.1°C | 3.5% | 0hPa | 2.6V | 00:00:00 | 01:34:01 | 00:00:00 | |
| PG1ADW-2 | 2026-09-01 12:37:15 | 45.89125 | 16.87949 | 9° | 16km/h | 26271m | 5.8m/s | -49.3°C | 3.6% | 0hPa | 2.6V | 00:00:00 | 00:00:00 | 00:00:00 | |
| 9A1FER-15 | 2026-09-01 12:37:14 | 45.89120 | 16.87948 | 11° | 15km/h | 26264m | 8.5m/s | -49.2°C | 3.5% | 0hPa | 2.6V | 00:00:00 | 01:33:57 | 08:30:00 | |
| 9A1FER-3 | 2026-09-01 12:37:13 | 45.89115 | 16.87947 | 6° | 15km/h | 26257m | 5.3m/s | -49.1°C | 3.5% | 0hPa | 2.6V | 00:00:00 | 01:33:56 | 00:00:00 | |
| OE5DRO-10 | 2026-09-01 12:37:09 | 45.89095 | 16.87951 | 346° | 15km/h | 26230m | 8.2m/s | -49.2°C | 3.4% | 0hPa | 2.6V | 00:00:00 | 00:00:00 | 00:00:00 | |
| PETON7-10 | 2026-09-01 12:37:03 | 45.89080 | 16.87965 | 331° | 15km/h | 26189m | 5.6m/s | -49.1°C | 3.6% | 0hPa | 2.6V | 00:00:00 | 00:00:00 | 00:00:00 | |
| OE5DXL-15 | 2026-09-01 12:37:02 | 45.89077 | 16.87967 | 330° | 13km/h | 26184m | 5.9m/s | -49.1°C | 3.6% | 0hPa | 2.6V | 00:00:00 | 00:00:00 | 00:00:00 | |
| 9A1FER-15 | 2026-09-01 12:36:59 | 45.89069 | 16.87976 | 327° | 15km/h | 26163m | 7.5m/s | -49.0°C | 3.5% | 0hPa | 2.6V | 00:00:00 | 01:33:42 | 00:00:00 | |
| 9A1FER-3 | 2026-09-01 12:36:58 | 45.89065 | 16.87979 | 332° | 13km/h | 26155m | 6.3m/s | -49.0°C | 3.5% | 0hPa | 2.6V | 00:00:00 | 01:33:41 | 00:00:00 | |
| PG1ADW-2 | 2026-09-01 12:36:55 | 45.89054 | 16.87993 | 301° | 11km/h | 26136m | 6.5m/s | -49.0°C | 3.5% | 0hPa | 2.7V | 00:00:00 | 00:00:00 | 00:00:00 | |
| OE5DRO-10 | 2026-09-01 12:36:50 | 45.89046 | 16.88018 | 281° | 9km/h | 26104m | 5.9m/s | -48.7°C | 3.4% | 0hPa | 2.7V | 00:00:00 | 00:00:00 | 00:00:00 | |
| PETON7-10 | 2026-09-01 12:36:48 | 45.89047 | 16.88025 | 243° | 9km/h | 26090m | 5.6m/s | -48.7°C | 3.5% | 0hPa | 2.7V | 00:00:00 | 00:00:00 | 00:00:00 | |
| 9A1FER-15 | 2026-09-01 12:36:44 | 45.89052 | 16.88034 | 233° | 9km/h | 26064m | 7.6m/s | -48.5°C | 3.4% | 0hPa | 2.7V | 00:00:00 | 01:33:27 | 00:00:00 | |
| 9A1FER-3 | 2026-09-01 12:36:43 | 45.89053 | 16.88036 | 255° | 9km/h | 26057m | 6.1m/s | -48.6°C | 3.4% | 0hPa | 2.7V | 00:00:00 | 01:33:26 | 00:00:00 | |
| PG1ADW-2 | 2026-09-01 12:36:35 | 45.89049 | 16.88062 | 220° | 11km/h | 26004m | 6.7m/s | -48.6°C | 3.4% | 0hPa | 2.7V | 00:00:00 | 00:00:00 | 00:00:00 | |
| 9A1FER-10 | 2026-09-01 12:36:33 | 45.89054 | 16.88064 | 199° | 11km/h | 25991m | 8.1m/s | -48.6°C | 3.5% | 0hPa | 2.7V | 00:00:00 | 01:33:16 | 00:00:00 | |
| OE5DXL-15 | 2026-09-01 12:36:32 | 45.89057 | 16.88066 | 200° | 13km/h | 25984m | 6.2m/s | -48.5°C | 3.5% | 0hPa | 2.7V | 00:00:00 | 00:00:00 | 00:00:00 | |
| OE5DRO-10 | 2026-09-01 12:36:31 | 45.89060 | 16.88067 | 198° | 13km/h | 25978m | 6.1m/s | -48.5°C | 3.5% | 0hPa | 2.6V | 00:00:00 | 00:00:00 | 00:00:00 | |
| 9A1FER-15 | 2026-09-01 12:36:29 | 45.89064 | 16.88069 | 187° | 13km/h | 25964m | 5.9m/s | -48.4°C | 3.5% | 0hPa | 2.6V | 00:00:00 | 01:33:12 | 00:00:00 | |
| 9A1FER-3 | 2026-09-01 12:36:28 | 45.89066 | 16.88069 | 198° | 13km/h | 25957m | 6.8m/s | -48.4°C | 3.4% | 0hPa | 2.6V | 00:00:00 | 01:33:11 | 00:00:00 | |
| OE3JTB-15 | 2026-09-01 12:36:21 | 45.89082 | 16.88084 | 194° | 16km/h | 25906m | 5.9m/s | -48.4°C | 3.3% | 0hPa | 2.6V | 00:00:00 | 01:33:03 | 00:00:00 | |
| PETON7-10 | 2026-09-01 12:36:18 | 45.89092 | 16.88086 | 175° | 15km/h | 25892m | 6.5m/s | -48.4°C | 3.3% | 0hPa | 2.6V | 00:00:00 | 00:00:00 | 08:30:00 | |
| PG1ADW-2 | 2026-09-01 12:36:15 | 45.89105 | 16.88082 | 172° | 13km/h | 25874m | 6.9m/s | -48.3°C | 3.3% | 0hPa | 2.7V | 00:00:00 | 01:32:58 | 00:00:00 | |
| 9A1FER-15 | 2026-09-01 12:36:14 | 45.89109 | 16.88081 | 177° | 15km/h | 25867m | 5.2m/s | -48.3°C | 3.3% | 0hPa | 2.6V | 00:00:00 | 01:32:57 | 00:00:00 | |
| 9A1FER-3 | 2026-09-01 12:36:13 | 45.89113 | 16.88081 | 177° | 15km/h | 25862m | 4.9m/s | -48.3°C | 3.3% | 0hPa | 2.6V | 00:00:00 | 01:32:56 | 00:00:00 | |
| OE5DRO-10 | 2026-09-01 12:36:12 | 45.89115 | 16.88080 | 167° | 13km/h | 25856m | 7.3m/s | -48.3°C | 3.3% | 0hPa | 2.6V | 00:00:00 | 00:00:00 | 00:00:00 | |
| 9A1FER-10 | 2026-09-01 12:36:04 | 45.89142 | 16.88056 | 152° | 16km/h | 25797m | 6.7m/s | -48.2°C | 3.3% | 0hPa | 2.7V | 00:00:00 | 01:32:46 | 08:30:00 | |
| OE5DXL-15 | 2026-09-01 12:36:02 | 45.89147 | 16.88052 | 153° | 18km/h | 25791m | 5.2m/s | -48.2°C | 3.3% | 0hPa | 2.6V | 00:00:00 | 00:00:00 | 00:00:00 | |
| 9A1FER-15 | 2026-09-01 12:35:59 | 45.89156 | 16.88040 | 104° | 15km/h | 25772m | 5.2m/s | -48.4°C | 3.4% | 0hPa | 2.6V | 00:00:00 | 01:32:42 | 00:00:00 | |
| 9A1FER-3 | 2026-09-01 12:35:58 | 45.89156 | 16.88037 | 83° | 15km/h | 25766m | 6.1m/s | -48.4°C | 3.3% | 0hPa | 2.6V | 00:00:00 | 01:32:41 | 00:00:00 | |
| PG1ADW-2 | 2026-09-01 12:35:55 | 45.89155 | 16.88031 | 73° | 18km/h | 25748m | 5.6m/s | -48.4°C | 3.2% | 0hPa | 2.6V | 00:00:00 | 00:00:00 | 00:00:00 | |
| OE5DRO-10 | 2026-09-01 12:35:53 | 45.89155 | 16.88023 | 97° | 20km/h | 25735m | 6.0m/s | -48.4°C | 3.2% | 0hPa | 2.6V | 00:00:00 | 00:00:00 | 00:00:00 | |
| OE3JTB-15 | 2026-09-01 12:35:52 | 45.89160 | 16.88003 | 117° | 22km/h | 25715m | 4.8m/s | -48.5°C | 3.2% | 0hPa | 2.6V | 00:00:00 | 00:00:00 | 08:30:00 | |
| PETON7-10 | 2026-09-01 12:35:48 | 45.89165 | 16.87986 | 103° | 20km/h | 25703m | 4.9m/s | -48.4°C | 3.2% | 0hPa | 2.6V | 00:00:00 | 01:32:31 | 00:00:00 | |
| 9A1FER-15 | 2026-09-01 12:35:44 | 45.89164 | 16.87963 | 55° | 22km/h | 25678m | 8.0m/s | -48.4°C | 3.3% | 0hPa | 2.6V | 00:00:00 | 01:32:27 | 00:00:00 | |
| 9A1FER-3 | 2026-09-01 12:35:43 | 45.89161 | 16.87958 | 37° | 24km/h | 25671m | 6.3m/s | -48.4°C | 3.3% | 0hPa | 2.7V | 00:00:00 | 01:32:26 | 00:00:00 | |
| PG1ADW-2 | 2026-09-01 12:35:35 | 45.89135 | 16.87913 | 82° | 22km/h | 25619m | 4.8m/s | -49.0°C | 3.2% | 0hPa | 2.7V | 00:00:00 | 00:00:00 | 00:00:00 | |
| OE5DRO-10 | 2026-09-01 12:35:34 | 45.89134 | 16.87904 | 80° | 22km/h | 25615m | 3.6m/s | -48.9°C | 3.2% | 0hPa | 2.7V | 00:00:00 | 00:00:00 | 00:00:00 | |
| PETON7-10 | 2026-09-01 12:35:33 | 45.89132 | 16.87895 | 75° | 22km/h | 25610m | 6.9m/s | -49.1°C | 3.2% | 0hPa | 2.7V | 00:00:00 | 00:00:00 | 00:00:00 | |
| OE5DXL-15 | 2026-09-01 12:35:32 | 45.89130 | 16.87885 | 64° | 18km/h | 25604m | 5.4m/s | -49.1°C | 3.3% | 0hPa | 2.7V | 00:00:00 | 00:00:00 | 00:00:00 | |
| 9A1FER-15 | 2026-09-01 12:35:29 | 45.89118 | 16.87867 | 27° | 20km/h | 25584m | 5.7m/s | -49.3°C | 3.4% | 0hPa | 2.7V | 00:00:00 | 01:32:12 | 00:00:00 | |
| 9A1FER-3 | 2026-09-01 12:35:28 | 45.89112 | 16.87864 | 18° | 20km/h | 25578m | 7.1m/s | -49.3°C | 3.4% | 0hPa | 2.7V | 00:00:00 | 01:32:11 | 08:30:00 | |
| OE3JTB-15 | 2026-09-01 12:35:23 | 45.89080 | 16.87852 | 36° | 15km/h | 25542m | 6.0m/s | -49.8°C | 3.3% | 0hPa | 2.6V | 00:00:00 | 00:00:00 | 00:00:00 | |
| PETON7-10 | 2026-09-01 12:35:18 | 45.89064 | 16.87837 | 20° | 15km/h | 25517m | 7.6m/s | -50.3°C | 3.3% | 0hPa | 2.6V | 00:00:00 | 00:00:00 | 00:00:00 | |
| PG1ADW-2 | 2026-09-01 12:35:15 | 45.89052 | 16.87836 | 359° | 15km/h | 25499m | 7.3m/s | -50.7°C | 3.6% | 0hPa | 2.6V | 00:00:00 | 00:00:00 | 08:30:00 | |
| 9A1FER-15 | 2026-09-01 12:35:14 | 45.89047 | 16.87836 | 356° | 15km/h | 25493m | 5.3m/s | -50.8°C | 3.6% | 0hPa | 2.6V | 00:00:00 | 01:31:57 | 00:00:00 | |
| 9A1FER-3 | 2026-09-01 12:35:13 | 45.89043 | 16.87837 | 350° | 15km/h | 25488m | 4.8m/s | -50.8°C | 3.6% | 0hPa | 2.6V | 00:00:00 | 01:31:56 | 00:00:00 | |
| PETON7-10 | 2026-09-01 12:35:03 | 45.89011 | 16.87857 | 336° | 11km/h | 25424m | 5.1m/s | -50.8°C | 3.6% | 0hPa | 2.6V | 00:00:00 | 01:31:46 | 00:00:00 | |
| OE5DXL-15 | 2026-09-01 12:35:02 | 45.89007 | 16.87860 | 330° | 7km/h | 25418m | 5.4m/s | -50.8°C | 3.7% | 0hPa | 2.6V | 00:00:00 | 01:31:45 | 08:30:00 | |
| 9A1FER-15 | 2026-09-01 12:34:59 | 45.89000 | 16.87870 | 305° | 7km/h | 25398m | 7.7m/s | -51.1°C | 3.8% | 0hPa | 2.7V | 00:00:00 | 01:31:42 | 08:30:00 | |
| 9A1FER-3 | 2026-09-01 12:34:58 | 45.88999 | 16.87874 | 301° | 7km/h | 25391m | 5.4m/s | -51.1°C | 3.8% | 0hPa | 2.7V | 00:00:00 | 01:31:41 | 00:00:00 | |
| OE5DRO-10 | 2026-09-01 12:34:56 | 45.88997 | 16.87880 | 265° | 5km/h | 25379m | 7.8m/s | -51.1°C | 3.9% | 0hPa | 2.7V | 00:00:00 | 00:00:00 | 00:00:00 | |
| PG1ADW-2 | 2026-09-01 12:34:55 | 45.88998 | 16.87884 | 257° | 5km/h | 25372m | 5.6m/s | -51.1°C | 3.8% | 0hPa | 2.7V | 00:00:00 | 01:31:38 | 00:00:00 | |
| OE3JTB-15 | 2026-09-01 12:34:53 | 45.88995 | 16.87894 | 331° | 5km/h | 25348m | 4.9m/s | -50.9°C | 3.8% | 0hPa | 2.7V | 00:00:00 | 01:31:34 | 00:00:00 | |
| PETON7-10 | 2026-09-01 12:34:48 | 45.88993 | 16.87899 | 262° | 5km/h | 25330m | 5.3m/s | -50.9°C | 3.7% | 0hPa | 2.7V | 00:00:00 | 00:00:00 | 00:00:00 | |
| 9A1FER-15 | 2026-09-01 12:34:44 | 45.88992 | 16.87902 | 265° | 5km/h | 25304m | 7.5m/s | -50.8°C | 3.7% | 0hPa | 2.7V | 00:00:00 | 01:31:27 | 00:00:00 | |
| 9A1FER-3 | 2026-09-01 12:34:43 | 45.88992 | 16.87903 | 248° | 5km/h | 25298m | 6.1m/s | -50.8°C | 3.7% | 0hPa | 2.7V | 00:00:00 | 01:31:26 | 00:00:00 | |
| 9A1FER-10 | 2026-09-01 12:34:38 | 45.88988 | 16.87914 | 288° | 7km/h | 25261m | 6.5m/s | -50.7°C | 3.7% | 0hPa | 2.6V | 00:00:00 | 01:31:20 | 00:00:00 | |
| OE5DRO-10 | 2026-09-01 12:34:37 | 45.88988 | 16.87914 | 288° | 7km/h | 25261m | 6.5m/s | -50.7°C | 3.7% | 0hPa | 2.6V | 00:00:00 | 00:00:00 | 00:00:00 | |
| PG1ADW-2 | 2026-09-01 12:34:35 | 45.88988 | 16.87917 | 302° | 7km/h | 25248m | 7.5m/s | -50.8°C | 3.8% | 0hPa | 2.6V | 00:00:00 | 00:00:00 | 00:00:00 | |
| PETON7-10 | 2026-09-01 12:34:33 | 45.88986 | 16.87919 | 313° | 7km/h | 25236m | 4.9m/s | -50.8°C | 3.7% | 0hPa | 2.6V | 00:00:00 | 00:00:00 | 00:00:00 | |
| OE5DXL-15 | 2026-09-01 12:34:32 | 45.88986 | 16.87920 | 271° | 9km/h | 25230m | 7.2m/s | -50.8°C | 3.7% | 0hPa | 2.6V | 00:00:00 | 00:00:00 | 00:00:00 | |
| 9A1FER-15 | 2026-09-01 12:34:29 | 45.88984 | 16.87925 | 318° | 7km/h | 25212m | 7.2m/s | -50.7°C | 3.6% | 0hPa | 2.6V | 00:00:00 | 01:31:12 | 00:00:00 | |
| 9A1FER-3 | 2026-09-01 12:34:28 | 45.88983 | 16.87927 | 325° | 11km/h | 25205m | 5.6m/s | -50.7°C | 3.6% | 0hPa | 2.6V | 00:00:00 | 01:31:11 | 00:00:00 | |
| 9A1FER-10 | 2026-09-01 12:34:22 | 45.88968 | 16.87935 | 10° | 9km/h | 25167m | 5.8m/s | -50.7°C | 3.7% | 0hPa | 2.6V | 00:00:00 | 01:31:05 | 00:00:00 | |
| OE5DRO-10 | 2026-09-01 12:34:18 | 45.88962 | 16.87929 | 56° | 9km/h | 25143m | 7.3m/s | -50.7°C | 3.6% | 0hPa | 2.7V | 00:00:00 | 00:00:00 | 00:00:00 | |
| PG1ADW-2 | 2026-09-01 12:34:15 | 45.88960 | 16.87928 | 286° | 11km/h | 25124m | 7.7m/s | -50.7°C | 3.6% | 0hPa | 2.6V | 00:00:00 | 00:00:00 | 00:00:00 | |
| 9A1FER-15 | 2026-09-01 12:34:14 | 45.88960 | 16.87930 | 277° | 11km/h | 25117m | 5.1m/s | -50.7°C | 3.6% | 0hPa | 2.6V | 00:00:00 | 01:30:57 | 00:00:00 | |
| 9A1FER-10 | 2026-09-01 12:34:07 | 45.88944 | 16.87945 | 356° | 11km/h | 25078m | 4.8m/s | -51.0°C | 3.7% | 0hPa | 2.6V | 00:00:00 | 01:30:50 | 00:00:00 | |
| PETON7-10 | 2026-09-01 12:34:03 | 45.88932 | 16.87939 | 44° | 11km/h | 25053m | 7.3m/s | -51.3°C | 3.8% | 0hPa | 2.6V | 00:00:00 | 00:00:00 | 08:30:00 | |
| OE5DXL-15 | 2026-09-01 12:34:02 | 45.88930 | 16.87935 | 62° | 13km/h | 25046m | 6.1m/s | -51.4°C | 3.8% | 0hPa | 2.7V | 00:00:00 | 00:00:00 | 00:00:00 | |
| 9A1FER-15 | 2026-09-01 12:33:59 | 45.88925 | 16.87925 | 46° | 13km/h | 25028m | 5.4m/s | -51.3°C | 3.8% | 0hPa | 2.7V | 00:00:00 | 01:30:42 | 00:00:00 | |
| PG1ADW-2 | 2026-09-01 12:33:55 | 45.88917 | 16.87921 | 345° | 15km/h | 25004m | 5.4m/s | -51.2°C | 3.8% | 0hPa | 2.7V | 00:00:00 | 00:00:00 | 00:00:00 | |
| 9A1FER-10 | 2026-09-01 12:33:52 | 45.88908 | 16.87922 | 358° | 15km/h | 24987m | 5.2m/s | -51.2°C | 3.8% | 0hPa | 2.7V | 00:00:00 | 01:30:35 | 00:00:00 | |
| PETON7-10 | 2026-09-01 12:33:48 | 45.88894 | 16.87922 | 8° | 16km/h | 24962m | 6.0m/s | -51.2°C | 3.8% | 0hPa | 2.7V | 00:00:00 | 00:00:00 | 00:00:00 | |
| OE3JTB-15 | 2026-09-01 12:33:47 | 45.88882 | 16.87919 | 15° | 18km/h | 24944m | 5.2m/s | -51.3°C | 3.8% | 0hPa | 2.7V | 00:00:00 | 00:00:00 | 00:00:00 | |
| 9A1FER-15 | 2026-09-01 12:33:44 | 45.88878 | 16.87917 | 17° | 15km/h | 24938m | 5.7m/s | -51.2°C | 3.7% | 0hPa | 2.7V | 00:00:00 | 01:30:27 | 00:00:00 | |
| 9A1FER-3 | 2026-09-01 12:33:43 | 45.88874 | 16.87915 | 17° | 18km/h | 24932m | 6.8m/s | -51.2°C | 3.7% | 0hPa | 2.7V | 00:00:00 | 01:30:26 | 00:00:00 | |
| OE5DRO-10 | 2026-09-01 12:33:40 | 45.88861 | 16.87911 | 3° | 16km/h | 24913m | 6.1m/s | -51.2°C | 3.8% | 0hPa | 2.7V | 00:00:00 | 00:00:00 | 00:00:00 | |
| 9A1FER-10 | 2026-09-01 12:33:37 | 45.88849 | 16.87912 | 357° | 16km/h | 24895m | 5.2m/s | -51.2°C | 3.7% | 0hPa | 2.7V | 00:00:00 | 01:30:20 | 08:30:00 | |
| PG1ADW-2 | 2026-09-01 12:33:35 | 45.88842 | 16.87914 | 348° | 18km/h | 24884m | 7.7m/s | -51.2°C | 3.8% | 0hPa | 2.7V | 00:00:00 | 01:30:18 | 00:00:00 | |
| PETON7-10 | 2026-09-01 12:33:33 | 45.88837 | 16.87916 | 337° | 18km/h | 24872m | 5.5m/s | -51.2°C | 3.8% | 0hPa | 2.7V | 00:00:00 | 01:30:16 | 00:00:00 | |
| OE5DXL-15 | 2026-09-01 12:33:32 | 45.88834 | 16.87917 | 345° | 24km/h | 24866m | 6.5m/s | -51.2°C | 3.8% | 0hPa | 2.7V | 00:00:00 | 00:00:00 | 00:00:00 | |
| 9A1FER-15 | 2026-09-01 12:33:29 | 45.88823 | 16.87921 | 345° | 18km/h | 24848m | 6.5m/s | -51.1°C | 3.7% | 0hPa | 2.6V | 00:00:00 | 01:30:12 | 00:00:00 | |
| 9A1FER-10 | 2026-09-01 12:33:22 | 45.88791 | 16.87949 | 314° | 24km/h | 24805m | 5.9m/s | -51.1°C | 3.7% | 0hPa | 2.7V | 00:00:00 | 01:30:05 | 00:00:00 | |
| PETON7-10 | 2026-09-01 12:33:18 | 45.88778 | 16.87968 | 312° | 27km/h | 24781m | 5.6m/s | -51.4°C | 3.8% | 0hPa | 2.7V | 00:00:00 | 00:00:00 | 00:00:00 | |
| OE3JTB-15 | 2026-09-01 12:33:16 | 45.88773 | 16.87978 | 301° | 26km/h | 24768m | 4.4m/s | -51.4°C | 3.8% | 0hPa | 2.6V | 00:00:00 | 01:29:59 | 00:00:00 | |
| PG1ADW-2 | 2026-09-01 12:33:15 | 45.88771 | 16.87984 | 309° | 26km/h | 24763m | 5.1m/s | -51.4°C | 3.7% | 0hPa | 2.6V | 00:00:00 | 00:00:00 | 00:00:00 | |
| 9A1FER-15 | 2026-09-01 12:33:14 | 45.88767 | 16.87990 | 318° | 27km/h | 24757m | 7.1m/s | -51.5°C | 3.7% | 0hPa | 2.6V | 00:00:00 | 01:29:57 | 00:00:00 | |
| 9A1FER-10 | 2026-09-01 12:33:07 | 45.88724 | 16.88042 | 318° | 24km/h | 24715m | 5.0m/s | -51.7°C | 3.8% | 0hPa | 2.6V | 00:00:00 | 01:29:50 | 00:00:00 | |
| PETON7-10 | 2026-09-01 12:33:03 | 45.88707 | 16.88075 | 299° | 20km/h | 24692m | 6.9m/s | -51.6°C | 3.8% | 0hPa | 2.6V | 00:00:00 | 00:00:00 | 00:00:00 | |
| OE5DXL-15 | 2026-09-01 12:33:02 | 45.88704 | 16.88081 | 299° | 16km/h | 24685m | 5.6m/s | -51.7°C | 3.7% | 0hPa | 2.6V | 00:00:00 | 00:00:00 | 00:00:00 | |
| 9A1FER-15 | 2026-09-01 12:32:59 | 45.88699 | 16.88099 | 300° | 18km/h | 24667m | 5.3m/s | -51.9°C | 3.9% | 0hPa | 2.6V | 00:00:00 | 01:29:42 | 00:00:00 | |
| PG1ADW-2 | 2026-09-01 12:32:55 | 45.88684 | 16.88119 | 321° | 16km/h | 24643m | 7.3m/s | -51.9°C | 3.8% | 0hPa | 2.6V | 00:00:00 | 00:00:00 | 00:00:00 | |
| 9A1FER-3 | 2026-09-01 12:32:52 | 45.88672 | 16.88135 | 317° | 16km/h | 24625m | 6.1m/s | -52.1°C | 3.8% | 0hPa | 2.6V | 00:00:00 | 01:29:35 | 00:00:00 | |
| PETON7-10 | 2026-09-01 12:32:48 | 45.88659 | 16.88153 | 293° | 13km/h | 24602m | 7.0m/s | -52.1°C | 3.8% | 0hPa | 2.6V | 00:00:00 | 01:29:31 | 00:00:00 | |
| OE3JTB-15 | 2026-09-01 12:32:45 | 45.88658 | 16.88171 | 277° | 18km/h | 24583m | 7.0m/s | -52.0°C | 3.9% | 0hPa | 2.6V | 00:00:00 | 00:00:00 | 00:00:00 | |
| 9A1FER-15 | 2026-09-01 12:32:44 | 45.88657 | 16.88177 | 277° | 13km/h | 24577m | 5.5m/s | -52.0°C | 3.9% | 0hPa | 2.6V | 00:00:00 | 01:29:27 | 08:30:00 | |
| OE5DRO-10 | 2026-09-01 12:32:43 | 45.88657 | 16.88183 | 271° | 13km/h | 24570m | 7.8m/s | -52.1°C | 3.9% | 0hPa | 2.6V | 00:00:00 | 00:00:00 | 00:00:00 | |
| 9A1FER-10 | 2026-09-01 12:32:37 | 45.88651 | 16.88208 | 295° | 11km/h | 24532m | 6.0m/s | -52.4°C | 3.9% | 0hPa | 2.6V | 00:00:00 | 01:29:20 | 00:00:00 | |
| PG1ADW-2 | 2026-09-01 12:32:35 | 45.88649 | 16.88214 | 305° | 13km/h | 24519m | 7.4m/s | -52.5°C | 3.9% | 0hPa | 2.6V | 00:00:00 | 00:00:00 | 00:00:00 | |
| PETON7-10 | 2026-09-01 12:32:33 | 45.88647 | 16.88219 | 282° | 13km/h | 24507m | 5.3m/s | -52.5°C | 3.9% | 0hPa | 2.6V | 00:00:00 | 00:00:00 | 00:00:00 | |
| OE5DXL-15 | 2026-09-01 12:32:32 | 45.88647 | 16.88223 | 265° | 15km/h | 24501m | 6.9m/s | -52.4°C | 4.0% | 0hPa | 2.7V | 00:00:00 | 00:00:00 | 00:00:00 | |
| 9A1FER-15 | 2026-09-01 12:32:29 | 45.88650 | 16.88240 | 258° | 13km/h | 24484m | 6.7m/s | -52.3°C | 4.0% | 0hPa | 2.7V | 00:00:00 | 01:29:12 | 00:00:00 | |
| OE5DRO-10 | 2026-09-01 12:32:24 | 45.88657 | 16.88260 | 238° | 13km/h | 24454m | 6.8m/s | -52.4°C | 4.0% | 0hPa | 2.7V | 00:00:00 | 00:00:00 | 08:30:00 | |
| 9A1FER-10 | 2026-09-01 12:32:22 | 45.88659 | 16.88266 | 253° | 15km/h | 24441m | 5.9m/s | -52.2°C | 3.9% | 0hPa | 2.6V | 00:00:00 | 01:29:05 | 00:00:00 | |
| PETON7-10 | 2026-09-01 12:32:17 | 45.88665 | 16.88286 | 259° | 16km/h | 24410m | 5.4m/s | -52.4°C | 3.9% | 0hPa | 2.6V | 00:00:00 | 00:00:00 | 00:00:00 | |
| PG1ADW-2 | 2026-09-01 12:32:15 | 45.88668 | 16.88299 | 249° | 18km/h | 24398m | 6.6m/s | -52.6°C | 4.0% | 0hPa | 2.6V | 00:00:00 | 01:28:58 | 08:30:00 | |
| 9A1FER-15 | 2026-09-01 12:32:14 | 45.88670 | 16.88306 | 248° | 16km/h | 24392m | 5.6m/s | -52.7°C | 4.1% | 0hPa | 2.7V | 00:00:00 | 01:28:57 | 00:00:00 | |
| 9A1FER-3 | 2026-09-01 12:32:07 | 45.88680 | 16.88339 | 261° | 18km/h | 24347m | 5.9m/s | -52.8°C | 4.1% | 0hPa | 2.7V | 00:00:00 | 01:28:50 | 08:30:00 | |
| OE5DRO-10 | 2026-09-01 12:32:06 | 45.88681 | 16.88349 | 259° | 16km/h | 24335m | 7.0m/s | -52.8°C | 4.1% | 0hPa | 2.6V | 00:00:00 | 00:00:00 | 00:00:00 | |
| 9A1FER-15 | 2026-09-01 12:31:59 | 45.88685 | 16.88395 | 252° | 15km/h | 24299m | 5.4m/s | -52.5°C | 4.0% | 0hPa | 2.6V | 00:00:00 | 01:28:42 | 00:00:00 | |
| PG1ADW-2 | 2026-09-01 12:31:55 | 45.88694 | 16.88418 | 210° | 13km/h | 24274m | 7.8m/s | -52.5°C | 4.0% | 0hPa | 2.6V | 00:00:00 | 00:00:00 | 00:00:00 | |
| 9A1FER-10 | 2026-09-01 12:31:52 | 45.88703 | 16.88418 | 160° | 15km/h | 24254m | 6.4m/s | -52.5°C | 4.0% | 0hPa | 2.6V | 00:00:00 | 01:28:35 | 00:00:00 | |
| PETON7-10 | 2026-09-01 12:31:47 | 45.88714 | 16.88425 | 244° | 15km/h | 24225m | 5.9m/s | -52.3°C | 4.0% | 0hPa | 2.6V | 00:00:00 | 00:00:00 | 08:30:00 | |
| OE5DRO-10 | 2026-09-01 12:31:46 | 45.88716 | 16.88431 | 258° | 15km/h | 24219m | 6.8m/s | -52.3°C | 4.0% | 0hPa | 2.6V | 00:00:00 | 00:00:00 | 00:00:00 | |
| 9A1FER-15 | 2026-09-01 12:31:44 | 45.88717 | 16.88444 | 261° | 15km/h | 24206m | 5.9m/s | -52.3°C | 4.0% | 0hPa | 2.6V | 00:00:00 | 01:28:27 | 00:00:00 | |
| 9A1FER-10 | 2026-09-01 12:31:37 | 45.88726 | 16.88477 | 233° | 11km/h | 24161m | 5.5m/s | -52.1°C | 3.9% | 0hPa | 2.6V | 00:00:00 | 01:28:20 | 00:00:00 | |
| PG1ADW-2 | 2026-09-01 12:31:35 | 45.88727 | 16.88482 | 286° | 11km/h | 24150m | 7.3m/s | -52.1°C | 3.9% | 0hPa | 2.6V | 00:00:00 | 00:00:00 | 00:00:00 | |
| OE5DXL-15 | 2026-09-01 12:31:32 | 45.88722 | 16.88495 | 291° | 9km/h | 24131m | 7.0m/s | -52.2°C | 3.9% | 0hPa | 2.6V | 00:00:00 | 00:00:00 | 00:00:00 | |
| 9A1FER-15 | 2026-09-01 12:31:29 | 45.88720 | 16.88512 | 283° | 9km/h | 24113m | 7.2m/s | -52.2°C | 3.9% | 0hPa | 2.6V | 00:00:00 | 01:28:12 | 00:00:00 | |
| OE3JTB-15 | 2026-09-01 12:31:28 | 45.88719 | 16.88516 | 280° | 7km/h | 24107m | 5.7m/s | -52.2°C | 3.9% | 0hPa | 2.6V | 00:00:00 | 01:28:11 | 00:00:00 | |
| OE5DRO-10 | 2026-09-01 12:31:27 | 45.88719 | 16.88520 | 259° | 9km/h | 24101m | 6.1m/s | -52.2°C | 3.9% | 0hPa | 2.6V | 00:00:00 | 00:00:00 | 00:00:00 | |
| PETON7-10 | 2026-09-01 12:31:17 | 45.88718 | 16.88528 | 317° | 7km/h | 24038m | 6.3m/s | -52.4°C | 4.0% | 0hPa | 2.6V | 00:00:00 | 01:28:00 | 00:00:00 | |
| 9A1FER-15 | 2026-09-01 12:31:14 | 45.88712 | 16.88544 | 294° | 7km/h | 24020m | 4.7m/s | -52.3°C | 4.1% | 0hPa | 2.6V | 00:00:00 | 01:27:57 | 00:00:00 | |
| OE5DRO-10 | 2026-09-01 12:31:08 | 45.88708 | 16.88555 | 185° | 5km/h | 23984m | 4.9m/s | -52.2°C | 3.9% | 0hPa | 2.6V | 00:00:00 | 00:00:00 | 00:00:00 | |
| 9A1FER-3 | 2026-09-01 12:31:07 | 45.88708 | 16.88555 | 142° | 5km/h | 23979m | 6.1m/s | -52.2°C | 3.9% | 0hPa | 2.6V | 00:00:00 | 01:27:50 | 00:00:00 | |
| 9A1FER-10 | 2026-09-01 12:31:06 | 45.88708 | 16.88554 | 83° | 5km/h | 23972m | 6.7m/s | -52.1°C | 3.9% | 0hPa | 2.6V | 00:00:00 | 01:27:49 | 00:00:00 | |
| PETON7-10 | 2026-09-01 12:31:02 | 45.88706 | 16.88557 | 311° | 5km/h | 23948m | 5.2m/s | -52.0°C | 3.9% | 0hPa | 2.6V | 00:00:00 | 00:00:00 | 00:00:00 | |
| 9A1FER-15 | 2026-09-01 12:30:59 | 45.88700 | 16.88564 | 315° | 9km/h | 23929m | 6.4m/s | -51.9°C | 3.9% | 0hPa | 2.6V | 00:00:00 | 01:27:42 | 00:00:00 | |
| OE3JTB-15 | 2026-09-01 12:30:58 | 45.88697 | 16.88570 | 302° | 15km/h | 23917m | 4.9m/s | -51.9°C | 4.0% | 0hPa | 2.6V | 00:00:00 | 00:00:00 | 08:30:00 | |
| PG1ADW-2 | 2026-09-01 12:30:55 | 45.88695 | 16.88573 | 353° | 11km/h | 23904m | 5.8m/s | -51.8°C | 3.9% | 0hPa | 2.7V | 00:00:00 | 01:27:38 | 00:00:00 | |
| 9A1FER-3 | 2026-09-01 12:30:52 | 45.88694 | 16.88573 | 301° | 13km/h | 23885m | 5.3m/s | -51.9°C | 3.9% | 0hPa | 2.7V | 00:00:00 | 01:27:35 | 00:00:00 | |
| 9A1FER-10 | 2026-09-01 12:30:51 | 45.88693 | 16.88573 | 358° | 13km/h | 23878m | 7.3m/s | -52.0°C | 3.8% | 0hPa | 2.7V | 00:00:00 | 01:27:34 | 00:00:00 | |
| OE5DRO-10 | 2026-09-01 12:30:50 | 45.88690 | 16.88574 | 340° | 15km/h | 23866m | 5.2m/s | -52.0°C | 3.8% | 0hPa | 2.7V | 00:00:00 | 00:00:00 | 00:00:00 | |
| PETON7-10 | 2026-09-01 12:30:47 | 45.88685 | 16.88579 | 321° | 15km/h | 23854m | 4.7m/s | -52.0°C | 3.8% | 0hPa | 2.7V | 00:00:00 | 00:00:00 | 00:00:00 | |
| 9A1FER-15 | 2026-09-01 12:30:44 | 45.88673 | 16.88589 | 338° | 16km/h | 23835m | 5.6m/s | -52.0°C | 3.8% | 0hPa | 2.7V | 00:00:00 | 01:27:27 | 00:00:00 | |
| 9A1FER-3 | 2026-09-01 12:30:37 | 45.88655 | 16.88586 | 92° | 15km/h | 23790m | 6.4m/s | -52.3°C | 4.1% | 0hPa | 2.7V | 00:00:00 | 01:27:20 | 00:00:00 | |
| 9A1FER-10 | 2026-09-01 12:30:35 | 45.88653 | 16.88577 | 65° | 9km/h | 23780m | 6.3m/s | -52.3°C | 4.1% | 0hPa | 2.6V | 00:00:00 | 01:27:18 | 00:00:00 | |
| PETON7-10 | 2026-09-01 12:30:32 | 45.88643 | 16.88571 | 354° | 13km/h | 23763m | 7.5m/s | -52.5°C | 4.2% | 0hPa | 2.7V | 00:00:00 | 01:27:15 | 00:00:00 | |
| OE5DRO-10 | 2026-09-01 12:30:30 | 45.88631 | 16.88575 | 343° | 11km/h | 23749m | 7.2m/s | -52.3°C | 4.0% | 0hPa | 2.7V | 00:00:00 | 00:00:00 | 00:00:00 | |
| 9A1FER-15 | 2026-09-01 12:30:29 | 45.88625 | 16.88578 | 343° | 11km/h | 23743m | 5.8m/s | -52.4°C | 4.0% | 0hPa | 2.6V | 00:00:00 | 01:27:12 | 08:30:00 | |
| 9A1FER-3 | 2026-09-01 12:30:22 | 45.88608 | 16.88588 | 353° | 9km/h | 23702m | 4.8m/s | -51.8°C | 3.9% | 0hPa | 2.6V | 00:00:00 | 01:27:05 | 00:00:00 | |
| PETON7-10 | 2026-09-01 12:30:19 | 45.88601 | 16.88603 | 319° | 9km/h | 23673m | 6.4m/s | -51.7°C | 3.9% | 0hPa | 2.6V | 00:00:00 | 00:00:00 | 00:00:00 | |
| 9A1FER-10 | 2026-09-01 12:30:18 | 45.88598 | 16.88606 | 321° | 22km/h | 23667m | 5.3m/s | -51.7°C | 3.9% | 0hPa | 2.6V | 00:00:00 | 01:26:59 | 00:00:00 | |
| PG1ADW-2 | 2026-09-01 12:30:15 | 45.88596 | 16.88609 | 315° | 13km/h | 23660m | 7.3m/s | -51.7°C | 3.9% | 0hPa | 2.6V | 00:00:00 | 00:00:00 | 00:00:00 | |
| 9A1FER-15 | 2026-09-01 12:30:14 | 45.88595 | 16.88612 | 303° | 11km/h | 23653m | 6.2m/s | -51.7°C | 3.8% | 0hPa | 2.6V | 00:00:00 | 01:26:57 | 00:00:00 | |
| OE5DRO-10 | 2026-09-01 12:30:11 | 45.88592 | 16.88618 | 304° | 13km/h | 23634m | 5.5m/s | -51.8°C | 3.9% | 0hPa | 2.6V | 00:00:00 | 00:00:00 | 00:00:00 | |
| 9A1FER-3 | 2026-09-01 12:30:07 | 45.88594 | 16.88627 | 262° | 15km/h | 23611m | 6.0m/s | -51.6°C | 4.0% | 0hPa | 2.6V | 00:00:00 | 01:26:50 | 00:00:00 | |
| OE5DXL-15 | 2026-09-01 12:30:02 | 45.88589 | 16.88650 | 300° | 20km/h | 23581m | 5.6m/s | -51.7°C | 3.7% | 0hPa | 2.6V | 00:00:00 | 00:00:00 | 00:00:00 | |
| 9A1FER-15 | 2026-09-01 12:29:59 | 45.88580 | 16.88668 | 306° | 16km/h | 23565m | 5.0m/s | -51.6°C | 3.8% | 0hPa | 2.6V | 00:00:00 | 01:26:42 | 00:00:00 | |
| PG1ADW-2 | 2026-09-01 12:29:55 | 45.88579 | 16.88688 | 237° | 20km/h | 23540m | 7.7m/s | -51.6°C | 3.9% | 0hPa | 2.6V | 00:00:00 | 00:00:00 | 00:00:00 | |
| 9A1FER-3 | 2026-09-01 12:29:52 | 45.88586 | 16.88699 | 237° | 20km/h | 23522m | 7.2m/s | -51.7°C | 3.9% | 0hPa | 2.6V | 00:00:00 | 01:26:35 | 08:30:00 | |
| PETON7-10 | 2026-09-01 12:29:47 | 45.88590 | 16.88729 | 276° | 24km/h | 23492m | 6.0m/s | -51.7°C | 3.7% | 0hPa | 2.6V | 00:00:00 | 01:26:30 | 00:00:00 | |
| 9A1FER-15 | 2026-09-01 12:29:44 | 45.88588 | 16.88753 | 276° | 24km/h | 23474m | 6.4m/s | -51.6°C | 3.8% | 0hPa | 2.6V | 00:00:00 | 01:26:27 | 00:00:00 | |
| 9A1FER-3 | 2026-09-01 12:29:37 | 45.88607 | 16.88799 | 226° | 24km/h | 23434m | 4.6m/s | -51.8°C | 3.8% | 0hPa | 2.6V | 00:00:00 | 01:26:20 | 00:00:00 | |
| PG1ADW-2 | 2026-09-01 12:29:35 | 45.88614 | 16.88813 | 236° | 24km/h | 23422m | 6.0m/s | -51.9°C | 3.9% | 0hPa | 2.6V | 00:00:00 | 01:26:18 | 00:00:00 | |
| 9A1FER-15 | 2026-09-01 12:29:29 | 45.88627 | 16.88864 | 248° | 24km/h | 23385m | 5.1m/s | -52.4°C | 4.0% | 0hPa | 2.6V | 00:00:00 | 01:26:12 | 00:00:00 | |
| 9A1FER-3 | 2026-09-01 12:29:22 | 45.88663 | 16.88891 | 198° | 24km/h | 23342m | 5.1m/s | -52.3°C | 3.9% | 0hPa | 2.6V | 00:00:00 | 01:26:05 | 00:00:00 | |
| 9A1FER-10 | 2026-09-01 12:29:20 | 45.88675 | 16.88899 | 212° | 24km/h | 23330m | 6.5m/s | -52.4°C | 4.0% | 0hPa | 2.6V | 00:00:00 | 01:26:03 | 00:00:00 | |
| PETON7-10 | 2026-09-01 12:29:17 | 45.88690 | 16.88913 | 202° | 22km/h | 23312m | 5.3m/s | -52.2°C | 4.0% | 0hPa | 2.6V | 00:00:00 | 00:00:00 | 00:00:00 | |
| PG1ADW-2 | 2026-09-01 12:29:15 | 45.88701 | 16.88917 | 191° | 20km/h | 23301m | 6.4m/s | -52.3°C | 4.0% | 0hPa | 2.6V | 00:00:00 | 00:00:00 | 08:30:00 | |
| 9A1FER-15 | 2026-09-01 12:29:14 | 45.88706 | 16.88918 | 189° | 20km/h | 23295m | 4.6m/s | -52.3°C | 4.0% | 0hPa | 2.6V | 00:00:00 | 01:25:57 | 00:00:00 | |
| OE5DRO-10 | 2026-09-01 12:29:13 | 45.88712 | 16.88919 | 183° | 20km/h | 23290m | 5.4m/s | -52.2°C | 4.0% | 0hPa | 2.6V | 00:00:00 | 00:00:00 | 00:00:00 | |
| 9A1FER-3 | 2026-09-01 12:29:07 | 45.88747 | 16.88915 | 180° | 18km/h | 23255m | 6.6m/s | -52.1°C | 3.9% | 0hPa | 2.6V | 00:00:00 | 01:25:50 | 00:00:00 | |
| 9A1FER-10 | 2026-09-01 12:29:05 | 45.88756 | 16.88916 | 186° | 18km/h | 23243m | 6.1m/s | -52.1°C | 3.9% | 0hPa | 2.7V | 00:00:00 | 01:25:48 | 00:00:00 | |
| PETON7-10 | 2026-09-01 12:29:02 | 45.88771 | 16.88919 | 197° | 16km/h | 23225m | 7.0m/s | -51.9°C | 3.9% | 0hPa | 2.7V | 00:00:00 | 01:25:45 | 00:00:00 | |
| 9A1FER-15 | 2026-09-01 12:28:59 | 45.88784 | 16.88923 | 179° | 16km/h | 23207m | 6.6m/s | -51.8°C | 3.9% | 0hPa | 2.7V | 00:00:00 | 01:25:42 | 00:00:00 | |
| PG1ADW-2 | 2026-09-01 12:28:55 | 45.88800 | 16.88917 | 160° | 13km/h | 23185m | 4.3m/s | -52.0°C | 3.9% | 0hPa | 2.7V | 00:00:00 | 00:00:00 | 00:00:00 | |
| OE5DRO-10 | 2026-09-01 12:28:54 | 45.88805 | 16.88915 | 160° | 13km/h | 23179m | 6.2m/s | -52.0°C | 3.9% | 0hPa | 2.7V | 00:00:00 | 00:00:00 | 00:00:00 | |
| 9A1FER-3 | 2026-09-01 12:28:52 | 45.88814 | 16.88912 | 173° | 13km/h | 23168m | 4.5m/s | -51.9°C | 3.9% | 0hPa | 2.7V | 00:00:00 | 01:25:35 | 00:00:00 | |
| 9A1FER-10 | 2026-09-01 12:28:50 | 45.88824 | 16.88911 | 183° | 11km/h | 23157m | 5.4m/s | -52.0°C | 3.9% | 0hPa | 2.7V | 00:00:00 | 01:25:33 | 00:00:00 | |
| PETON7-10 | 2026-09-01 12:28:47 | 45.88834 | 16.88910 | 162° | 7km/h | 23140m | 5.6m/s | -52.0°C | 3.9% | 0hPa | 2.7V | 00:00:00 | 00:00:00 | 00:00:00 | |
| 9A1FER-15 | 2026-09-01 12:28:44 | 45.88844 | 16.88906 | 175° | 5km/h | 23122m | 5.3m/s | -51.9°C | 4.0% | 0hPa | 2.7V | 00:00:00 | 01:25:27 | 00:00:00 | |
| 9A1FER-3 | 2026-09-01 12:28:37 | 45.88858 | 16.88901 | 138° | 5km/h | 23083m | 6.7m/s | -51.8°C | 3.9% | 0hPa | 2.7V | 00:00:00 | 01:25:20 | 00:00:00 | |
| 9A1FER-10 | 2026-09-01 12:28:35 | 45.88859 | 16.88901 | 231° | 7km/h | 23071m | 7.3m/s | -51.8°C | 3.8% | 0hPa | 2.7V | 00:00:00 | 01:25:18 | 00:00:00 | |
| OE5DXL-15 | 2026-09-01 12:28:32 | 45.88860 | 16.88906 | 228° | 11km/h | 23052m | 6.3m/s | -51.7°C | 3.8% | 0hPa | 2.7V | 00:00:00 | 00:00:00 | 00:00:00 | |
| 9A1FER-15 | 2026-09-01 12:28:29 | 45.88862 | 16.88909 | 322° | 9km/h | 23034m | 5.2m/s | -51.7°C | 4.0% | 0hPa | 2.7V | 00:00:00 | 01:25:12 | 00:00:00 | |
| 9A1FER-3 | 2026-09-01 12:28:22 | 45.88852 | 16.88893 | 33° | 13km/h | 22992m | 5.4m/s | -51.7°C | 3.7% | 0hPa | 2.7V | 00:00:00 | 01:25:05 | 00:00:00 | |
| 9A1FER-10 | 2026-09-01 12:28:20 | 45.88848 | 16.88892 | 349° | 15km/h | 22980m | 7.1m/s | -51.8°C | 3.8% | 0hPa | 2.6V | 00:00:00 | 01:25:03 | 08:30:00 | |
| PETON7-10 | 2026-09-01 12:28:17 | 45.88841 | 16.88895 | 345° | 13km/h | 22962m | 5.2m/s | -52.0°C | 3.9% | 0hPa | 2.7V | 00:00:00 | 01:25:00 | 00:00:00 | |
| OE5DRO-10 | 2026-09-01 12:28:16 | 45.88839 | 16.88896 | 350° | 13km/h | 22957m | 4.8m/s | -52.0°C | 4.0% | 0hPa | 2.7V | 00:00:00 | 00:00:00 | 00:00:00 | |
| PG1ADW-2 | 2026-09-01 12:28:15 | 45.88837 | 16.88897 | 351° | 13km/h | 22951m | 7.0m/s | -52.0°C | 4.0% | 0hPa | 2.7V | 00:00:00 | 01:24:58 | 00:00:00 | |
| 9A1FER-15 | 2026-09-01 12:28:14 | 45.88834 | 16.88897 | 1° | 15km/h | 22945m | 4.8m/s | -52.0°C | 4.0% | 0hPa | 2.7V | 00:00:00 | 01:24:57 | 08:30:00 | |
| 9A1FER-3 | 2026-09-01 12:28:07 | 45.88808 | 16.88885 | 357° | 11km/h | 22907m | 6.4m/s | -52.1°C | 4.0% | 0hPa | 2.7V | 00:00:00 | 01:24:50 | 00:00:00 | |
| PETON7-10 | 2026-09-01 12:28:02 | 45.88792 | 16.88885 | 15° | 11km/h | 22878m | 6.5m/s | -51.9°C | 3.8% | 0hPa | 2.7V | 00:00:00 | 00:00:00 | 00:00:00 | |
| 9A1FER-15 | 2026-09-01 12:27:59 | 45.88784 | 16.88881 | 20° | 11km/h | 22860m | 6.7m/s | -51.9°C | 3.8% | 0hPa | 2.7V | 00:00:00 | 01:24:42 | 00:00:00 | |
| OE5DRO-10 | 2026-09-01 12:27:57 | 45.88779 | 16.88880 | 346° | 11km/h | 22849m | 4.9m/s | -51.8°C | 3.9% | 0hPa | 2.7V | 00:00:00 | 00:00:00 | 00:00:00 | |
| PG1ADW-2 | 2026-09-01 12:27:55 | 45.88775 | 16.88884 | 300° | 11km/h | 22837m | 6.3m/s | -51.7°C | 4.0% | 0hPa | 2.7V | 00:00:00 | 00:00:00 | 00:00:00 | |
| 9A1FER-3 | 2026-09-01 12:27:52 | 45.88771 | 16.88895 | 315° | 11km/h | 22820m | 5.1m/s | -51.6°C | 3.9% | 0hPa | 2.7V | 00:00:00 | 01:24:35 | 00:00:00 | |
| OE3JTB-15 | 2026-09-01 12:27:50 | 45.88764 | 16.88901 | 340° | 9km/h | 22804m | 5.8m/s | -51.9°C | 3.9% | 0hPa | 2.7V | 00:00:00 | 00:00:00 | 00:00:00 | |
| 9A1FER-10 | 2026-09-01 12:27:47 | 45.88759 | 16.88903 | 351° | 11km/h | 22792m | 6.9m/s | -51.9°C | 3.8% | 0hPa | 2.7V | 00:00:00 | 01:24:30 | 00:00:00 | |
| 9A1FER-15 | 2026-09-01 12:27:44 | 45.88749 | 16.88905 | 354° | 9km/h | 22775m | 6.7m/s | -52.0°C | 3.8% | 0hPa | 2.7V | 00:00:00 | 01:24:27 | 00:00:00 | |
| OE5DRO-10 | 2026-09-01 12:27:38 | 45.88742 | 16.88919 | 265° | 9km/h | 22741m | 7.1m/s | -51.9°C | 3.9% | 0hPa | 2.7V | 00:00:00 | 00:00:00 | 00:00:00 | |
| 9A1FER-3 | 2026-09-01 12:27:37 | 45.88742 | 16.88922 | 247° | 9km/h | 22735m | 5.6m/s | -51.9°C | 3.9% | 0hPa | 2.7V | 00:00:00 | 01:24:20 | 08:30:00 | |
| PG1ADW-2 | 2026-09-01 12:27:35 | 45.88743 | 16.88928 | 258° | 9km/h | 22723m | 7.1m/s | -51.8°C | 3.9% | 0hPa | 2.7V | 00:00:00 | 00:00:00 | 00:00:00 | |
| OE5DXL-15 | 2026-09-01 12:27:32 | 45.88745 | 16.88937 | 227° | 11km/h | 22704m | 6.2m/s | -52.0°C | 3.9% | 0hPa | 2.7V | 00:00:00 | 00:00:00 | 00:00:00 | |
| 9A1FER-15 | 2026-09-01 12:27:29 | 45.88750 | 16.88942 | 223° | 11km/h | 22686m | 5.6m/s | -52.1°C | 3.9% | 0hPa | 2.6V | 00:00:00 | 01:24:12 | 00:00:00 | |
| 9A1FER-3 | 2026-09-01 12:27:22 | 45.88769 | 16.88948 | 187° | 13km/h | 22644m | 6.3m/s | -51.9°C | 3.9% | 0hPa | 2.6V | 00:00:00 | 01:24:05 | 00:00:00 | |
| OE5DRO-10 | 2026-09-01 12:27:19 | 45.88775 | 16.88947 | 183° | 11km/h | 22626m | 7.4m/s | -52.0°C | 3.9% | 0hPa | 2.6V | 00:00:00 | 00:00:00 | 00:00:00 | |
| 9A1FER-10 | 2026-09-01 12:27:18 | 45.88779 | 16.88950 | 213° | 11km/h | 22613m | 5.7m/s | -52.1°C | 3.8% | 0hPa | 2.6V | 00:00:00 | 01:24:00 | 00:00:00 | |
| PETON7-10 | 2026-09-01 12:27:16 | 45.88781 | 16.88951 | 198° | 11km/h | 22606m | 8.1m/s | -52.1°C | 3.8% | 0hPa | 2.6V | 00:00:00 | 00:00:00 | 08:30:00 | |
| PG1ADW-2 | 2026-09-01 12:27:15 | 45.88784 | 16.88952 | 189° | 11km/h | 22599m | 5.3m/s | -52.2°C | 3.8% | 0hPa | 2.6V | 00:00:00 | 00:00:00 | 00:00:00 | |
| 9A1FER-15 | 2026-09-01 12:27:14 | 45.88788 | 16.88953 | 191° | 11km/h | 22594m | 5.8m/s | -52.3°C | 3.9% | 0hPa | 2.7V | 00:00:00 | 01:23:57 | 00:00:00 | |
| 9A1FER-3 | 2026-09-01 12:27:07 | 45.88815 | 16.88950 | 154° | 7km/h | 22551m | 6.6m/s | -52.2°C | 3.9% | 0hPa | 2.7V | 00:00:00 | 01:23:50 | 00:00:00 | |
| 9A1FER-10 | 2026-09-01 12:27:02 | 45.88812 | 16.88946 | 354° | 7km/h | 22519m | 4.9m/s | -52.3°C | 3.8% | 0hPa | 2.7V | 00:00:00 | 01:23:45 | 00:00:00 | |
| PETON7-10 | 2026-09-01 12:27:01 | 45.88812 | 16.88946 | 36° | 7km/h | 22514m | 5.9m/s | -52.4°C | 3.9% | 0hPa | 2.7V | 00:00:00 | 00:00:00 | 00:00:00 | |
| OE5DRO-10 | 2026-09-01 12:27:00 | 45.88811 | 16.88944 | 85° | 9km/h | 22507m | 7.3m/s | -52.5°C | 3.9% | 0hPa | 2.7V | 00:00:00 | 00:00:00 | 00:00:00 | |
| 9A1FER-15 | 2026-09-01 12:26:59 | 45.88812 | 16.88942 | 101° | 9km/h | 22501m | 5.9m/s | -52.5°C | 3.9% | 0hPa | 2.7V | 00:00:00 | 01:23:42 | 00:00:00 | |
| PG1ADW-2 | 2026-09-01 12:26:55 | 45.88815 | 16.88929 | 103° | 9km/h | 22475m | 6.3m/s | -52.7°C | 4.0% | 0hPa | 2.7V | 00:00:00 | 01:23:38 | 00:00:00 | |
| 9A1FER-3 | 2026-09-01 12:26:52 | 45.88814 | 16.88918 | 46° | 9km/h | 22456m | 5.8m/s | -52.9°C | 4.0% | 0hPa | 2.7V | 00:00:00 | 01:23:35 | 00:00:00 | |
| 9A1FER-10 | 2026-09-01 12:26:47 | 45.88806 | 16.88913 | 12° | 11km/h | 22427m | 6.1m/s | -52.9°C | 4.1% | 0hPa | 2.7V | 00:00:00 | 01:23:30 | 00:00:00 | |
| PETON7-10 | 2026-09-01 12:26:46 | 45.88805 | 16.88912 | 34° | 11km/h | 22421m | 5.0m/s | -52.9°C | 4.1% | 0hPa | 2.6V | 00:00:00 | 01:23:29 | 00:00:00 | |
| 9A1FER-15 | 2026-09-01 12:26:44 | 45.88802 | 16.88908 | 69° | 13km/h | 22409m | 4.9m/s | -52.9°C | 4.1% | 0hPa | 2.6V | 00:00:00 | 01:23:27 | 00:00:00 | |
| OE5DRO-10 | 2026-09-01 12:26:41 | 45.88801 | 16.88897 | 73° | 13km/h | 22391m | 5.5m/s | -53.0°C | 4.1% | 0hPa | 2.7V | 00:00:00 | 00:00:00 | 08:30:00 | |
| 9A1FER-3 | 2026-09-01 12:26:37 | 45.88796 | 16.88879 | 79° | 13km/h | 22365m | 7.3m/s | -53.0°C | 3.9% | 0hPa | 2.6V | 00:00:00 | 01:23:20 | 00:00:00 | |
| PG1ADW-2 | 2026-09-01 12:26:35 | 45.88795 | 16.88869 | 85° | 15km/h | 22354m | 5.7m/s | -53.0°C | 4.0% | 0hPa | 2.6V | 00:00:00 | 00:00:00 | 00:00:00 | |
| PETON7-10 | 2026-09-01 12:26:31 | 45.88793 | 16.88851 | 84° | 15km/h | 22329m | 6.1m/s | -53.1°C | 4.2% | 0hPa | 2.6V | 00:00:00 | 00:00:00 | 00:00:00 | |
| 9A1FER-15 | 2026-09-01 12:26:29 | 45.88792 | 16.88843 | 81° | 15km/h | 22318m | 7.0m/s | -53.1°C | 4.2% | 0hPa | 2.6V | 00:00:00 | 01:23:12 | 00:00:00 | |
| 9A1FER-3 | 2026-09-01 12:26:23 | 45.88780 | 16.88810 | 41° | 13km/h | 22274m | 5.3m/s | -53.2°C | 4.1% | 0hPa | 2.6V | 00:00:00 | 01:23:05 | 00:00:00 | |
| OE5DRO-10 | 2026-09-01 12:26:22 | 45.88780 | 16.88810 | 41° | 13km/h | 22274m | 5.3m/s | -53.2°C | 4.1% | 0hPa | 2.6V | 00:00:00 | 00:00:00 | 00:00:00 | |
| 9A1FER-10 | 2026-09-01 12:26:17 | 45.88761 | 16.88795 | 29° | 11km/h | 22245m | 3.9m/s | -53.1°C | 4.2% | 0hPa | 2.6V | 00:00:00 | 01:23:00 | 00:00:00 | |
| PETON7-10 | 2026-09-01 12:26:16 | 45.88758 | 16.88793 | 23° | 11km/h | 22239m | 6.6m/s | -53.1°C | 4.2% | 0hPa | 2.6V | 00:00:00 | 00:00:00 | 00:00:00 | |
| PG1ADW-2 | 2026-09-01 12:26:15 | 45.88756 | 16.88792 | 10° | 13km/h | 22233m | 6.7m/s | -53.1°C | 4.2% | 0hPa | 2.6V | 00:00:00 | 00:00:00 | 08:30:00 | |
| 9A1FER-15 | 2026-09-01 12:26:14 | 45.88755 | 16.88792 | 11° | 13km/h | 22227m | 5.2m/s | -53.1°C | 4.2% | 0hPa | 2.6V | 00:00:00 | 01:22:57 | 00:00:00 | |
| 9A1FER-3 | 2026-09-01 12:26:07 | 45.88747 | 16.88769 | 67° | 16km/h | 22182m | 5.3m/s | -52.9°C | 4.0% | 0hPa | 2.6V | 00:00:00 | 01:22:50 | 00:00:00 | |
| 9A1FER-10 | 2026-09-01 12:26:03 | 45.88735 | 16.88749 | 36° | 18km/h | 22152m | 5.4m/s | -52.7°C | 4.0% | 0hPa | 2.7V | 00:00:00 | 01:22:45 | 08:30:00 | |
| PETON7-10 | 2026-09-01 12:26:01 | 45.88732 | 16.88745 | 35° | 18km/h | 22146m | 5.6m/s | -52.7°C | 4.0% | 0hPa | 2.6V | 00:00:00 | 01:22:44 | 00:00:00 | |
| 9A1FER-15 | 2026-09-01 12:25:59 | 45.88726 | 16.88740 | 43° | 18km/h | 22135m | 4.0m/s | -52.7°C | 4.0% | 0hPa | 2.6V | 00:00:00 | 01:22:42 | 08:30:00 | |
| PG1ADW-2 | 2026-09-01 12:25:55 | 45.88716 | 16.88723 | 46° | 20km/h | 22111m | 7.0m/s | -52.9°C | 4.0% | 0hPa | 2.6V | 00:00:00 | 00:00:00 | 00:00:00 | |
| 9A1FER-3 | 2026-09-01 12:25:52 | 45.88704 | 16.88710 | 35° | 20km/h | 22092m | 5.9m/s | -52.9°C | 4.0% | 0hPa | 2.6V | 00:00:00 | 01:22:35 | 00:00:00 | |
| 9A1FER-10 | 2026-09-01 12:25:47 | 45.88680 | 16.88689 | 33° | 18km/h | 22062m | 5.7m/s | -53.1°C | 4.0% | 0hPa | 2.6V | 00:00:00 | 01:22:30 | 00:00:00 | |
| PETON7-10 | 2026-09-01 12:25:46 | 45.88676 | 16.88685 | 38° | 18km/h | 22057m | 4.0m/s | -53.1°C | 3.9% | 0hPa | 2.6V | 00:00:00 | 00:00:00 | 00:00:00 | |
| OE5DRO-10 | 2026-09-01 12:25:44 | 45.88669 | 16.88675 | 56° | 16km/h | 22046m | 6.7m/s | -53.3°C | 4.0% | 0hPa | 2.7V | 00:00:00 | 00:00:00 | 00:00:00 | |
| 9A1FER-3 | 2026-09-01 12:25:37 | 45.88649 | 16.88642 | 23° | 15km/h | 22004m | 5.5m/s | -53.7°C | 4.2% | 0hPa | 2.6V | 00:00:00 | 01:22:20 | 00:00:00 | |
| PG1ADW-2 | 2026-09-01 12:25:35 | 45.88639 | 16.88638 | 12° | 15km/h | 21992m | 5.1m/s | -53.6°C | 4.2% | 0hPa | 2.6V | 00:00:00 | 01:22:18 | 00:00:00 | |
| 9A1FER-10 | 2026-09-01 12:25:32 | 45.88626 | 16.88634 | 20° | 15km/h | 21974m | 4.5m/s | -53.7°C | 4.2% | 0hPa | 2.6V | 00:00:00 | 01:22:15 | 00:00:00 | |
| PETON7-10 | 2026-09-01 12:25:31 | 45.88623 | 16.88632 | 41° | 15km/h | 21969m | 6.9m/s | -53.7°C | 4.2% | 0hPa | 2.6V | 00:00:00 | 00:00:00 | 00:00:00 | |
| 9A1FER-15 | 2026-09-01 12:25:29 | 45.88621 | 16.88625 | 92° | 15km/h | 21956m | 6.3m/s | -53.8°C | 4.1% | 0hPa | 2.6V | 00:00:00 | 01:22:12 | 00:00:00 | |
| OE5DRO-10 | 2026-09-01 12:25:26 | 45.88627 | 16.88604 | 97° | 11km/h | 21931m | 5.1m/s | -54.0°C | 4.2% | 0hPa | 2.6V | 00:00:00 | 00:00:00 | 00:00:00 | |
| 9A1FER-3 | 2026-09-01 12:25:22 | 45.88624 | 16.88595 | 13° | 11km/h | 21914m | 4.7m/s | -54.1°C | 4.2% | 0hPa | 2.6V | 00:00:00 | 01:22:05 | 08:30:00 | |
| 9A1FER-10 | 2026-09-01 12:25:17 | 45.88601 | 16.88590 | 12° | 11km/h | 21886m | 6.3m/s | -54.0°C | 4.3% | 0hPa | 2.6V | 00:00:00 | 01:22:00 | 00:00:00 | |
| PETON7-10 | 2026-09-01 12:25:16 | 45.88598 | 16.88589 | 27° | 11km/h | 21880m | 5.4m/s | -54.0°C | 4.4% | 0hPa | 2.6V | 00:00:00 | 01:21:59 | 00:00:00 | |
| PG1ADW-2 | 2026-09-01 12:25:15 | 45.88596 | 16.88587 | 44° | 9km/h | 21873m | 6.8m/s | -54.0°C | 4.4% | 0hPa | 2.6V | 00:00:00 | 00:00:00 | 00:00:00 | |
| 9A1FER-15 | 2026-09-01 12:25:14 | 45.88595 | 16.88585 | 62° | 9km/h | 21867m | 5.2m/s | -54.0°C | 4.3% | 0hPa | 2.7V | 00:00:00 | 01:21:57 | 00:00:00 | |
| 9A1FER-3 | 2026-09-01 12:25:08 | 45.88586 | 16.88573 | 22° | 11km/h | 21827m | 6.3m/s | -54.3°C | 4.2% | 0hPa | 2.6V | 00:00:00 | 01:21:50 | 00:00:00 | |
| OE5DRO-10 | 2026-09-01 12:25:06 | 45.88582 | 16.88571 | 22° | 11km/h | 21821m | 5.3m/s | -54.3°C | 4.2% | 0hPa | 2.6V | 00:00:00 | 00:00:00 | 00:00:00 | |
| OE5DXL-15 | 2026-09-01 12:25:02 | 45.88569 | 16.88559 | 45° | 13km/h | 21797m | 7.0m/s | -54.1°C | 4.3% | 0hPa | 2.6V | 00:00:00 | 00:00:00 | 00:00:00 | |
| PETON7-10 | 2026-09-01 12:25:01 | 45.88568 | 16.88556 | 71° | 11km/h | 21792m | 4.8m/s | -53.9°C | 4.3% | 0hPa | 2.6V | 00:00:00 | 00:00:00 | 08:30:00 | |
| 9A1FER-15 | 2026-09-01 12:24:59 | 45.88569 | 16.88552 | 128° | 11km/h | 21780m | 6.3m/s | -53.9°C | 4.3% | 0hPa | 2.6V | 00:00:00 | 01:21:42 | 00:00:00 | |
| PG1ADW-2 | 2026-09-01 12:24:55 | 45.88577 | 16.88544 | 147° | 13km/h | 21757m | 5.3m/s | -54.1°C | 4.2% | 0hPa | 2.6V | 00:00:00 | 00:00:00 | 00:00:00 | |
| 9A1FER-3 | 2026-09-01 12:24:52 | 45.88578 | 16.88535 | 67° | 15km/h | 21739m | 6.5m/s | -54.2°C | 4.1% | 0hPa | 2.6V | 00:00:00 | 01:21:35 | 00:00:00 | |
| 9A1FER-10 | 2026-09-01 12:24:47 | 45.88571 | 16.88513 | 77° | 16km/h | 21709m | 7.0m/s | -54.3°C | 4.3% | 0hPa | 2.6V | 00:00:00 | 01:21:30 | 00:00:00 | |
| PETON7-10 | 2026-09-01 12:24:46 | 45.88570 | 16.88508 | 92° | 16km/h | 21703m | 5.4m/s | -54.3°C | 4.4% | 0hPa | 2.6V | 00:00:00 | 00:00:00 | 00:00:00 | |
| 9A1FER-15 | 2026-09-01 12:24:44 | 45.88572 | 16.88499 | 111° | 16km/h | 21691m | 6.7m/s | -54.4°C | 4.4% | 0hPa | 2.6V | 00:00:00 | 01:21:27 | 00:00:00 | |
| 9A1FER-3 | 2026-09-01 12:24:37 | 45.88572 | 16.88464 | 58° | 18km/h | 21651m | 6.8m/s | -54.5°C | 4.3% | 0hPa | 2.6V | 00:00:00 | 01:21:20 | 00:00:00 | |
| PG1ADW-2 | 2026-09-01 12:24:35 | 45.88567 | 16.88452 | 62° | 22km/h | 21639m | 7.1m/s | -54.5°C | 4.3% | 0hPa | 2.6V | 00:00:00 | 00:00:00 | 00:00:00 | |
| 9A1FER-10 | 2026-09-01 12:24:32 | 45.88564 | 16.88432 | 88° | 20km/h | 21622m | 5.6m/s | -54.4°C | 4.3% | 0hPa | 2.6V | 00:00:00 | 01:21:15 | 00:00:00 | |
| PETON7-10 | 2026-09-01 12:24:31 | 45.88564 | 16.88426 | 97° | 20km/h | 21616m | 5.4m/s | -54.4°C | 4.3% | 0hPa | 2.7V | 00:00:00 | 01:21:14 | 00:00:00 | |
| 9A1FER-15 | 2026-09-01 12:24:29 | 45.88564 | 16.88413 | 93° | 22km/h | 21604m | 4.9m/s | -54.4°C | 4.3% | 0hPa | 2.7V | 00:00:00 | 01:21:12 | 00:00:00 | |
| OE5DRO-10 | 2026-09-01 12:24:24 | 45.88561 | 16.88379 | 76° | 26km/h | 21577m | 5.0m/s | -54.5°C | 4.2% | 0hPa | 2.7V | 00:00:00 | 00:00:00 | 00:00:00 | |
| 9A1FER-3 | 2026-09-01 12:24:22 | 45.88558 | 16.88364 | 77° | 26km/h | 21565m | 6.4m/s | -54.5°C | 4.2% | 0hPa | 2.7V | 00:00:00 | 01:21:05 | 00:00:00 | |
| 9A1FER-10 | 2026-09-01 12:24:17 | 45.88551 | 16.88320 | 77° | 27km/h | 21536m | 5.6m/s | -54.7°C | 4.3% | 0hPa | 2.7V | 00:00:00 | 01:21:00 | 00:00:00 | |
| PETON7-10 | 2026-09-01 12:24:16 | 45.88549 | 16.88312 | 77° | 26km/h | 21530m | 6.0m/s | -54.8°C | 4.4% | 0hPa | 2.7V | 00:00:00 | 00:00:00 | 00:00:00 | |
| PG1ADW-2 | 2026-09-01 12:24:15 | 45.88548 | 16.88302 | 76° | 26km/h | 21523m | 6.9m/s | -54.7°C | 4.4% | 0hPa | 2.7V | 00:00:00 | 01:20:58 | 00:00:00 | |
| 9A1FER-15 | 2026-09-01 12:24:14 | 45.88546 | 16.88292 | 75° | 26km/h | 21518m | 4.4m/s | -54.7°C | 4.4% | 0hPa | 2.7V | 00:00:00 | 01:20:57 | 00:00:00 | |
| 9A1FER-3 | 2026-09-01 12:24:07 | 45.88533 | 16.88227 | 67° | 22km/h | 21480m | 5.2m/s | -55.0°C | 4.6% | 0hPa | 2.7V | 00:00:00 | 01:20:50 | 00:00:00 | |
| OE5DRO-10 | 2026-09-01 12:24:04 | 45.88521 | 16.88203 | 46° | 20km/h | 21462m | 5.3m/s | -55.1°C | 4.6% | 0hPa | 2.7V | 00:00:00 | 00:00:00 | 00:00:00 | |
| OE5DXL-15 | 2026-09-01 12:24:02 | 45.88512 | 16.88190 | 47° | 16km/h | 21450m | 4.8m/s | -55.1°C | 4.5% | 0hPa | 2.7V | 00:00:00 | 00:00:00 | 00:00:00 | |
| PETON7-10 | 2026-09-01 12:24:01 | 45.88508 | 16.88184 | 49° | 18km/h | 21445m | 6.6m/s | -55.1°C | 4.5% | 0hPa | 2.7V | 00:00:00 | 00:00:00 | 00:00:00 | |
| 9A1FER-15 | 2026-09-01 12:23:59 | 45.88501 | 16.88169 | 59° | 18km/h | 21434m | 5.0m/s | -55.0°C | 4.5% | 0hPa | 2.7V | 00:00:00 | 01:20:42 | 00:00:00 | |
| PG1ADW-2 | 2026-09-01 12:23:55 | 45.88492 | 16.88145 | 59° | 15km/h | 21411m | 5.1m/s | -54.8°C | 4.4% | 0hPa | 2.7V | 00:00:00 | 00:00:00 | 00:00:00 | |
| 9A1FER-3 | 2026-09-01 12:23:52 | 45.88484 | 16.88131 | 44° | 16km/h | 21394m | 5.4m/s | -54.8°C | 4.4% | 0hPa | 2.7V | 00:00:00 | 01:20:35 | 00:00:00 | |
| PETON7-10 | 2026-09-01 12:23:46 | 45.88463 | 16.88108 | 57° | 15km/h | 21361m | 4.8m/s | -54.6°C | 4.4% | 0hPa | 2.7V | 00:00:00 | 01:20:29 | 00:00:00 | |
| OE5DRO-10 | 2026-09-01 12:23:45 | 45.88461 | 16.88103 | 70° | 16km/h | 21356m | 6.3m/s | -54.6°C | 4.4% | 0hPa | 2.7V | 00:00:00 | 00:00:00 | 08:30:00 | |
| 9A1FER-15 | 2026-09-01 12:23:44 | 45.88460 | 16.88097 | 79° | 16km/h | 21350m | 5.4m/s | -54.7°C | 4.4% | 0hPa | 2.7V | 00:00:00 | 01:20:27 | 08:30:00 | |
| 9A1FER-3 | 2026-09-01 12:23:37 | 45.88454 | 16.88066 | 25° | 18km/h | 21309m | 7.6m/s | -54.7°C | 4.4% | 0hPa | 2.7V | 00:00:00 | 01:20:20 | 00:00:00 | |
| PG1ADW-2 | 2026-09-01 12:23:35 | 45.88448 | 16.88063 | 23° | 20km/h | 21298m | 6.7m/s | -54.6°C | 4.4% | 0hPa | 2.7V | 00:00:00 | 00:00:00 | 00:00:00 | |
| OE5DXL-15 | 2026-09-01 12:23:32 | 45.88438 | 16.88051 | 46° | 18km/h | 21281m | 5.4m/s | -54.7°C | 4.5% | 0hPa | 2.7V | 00:00:00 | 00:00:00 | 00:00:00 | |
| PETON7-10 | 2026-09-01 12:23:31 | 45.88434 | 16.88046 | 54° | 20km/h | 21276m | 5.3m/s | -54.6°C | 4.6% | 0hPa | 2.7V | 00:00:00 | 00:00:00 | 00:00:00 | |
| 9A1FER-15 | 2026-09-01 12:23:29 | 45.88428 | 16.88031 | 64° | 20km/h | 21265m | 4.3m/s | -54.5°C | 4.5% | 0hPa | 2.6V | 00:00:00 | 01:20:12 | 00:00:00 | |
| OE5DRO-10 | 2026-09-01 12:23:26 | 45.88421 | 16.88012 | 56° | 18km/h | 21249m | 4.7m/s | -54.6°C | 4.5% | 0hPa | 2.6V | 00:00:00 | 00:00:00 | 00:00:00 | |
| 9A1FER-3 | 2026-09-01 12:23:22 | 45.88406 | 16.87996 | 22° | 18km/h | 21227m | 6.3m/s | -54.3°C | 4.4% | 0hPa | 2.6V | 00:00:00 | 01:20:05 | 00:00:00 | |
| PETON7-10 | 2026-09-01 12:23:16 | 45.88383 | 16.87969 | 68° | 16km/h | 21195m | 5.7m/s | -54.2°C | 4.2% | 0hPa | 2.6V | 00:00:00 | 00:00:00 | 00:00:00 | |
| 9A1FER-10 | 2026-09-01 12:23:15 | 45.88382 | 16.87962 | 76° | 16km/h | 21189m | 5.1m/s | -54.1°C | 4.3% | 0hPa | 2.6V | 00:00:00 | 01:19:58 | 08:30:00 | |
| 9A1FER-3 | 2026-09-01 12:23:07 | 45.88362 | 16.87933 | 27° | 15km/h | 21145m | 5.9m/s | -54.0°C | 4.1% | 0hPa | 2.7V | 00:00:00 | 01:19:50 | 08:30:00 | |
| OE5DXL-15 | 2026-09-01 12:23:02 | 45.88346 | 16.87914 | 43° | 18km/h | 21118m | 6.1m/s | -54.2°C | 4.2% | 0hPa | 2.7V | 00:00:00 | 00:00:00 | 00:00:00 | |
| PETON7-10 | 2026-09-01 12:23:01 | 45.88343 | 16.87911 | 32° | 15km/h | 21112m | 5.7m/s | -54.2°C | 4.2% | 0hPa | 2.6V | 00:00:00 | 01:19:44 | 00:00:00 | |
| 9A1FER-15 | 2026-09-01 12:22:59 | 45.88337 | 16.87908 | 12° | 16km/h | 21103m | 5.2m/s | -54.2°C | 4.3% | 0hPa | 2.6V | 00:00:00 | 01:19:42 | 00:00:00 | |
| PG1ADW-2 | 2026-09-01 12:22:55 | 45.88324 | 16.87905 | 5° | 18km/h | 21080m | 5.1m/s | -54.3°C | 4.2% | 0hPa | 2.7V | 00:00:00 | 01:19:38 | 00:00:00 | |
| 9A1FER-10 | 2026-09-01 12:22:54 | 45.88321 | 16.87904 | 14° | 18km/h | 21074m | 5.6m/s | -54.4°C | 4.2% | 0hPa | 2.7V | 00:00:00 | 01:19:37 | 00:00:00 | |
| 9A1FER-3 | 2026-09-01 12:22:52 | 45.88314 | 16.87900 | 31° | 20km/h | 21063m | 4.7m/s | -54.4°C | 4.2% | 0hPa | 2.7V | 00:00:00 | 01:19:35 | 00:00:00 | |
| OE5DRO-10 | 2026-09-01 12:22:48 | 45.88299 | 16.87892 | 6° | 20km/h | 21041m | 6.0m/s | -55.0°C | 4.4% | 0hPa | 2.7V | 00:00:00 | 00:00:00 | 00:00:00 | |
| PETON7-10 | 2026-09-01 12:22:46 | 45.88286 | 16.87892 | 352° | 20km/h | 21029m | 6.6m/s | -55.1°C | 4.4% | 0hPa | 2.7V | 00:00:00 | 00:00:00 | 08:30:00 | |
| 9A1FER-15 | 2026-09-01 12:22:44 | 45.88274 | 16.87896 | 349° | 20km/h | 21019m | 4.6m/s | -55.1°C | 4.5% | 0hPa | 2.6V | 00:00:00 | 01:19:27 | 00:00:00 | |
| 9A1FER-10 | 2026-09-01 12:22:39 | 45.88248 | 16.87893 | 15° | 16km/h | 20991m | 5.3m/s | -54.8°C | 4.4% | 0hPa | 2.6V | 00:00:00 | 01:19:22 | 00:00:00 | |
| 9A1FER-3 | 2026-09-01 12:22:37 | 45.88240 | 16.87891 | 12° | 15km/h | 20979m | 4.7m/s | -55.0°C | 4.3% | 0hPa | 2.6V | 00:00:00 | 01:19:20 | 00:00:00 | |
| PG1ADW-2 | 2026-09-01 12:22:35 | 45.88232 | 16.87890 | 350° | 16km/h | 20968m | 6.3m/s | -54.9°C | 4.3% | 0hPa | 2.6V | 00:00:00 | 00:00:00 | 00:00:00 | |
| OE5DXL-15 | 2026-09-01 12:22:33 | 45.88218 | 16.87894 | 356° | 18km/h | 20951m | 5.4m/s | -54.9°C | 4.2% | 0hPa | 2.6V | 00:00:00 | 00:00:00 | 00:00:00 | |
| PETON7-10 | 2026-09-01 12:22:32 | 45.88213 | 16.87895 | 1° | 15km/h | 20946m | 5.0m/s | -55.0°C | 4.3% | 0hPa | 2.6V | 00:00:00 | 00:00:00 | 00:00:00 | |
| 9A1FER-15 | 2026-09-01 12:22:30 | 45.88203 | 16.87895 | 3° | 15km/h | 20934m | 5.3m/s | -55.1°C | 4.4% | 0hPa | 2.6V | 00:00:00 | 01:19:12 | 00:00:00 | |
| OE5DRO-10 | 2026-09-01 12:22:29 | 45.88203 | 16.87895 | 3° | 18km/h | 20934m | 5.3m/s | -55.1°C | 4.4% | 0hPa | 2.6V | 00:00:00 | 00:00:00 | 00:00:00 | |
| 9A1FER-10 | 2026-09-01 12:22:24 | 45.88189 | 16.87885 | 36° | 18km/h | 20907m | 5.4m/s | -55.5°C | 4.6% | 0hPa | 2.6V | 00:00:00 | 01:19:07 | 00:00:00 | |
| 9A1FER-3 | 2026-09-01 12:22:22 | 45.88185 | 16.87881 | 39° | 20km/h | 20896m | 6.4m/s | -55.7°C | 4.6% | 0hPa | 2.7V | 00:00:00 | 01:19:05 | 00:00:00 | |
| PETON7-10 | 2026-09-01 12:22:16 | 45.88163 | 16.87860 | 48° | 22km/h | 20861m | 4.8m/s | -55.5°C | 4.5% | 0hPa | 2.6V | 00:00:00 | 01:18:59 | 00:00:00 | |
| PG1ADW-2 | 2026-09-01 12:22:15 | 45.88159 | 16.87853 | 52° | 22km/h | 20855m | 6.4m/s | -55.4°C | 4.4% | 0hPa | 2.6V | 00:00:00 | 00:00:00 | 00:00:00 | |
| 9A1FER-15 | 2026-09-01 12:22:14 | 45.88156 | 16.87846 | 61° | 22km/h | 20850m | 5.0m/s | -55.5°C | 4.4% | 0hPa | 2.6V | 00:00:00 | 01:18:57 | 00:00:00 | |
| OE5DRO-10 | 2026-09-01 12:22:11 | 45.88148 | 16.87812 | 75° | 22km/h | 20827m | 6.5m/s | -55.6°C | 4.4% | 0hPa | 2.6V | 00:00:00 | 00:00:00 | 00:00:00 | |
| 9A1FER-3 | 2026-09-01 12:22:07 | 45.88143 | 16.87792 | 71° | 22km/h | 20810m | 5.3m/s | -55.8°C | 4.6% | 0hPa | 2.6V | 00:00:00 | 01:18:50 | 00:00:00 | |
| OE5DXL-15 | 2026-09-01 12:22:02 | 45.88130 | 16.87766 | 48° | 18km/h | 20783m | 6.6m/s | -56.0°C | 4.7% | 0hPa | 2.6V | 00:00:00 | 00:00:00 | 00:00:00 | |
| PETON7-10 | 2026-09-01 12:22:01 | 45.88126 | 16.87760 | 51° | 22km/h | 20777m | 5.3m/s | -56.0°C | 4.8% | 0hPa | 2.6V | 00:00:00 | 00:00:00 | 00:00:00 | |
| 9A1FER-15 | 2026-09-01 12:21:59 | 45.88118 | 16.87745 | 54° | 22km/h | 20765m | 5.3m/s | -56.0°C | 4.8% | 0hPa | 2.7V | 00:00:00 | 01:18:42 | 00:00:00 | |
| PG1ADW-2 | 2026-09-01 12:21:55 | 45.88105 | 16.87712 | 63° | 16km/h | 20743m | 6.3m/s | -55.8°C | 4.7% | 0hPa | 2.7V | 00:00:00 | 00:00:00 | 00:00:00 | |
| 9A1FER-10 | 2026-09-01 12:21:54 | 45.88103 | 16.87705 | 59° | 16km/h | 20737m | 5.4m/s | -55.9°C | 4.8% | 0hPa | 2.7V | 00:00:00 | 01:18:37 | 00:00:00 | |
| 9A1FER-3 | 2026-09-01 12:21:52 | 45.88096 | 16.87693 | 50° | 16km/h | 20726m | 6.6m/s | -55.8°C | 4.6% | 0hPa | 2.7V | 00:00:00 | 01:18:35 | 00:00:00 | |
| OE5DRO-10 | 2026-09-01 12:21:51 | 45.88093 | 16.87688 | 43° | 15km/h | 20720m | 4.8m/s | -55.7°C | 4.6% | 0hPa | 2.7V | 00:00:00 | 00:00:00 | 00:00:00 | |
| PETON7-10 | 2026-09-01 12:21:46 | 45.88076 | 16.87665 | 58° | 15km/h | 20690m | 5.1m/s | -55.4°C | 4.6% | 0hPa | 2.7V | 00:00:00 | 00:00:00 | 00:00:00 | |
| 9A1FER-15 | 2026-09-01 12:21:44 | 45.88073 | 16.87655 | 83° | 13km/h | 20678m | 5.0m/s | -55.2°C | 4.6% | 0hPa | 2.7V | 00:00:00 | 01:18:27 | 00:00:00 | |
| 9A1FER-10 | 2026-09-01 12:21:39 | 45.88070 | 16.87630 | 66° | 11km/h | 20651m | 5.2m/s | -55.4°C | 4.5% | 0hPa | 2.7V | 00:00:00 | 01:18:22 | 00:00:00 | |
| 9A1FER-3 | 2026-09-01 12:21:37 | 45.88067 | 16.87623 | 52° | 11km/h | 20640m | 6.3m/s | -55.3°C | 4.6% | 0hPa | 2.6V | 00:00:00 | 01:18:20 | 00:00:00 | |
| PG1ADW-2 | 2026-09-01 12:21:35 | 45.88062 | 16.87615 | 42° | 13km/h | 20628m | 6.0m/s | -55.1°C | 4.5% | 0hPa | 2.7V | 00:00:00 | 01:18:18 | 00:00:00 | |
| OE5DRO-10 | 2026-09-01 12:21:32 | 45.88054 | 16.87607 | 38° | 13km/h | 20611m | 6.6m/s | -55.1°C | 4.6% | 0hPa | 2.7V | 00:00:00 | 00:00:00 | 00:00:00 | |
| PETON7-10 | 2026-09-01 12:21:31 | 45.88052 | 16.87604 | 38° | 13km/h | 20605m | 5.0m/s | -54.9°C | 4.5% | 0hPa | 2.7V | 00:00:00 | 01:18:14 | 00:00:00 | |
| 9A1FER-15 | 2026-09-01 12:21:29 | 45.88048 | 16.87601 | 26° | 13km/h | 20594m | 5.5m/s | -54.9°C | 4.5% | 0hPa | 2.7V | 00:00:00 | 01:18:12 | 08:30:00 | |
| 9A1FER-10 | 2026-09-01 12:21:24 | 45.88037 | 16.87590 | 39° | 16km/h | 20564m | 5.3m/s | -54.8°C | 4.3% | 0hPa | 2.7V | 00:00:00 | 01:18:07 | 00:00:00 | |
| 9A1FER-3 | 2026-09-01 12:21:22 | 45.88032 | 16.87583 | 46° | 16km/h | 20553m | 6.8m/s | -54.8°C | 4.2% | 0hPa | 2.7V | 00:00:00 | 01:18:05 | 00:00:00 | |
| PG1ADW-2 | 2026-09-01 12:21:16 | 45.88011 | 16.87557 | 19° | 22km/h | 20512m | 6.9m/s | -54.9°C | 4.4% | 0hPa | 2.7V | 00:00:00 | 00:00:00 | 00:00:00 | |
| 9A1FER-15 | 2026-09-01 12:21:14 | 45.88008 | 16.87556 | 11° | 22km/h | 20505m | 4.8m/s | -55.0°C | 4.4% | 0hPa | 2.6V | 00:00:00 | 01:17:57 | 00:00:00 | |
| OE5DRO-10 | 2026-09-01 12:21:13 | 45.88004 | 16.87555 | 13° | 22km/h | 20500m | 6.7m/s | -55.0°C | 4.4% | 0hPa | 2.6V | 00:00:00 | 00:00:00 | 00:00:00 | |
| 9A1FER-10 | 2026-09-01 12:21:09 | 45.87986 | 16.87549 | 13° | 24km/h | 20476m | 5.3m/s | -55.0°C | 4.5% | 0hPa | 2.6V | 00:00:00 | 01:17:52 | 00:00:00 | |
| 9A1FER-3 | 2026-09-01 12:21:07 | 45.87974 | 16.87543 | 27° | 24km/h | 20464m | 5.5m/s | -55.1°C | 4.5% | 0hPa | 2.6V | 00:00:00 | 01:17:50 | 00:00:00 | |
| OE5DXL-15 | 2026-09-01 12:21:02 | 45.87947 | 16.87522 | 30° | 26km/h | 20437m | 6.7m/s | -55.0°C | 4.4% | 0hPa | 2.6V | 00:00:00 | 00:00:00 | 00:00:00 | |
| PETON7-10 | 2026-09-01 12:21:01 | 45.87942 | 16.87517 | 30° | 26km/h | 20431m | 5.1m/s | -55.0°C | 4.4% | 0hPa | 2.6V | 00:00:00 | 00:00:00 | 00:00:00 | |
| 9A1FER-15 | 2026-09-01 12:20:59 | 45.87932 | 16.87511 | 23° | 26km/h | 20419m | 5.2m/s | -55.0°C | 4.5% | 0hPa | 2.6V | 00:00:00 | 01:17:42 | 00:00:00 | |
| PG1ADW-2 | 2026-09-01 12:20:55 | 45.87912 | 16.87496 | 24° | 26km/h | 20395m | 5.7m/s | -54.9°C | 4.4% | 0hPa | 2.6V | 00:00:00 | 00:00:00 | 00:00:00 | |
| OE5DRO-10 | 2026-09-01 12:20:54 | 45.87906 | 16.87493 | 24° | 26km/h | 20390m | 4.6m/s | -54.9°C | 4.4% | 0hPa | 2.6V | 00:00:00 | 00:00:00 | 08:30:00 | |
| 9A1FER-3 | 2026-09-01 12:20:52 | 45.87893 | 16.87484 | 30° | 26km/h | 20378m | 5.4m/s | -54.8°C | 4.3% | 0hPa | 2.6V | 00:00:00 | 01:17:35 | 08:30:00 | |
| PETON7-10 | 2026-09-01 12:20:46 | 45.87859 | 16.87451 | 35° | 26km/h | 20346m | 4.5m/s | -54.9°C | 4.5% | 0hPa | 2.7V | 00:00:00 | 01:17:29 | 00:00:00 | |
| 9A1FER-15 | 2026-09-01 12:20:44 | 45.87850 | 16.87442 | 29° | 26km/h | 20335m | 4.4m/s | -54.9°C | 4.5% | 0hPa | 2.7V | 00:00:00 | 01:17:27 | 00:00:00 | |
| 9A1FER-10 | 2026-09-01 12:20:39 | 45.87828 | 16.87416 | 47° | 26km/h | 20307m | 5.0m/s | -55.0°C | 4.4% | 0hPa | 2.7V | 00:00:00 | 01:17:22 | 00:00:00 | |
| 9A1FER-3 | 2026-09-01 12:20:37 | 45.87819 | 16.87403 | 41° | 26km/h | 20296m | 6.1m/s | -54.9°C | 4.4% | 0hPa | 2.7V | 00:00:00 | 01:17:20 | 00:00:00 | |
| PG1ADW-2 | 2026-09-01 12:20:36 | 45.87808 | 16.87391 | 39° | 27km/h | 20284m | 6.8m/s | -54.8°C | 4.4% | 0hPa | 2.7V | 00:00:00 | 00:00:00 | 00:00:00 | |
| OE5DRO-10 | 2026-09-01 12:20:35 | 45.87808 | 16.87391 | 39° | 27km/h | 20284m | 6.8m/s | -54.8°C | 4.4% | 0hPa | 2.7V | 00:00:00 | 00:00:00 | 00:00:00 | |
| OE5DXL-15 | 2026-09-01 12:20:32 | 45.87791 | 16.87373 | 37° | 26km/h | 20266m | 4.2m/s | -54.9°C | 4.4% | 0hPa | 2.7V | 00:00:00 | 00:00:00 | 00:00:00 | |
| PETON7-10 | 2026-09-01 12:20:31 | 45.87786 | 16.87367 | 37° | 27km/h | 20261m | 5.6m/s | -54.9°C | 4.4% | 0hPa | 2.7V | 00:00:00 | 00:00:00 | 08:30:00 | |
| 9A1FER-15 | 2026-09-01 12:20:29 | 45.87776 | 16.87357 | 38° | 27km/h | 20249m | 5.2m/s | -54.7°C | 4.4% | 0hPa | 2.6V | 00:00:00 | 01:17:12 | 00:00:00 | |
| 9A1FER-10 | 2026-09-01 12:20:24 | 45.87748 | 16.87331 | 31° | 26km/h | 20220m | 5.4m/s | -54.8°C | 4.5% | 0hPa | 2.6V | 00:00:00 | 01:17:07 | 00:00:00 | |
| 9A1FER-3 | 2026-09-01 12:20:22 | 45.87736 | 16.87322 | 28° | 26km/h | 20209m | 6.5m/s | -54.7°C | 4.4% | 0hPa | 2.6V | 00:00:00 | 01:17:05 | 00:00:00 | |
| OE5DRO-10 | 2026-09-01 12:20:17 | 45.87697 | 16.87299 | 24° | 22km/h | 20175m | 4.6m/s | -54.6°C | 4.4% | 0hPa | 2.6V | 00:00:00 | 00:00:00 | 00:00:00 | |
| PETON7-10 | 2026-09-01 12:20:16 | 45.87697 | 16.87299 | 24° | 22km/h | 20175m | 4.6m/s | -54.6°C | 4.4% | 0hPa | 2.6V | 00:00:00 | 00:00:00 | 00:00:00 | |
| PG1ADW-2 | 2026-09-01 12:20:15 | 45.87692 | 16.87295 | 26° | 20km/h | 20170m | 4.6m/s | -54.5°C | 4.3% | 0hPa | 2.6V | 00:00:00 | 01:16:58 | 08:30:00 | |
| 9A1FER-15 | 2026-09-01 12:20:14 | 45.87686 | 16.87291 | 28° | 22km/h | 20165m | 6.4m/s | -54.6°C | 4.3% | 0hPa | 2.6V | 00:00:00 | 01:16:57 | 00:00:00 | |
| 9A1FER-10 | 2026-09-01 12:20:09 | 45.87660 | 16.87270 | 28° | 20km/h | 20137m | 6.4m/s | -54.6°C | 4.4% | 0hPa | 2.6V | 00:00:00 | 01:16:52 | 00:00:00 | |
| 9A1FER-3 | 2026-09-01 12:20:07 | 45.87650 | 16.87262 | 27° | 18km/h | 20125m | 6.2m/s | -54.5°C | 4.4% | 0hPa | 2.7V | 00:00:00 | 01:16:50 | 00:00:00 | |
| OE5DXL-15 | 2026-09-01 12:20:02 | 45.87626 | 16.87252 | 14° | 16km/h | 20098m | 6.1m/s | -54.6°C | 4.3% | 0hPa | 2.6V | 00:00:00 | 00:00:00 | 00:00:00 | |
| 9A1FER-15 | 2026-09-01 12:19:59 | 45.87614 | 16.87244 | 33° | 16km/h | 20080m | 5.9m/s | -54.4°C | 4.3% | 0hPa | 2.7V | 00:00:00 | 01:16:42 | 00:00:00 | |
| OE5DRO-10 | 2026-09-01 12:19:57 | 45.87606 | 16.87236 | 42° | 15km/h | 20068m | 6.8m/s | -54.3°C | 4.3% | 0hPa | 2.6V | 00:00:00 | 00:00:00 | 00:00:00 | |
| PG1ADW-2 | 2026-09-01 12:19:55 | 45.87599 | 16.87227 | 42° | 15km/h | 20058m | 5.3m/s | -54.4°C | 4.2% | 0hPa | 2.6V | 00:00:00 | 00:00:00 | 00:00:00 | |
| 9A1FER-10 | 2026-09-01 12:19:54 | 45.87596 | 16.87223 | 34° | 15km/h | 20052m | 5.6m/s | -54.5°C | 4.2% | 0hPa | 2.6V | 00:00:00 | 01:16:37 | 00:00:00 | |
| 9A1FER-3 | 2026-09-01 12:19:52 | 45.87588 | 16.87219 | 8° | 13km/h | 20042m | 5.5m/s | -54.7°C | 4.3% | 0hPa | 2.6V | 00:00:00 | 01:16:35 | 00:00:00 | |
| PETON7-10 | 2026-09-01 12:19:46 | 45.87566 | 16.87216 | 29° | 15km/h | 20009m | 5.5m/s | -54.6°C | 4.3% | 0hPa | 2.6V | 00:00:00 | 00:00:00 | 00:00:00 | |
| 9A1FER-15 | 2026-09-01 12:19:44 | 45.87561 | 16.87211 | 41° | 15km/h | 19998m | 6.3m/s | -54.6°C | 4.3% | 0hPa | 2.7V | 00:00:00 | 01:16:27 | 00:00:00 | |
| 9A1FER-10 | 2026-09-01 12:19:39 | 45.87549 | 16.87198 | 34° | 16km/h | 19968m | 5.4m/s | -55.1°C | 4.5% | 0hPa | 2.7V | 00:00:00 | 01:16:22 | 00:00:00 | |
| OE5DRO-10 | 2026-09-01 12:19:38 | 45.87546 | 16.87195 | 32° | 15km/h | 19963m | 4.5m/s | -55.2°C | 4.5% | 0hPa | 2.7V | 00:00:00 | 00:00:00 | 00:00:00 | |
| 9A1FER-3 | 2026-09-01 12:19:37 | 45.87542 | 16.87192 | 30° | 16km/h | 19958m | 6.4m/s | -55.3°C | 4.5% | 0hPa | 2.7V | 00:00:00 | 01:16:20 | 00:00:00 | |
| PG1ADW-2 | 2026-09-01 12:19:35 | 45.87534 | 16.87187 | 20° | 13km/h | 19947m | 4.5m/s | -55.3°C | 4.5% | 0hPa | 2.7V | 00:00:00 | 00:00:00 | 00:00:00 | |
| OE5DXL-15 | 2026-09-01 12:19:32 | 45.87521 | 16.87183 | 3° | 11km/h | 19931m | 4.7m/s | -55.1°C | 4.6% | 0hPa | 2.7V | 00:00:00 | 00:00:00 | 00:00:00 | |
| PETON7-10 | 2026-09-01 12:19:31 | 45.87517 | 16.87183 | 8° | 13km/h | 19926m | 5.6m/s | -55.1°C | 4.5% | 0hPa | 2.7V | 00:00:00 | 00:00:00 | 00:00:00 | |
| 9A1FER-15 | 2026-09-01 12:19:29 | 45.87510 | 16.87180 | 24° | 11km/h | 19915m | 6.8m/s | -55.0°C | 4.5% | 0hPa | 2.7V | 00:00:00 | 01:16:12 | 00:00:00 | |
| 9A1FER-10 | 2026-09-01 12:19:24 | 45.87495 | 16.87166 | 26° | 11km/h | 19889m | 4.7m/s | -54.8°C | 4.3% | 0hPa | 2.7V | 00:00:00 | 01:16:07 | 00:00:00 | |
| 9A1FER-3 | 2026-09-01 12:19:22 | 45.87489 | 16.87162 | 25° | 11km/h | 19878m | 5.1m/s | -54.8°C | 4.3% | 0hPa | 2.7V | 00:00:00 | 01:16:05 | 00:00:00 | |
| OE5DRO-10 | 2026-09-01 12:19:19 | 45.87481 | 16.87159 | 4° | 9km/h | 19860m | 5.5m/s | -54.7°C | 4.3% | 0hPa | 2.6V | 00:00:00 | 00:00:00 | 00:00:00 | |
| PETON7-10 | 2026-09-01 12:19:15 | 45.87473 | 16.87161 | 353° | 9km/h | 19838m | 4.4m/s | -54.8°C | 4.5% | 0hPa | 2.6V | 00:00:00 | 01:15:58 | 00:00:00 | |
| 9A1FER-15 | 2026-09-01 12:19:14 | 45.87471 | 16.87162 | 357° | 9km/h | 19833m | 6.6m/s | -54.8°C | 4.5% | 0hPa | 2.6V | 00:00:00 | 01:15:57 | 08:30:00 | |
| 9A1FER-10 | 2026-09-01 12:19:09 | 45.87461 | 16.87150 | 51° | 9km/h | 19805m | 5.9m/s | -54.7°C | 4.4% | 0hPa | 2.6V | 00:00:00 | 01:15:52 | 00:00:00 | |
| 9A1FER-3 | 2026-09-01 12:19:07 | 45.87457 | 16.87143 | 49° | 7km/h | 19794m | 4.8m/s | -54.7°C | 4.3% | 0hPa | 2.6V | 00:00:00 | 01:15:50 | 00:00:00 | |
| OE5DXL-15 | 2026-09-01 12:19:02 | 45.87448 | 16.87142 | 337° | 9km/h | 19766m | 5.0m/s | -54.6°C | 4.3% | 0hPa | 2.6V | 00:00:00 | 00:00:00 | 00:00:00 | |
| PETON7-10 | 2026-09-01 12:19:00 | 45.87445 | 16.87142 | 7° | 9km/h | 19754m | 4.1m/s | -54.6°C | 4.4% | 0hPa | 2.6V | 00:00:00 | 00:00:00 | 00:00:00 | |
| 9A1FER-15 | 2026-09-01 12:18:59 | 45.87444 | 16.87142 | 21° | 9km/h | 19750m | 5.2m/s | -54.7°C | 4.4% | 0hPa | 2.6V | 00:00:00 | 01:15:42 | 00:00:00 | |
| PG1ADW-2 | 2026-09-01 12:18:55 | 45.87438 | 16.87135 | 37° | 11km/h | 19726m | 5.1m/s | -54.7°C | 4.5% | 0hPa | 2.6V | 00:00:00 | 01:15:38 | 00:00:00 | |
| 9A1FER-10 | 2026-09-01 12:18:54 | 45.87436 | 16.87132 | 39° | 11km/h | 19721m | 4.8m/s | -54.8°C | 4.5% | 0hPa | 2.6V | 00:00:00 | 01:15:37 | 00:00:00 | |
| 9A1FER-3 | 2026-09-01 12:18:52 | 45.87432 | 16.87129 | 32° | 11km/h | 19710m | 4.6m/s | -54.6°C | 4.4% | 0hPa | 2.6V | 00:00:00 | 01:15:35 | 00:00:00 | |
| PETON7-10 | 2026-09-01 12:18:45 | 45.87413 | 16.87121 | 23° | 9km/h | 19670m | 3.9m/s | -54.5°C | 4.3% | 0hPa | 2.6V | 00:00:00 | 00:00:00 | 00:00:00 | |
| 9A1FER-15 | 2026-09-01 12:18:44 | 45.87410 | 16.87119 | 29° | 9km/h | 19666m | 5.5m/s | -54.5°C | 4.4% | 0hPa | 2.6V | 00:00:00 | 01:15:27 | 00:00:00 | |
| OE5DRO-10 | 2026-09-01 12:18:39 | 45.87398 | 16.87112 | 3° | 11km/h | 19639m | 5.0m/s | -54.4°C | 4.4% | 0hPa | 2.6V | 00:00:00 | 00:00:00 | 00:00:00 | |
| 9A1FER-3 | 2026-09-01 12:18:37 | 45.87394 | 16.87112 | 6° | 11km/h | 19628m | 4.1m/s | -54.3°C | 4.4% | 0hPa | 2.6V | 00:00:00 | 01:15:20 | 08:30:00 | |
| PG1ADW-2 | 2026-09-01 12:18:35 | 45.87390 | 16.87110 | 18° | 11km/h | 19618m | 5.4m/s | -54.3°C | 4.3% | 0hPa | 2.7V | 00:00:00 | 00:00:00 | 00:00:00 | |
| OE5DXL-15 | 2026-09-01 12:18:32 | 45.87384 | 16.87107 | 24° | 16km/h | 19602m | 5.2m/s | -54.3°C | 4.3% | 0hPa | 2.7V | 00:00:00 | 00:00:00 | 00:00:00 | |
| PETON7-10 | 2026-09-01 12:18:30 | 45.87378 | 16.87104 | 21° | 13km/h | 19590m | 5.2m/s | -54.3°C | 4.2% | 0hPa | 2.6V | 00:00:00 | 01:15:13 | 00:00:00 | |
| 9A1FER-15 | 2026-09-01 12:18:29 | 45.87375 | 16.87102 | 20° | 13km/h | 19584m | 6.4m/s | -54.3°C | 4.2% | 0hPa | 2.6V | 00:00:00 | 01:15:12 | 00:00:00 | |
| 9A1FER-10 | 2026-09-01 12:18:24 | 45.87358 | 16.87093 | 26° | 16km/h | 19557m | 6.2m/s | -54.2°C | 4.3% | 0hPa | 2.6V | 00:00:00 | 01:15:07 | 00:00:00 | |
| 9A1FER-3 | 2026-09-01 12:18:22 | 45.87354 | 16.87089 | 45° | 16km/h | 19546m | 6.5m/s | -54.3°C | 4.3% | 0hPa | 2.6V | 00:00:00 | 01:15:05 | 00:00:00 | |
| OE5DRO-10 | 2026-09-01 12:18:20 | 45.87351 | 16.87083 | 51° | 18km/h | 19534m | 6.1m/s | -54.4°C | 4.3% | 0hPa | 2.6V | 00:00:00 | 00:00:00 | 00:00:00 | |
| PETON7-10 | 2026-09-01 12:18:15 | 45.87336 | 16.87073 | 14° | 20km/h | 19505m | 4.4m/s | -54.4°C | 4.3% | 0hPa | 2.6V | 00:00:00 | 00:00:00 | 08:30:00 | |
| 9A1FER-15 | 2026-09-01 12:18:14 | 45.87331 | 16.87072 | 9° | 20km/h | 19500m | 6.7m/s | -54.5°C | 4.2% | 0hPa | 2.7V | 00:00:00 | 01:14:57 | 00:00:00 | |
| 9A1FER-10 | 2026-09-01 12:18:09 | 45.87303 | 16.87061 | 23° | 18km/h | 19473m | 5.7m/s | -54.4°C | 4.2% | 0hPa | 2.7V | 00:00:00 | 01:14:52 | 00:00:00 | |
| 9A1FER-3 | 2026-09-01 12:18:07 | 45.87293 | 16.87055 | 27° | 16km/h | 19462m | 5.1m/s | -54.2°C | 4.3% | 0hPa | 2.7V | 00:00:00 | 01:14:50 | 00:00:00 | |
| OE5DXL-15 | 2026-09-01 12:18:02 | 45.87273 | 16.87034 | 42° | 18km/h | 19433m | 5.9m/s | -54.2°C | 4.2% | 0hPa | 2.7V | 00:00:00 | 00:00:00 | 00:00:00 | |
| OE5DRO-10 | 2026-09-01 12:18:01 | 45.87269 | 16.87030 | 49° | 16km/h | 19427m | 5.6m/s | -54.2°C | 4.2% | 0hPa | 2.7V | 00:00:00 | 00:00:00 | 08:30:00 | |
| PETON7-10 | 2026-09-01 12:18:00 | 45.87267 | 16.87025 | 52° | 15km/h | 19421m | 6.3m/s | -54.2°C | 4.1% | 0hPa | 2.7V | 00:00:00 | 00:00:00 | 00:00:00 | |
| PG1ADW-2 | 2026-09-01 12:17:55 | 45.87255 | 16.87004 | 48° | 18km/h | 19393m | 5.8m/s | -54.8°C | 4.4% | 0hPa | 2.7V | 00:00:00 | 00:00:00 | 00:00:00 | |
| 9A1FER-10 | 2026-09-01 12:17:54 | 45.87252 | 16.87000 | 52° | 18km/h | 19387m | 5.7m/s | -54.8°C | 4.4% | 0hPa | 2.7V | 00:00:00 | 01:14:37 | 00:00:00 | |
| 9A1FER-3 | 2026-09-01 12:17:52 | 45.87248 | 16.86991 | 62° | 18km/h | 19376m | 6.8m/s | -54.8°C | 4.4% | 0hPa | 2.6V | 00:00:00 | 01:14:35 | 00:00:00 | |
| 9A1FER-15 | 2026-09-01 12:17:44 | 45.87234 | 16.86949 | 68° | 22km/h | 19331m | 5.9m/s | -54.8°C | 4.4% | 0hPa | 2.7V | 00:00:00 | 01:14:27 | 00:00:00 | |
| OE5DRO-10 | 2026-09-01 12:17:42 | 45.87229 | 16.86935 | 66° | 26km/h | 19320m | 6.5m/s | -54.7°C | 4.3% | 0hPa | 2.7V | 00:00:00 | 00:00:00 | 00:00:00 | |
| 9A1FER-10 | 2026-09-01 12:17:39 | 45.87224 | 16.86911 | 79° | 26km/h | 19302m | 5.3m/s | -54.9°C | 4.3% | 0hPa | 2.7V | 00:00:00 | 01:14:22 | 00:00:00 | |
| 9A1FER-3 | 2026-09-01 12:17:37 | 45.87221 | 16.86895 | 73° | 26km/h | 19290m | 6.4m/s | -54.9°C | 4.2% | 0hPa | 2.7V | 00:00:00 | 01:14:20 | 00:00:00 | |
| PG1ADW-2 | 2026-09-01 12:17:35 | 45.87218 | 16.86882 | 68° | 27km/h | 19279m | 5.3m/s | -55.2°C | 4.3% | 0hPa | 2.7V | 00:00:00 | 01:14:18 | 00:00:00 | |
| OE5DXL-15 | 2026-09-01 12:17:33 | 45.87212 | 16.86865 | 57° | 29km/h | 19264m | 6.3m/s | -55.3°C | 4.4% | 0hPa | 2.7V | 00:00:00 | 00:00:00 | 00:00:00 | |
| PETON7-10 | 2026-09-01 12:17:30 | 45.87205 | 16.86851 | 56° | 29km/h | 19253m | 4.6m/s | -55.4°C | 4.5% | 0hPa | 2.7V | 00:00:00 | 00:00:00 | 00:00:00 | |
| 9A1FER-15 | 2026-09-01 12:17:29 | 45.87201 | 16.86842 | 60° | 29km/h | 19248m | 5.8m/s | -55.4°C | 4.5% | 0hPa | 2.6V | 00:00:00 | 01:14:12 | 00:00:00 | |
| 9A1FER-10 | 2026-09-01 12:17:24 | 45.87182 | 16.86790 | 66° | 29km/h | 19220m | 6.2m/s | -55.5°C | 4.6% | 0hPa | 2.6V | 00:00:00 | 01:14:07 | 00:00:00 | |
| OE5DRO-10 | 2026-09-01 12:17:23 | 45.87179 | 16.86779 | 67° | 27km/h | 19214m | 5.2m/s | -55.6°C | 4.6% | 0hPa | 2.6V | 00:00:00 | 00:00:00 | 00:00:00 | |
| 9A1FER-3 | 2026-09-01 12:17:22 | 45.87176 | 16.86769 | 65° | 27km/h | 19208m | 5.6m/s | -55.6°C | 4.6% | 0hPa | 2.6V | 00:00:00 | 01:14:05 | 00:00:00 | |
| PG1ADW-2 | 2026-09-01 12:17:17 | 45.87147 | 16.86715 | 43° | 29km/h | 19168m | 4.7m/s | -55.7°C | 4.6% | 0hPa | 2.6V | 00:00:00 | 00:00:00 | 08:30:00 | |
| 9A1FER-15 | 2026-09-01 12:17:15 | 45.87142 | 16.86708 | 45° | 29km/h | 19162m | 6.7m/s | -55.7°C | 4.6% | 0hPa | 2.6V | 00:00:00 | 01:13:57 | 00:00:00 | |
| 9A1FER-10 | 2026-09-01 12:17:09 | 45.87114 | 16.86675 | 37° | 29km/h | 19133m | 6.0m/s | -55.3°C | 4.5% | 0hPa | 2.6V | 00:00:00 | 01:13:52 | 00:00:00 | |
| 9A1FER-3 | 2026-09-01 12:17:07 | 45.87103 | 16.86664 | 32° | 29km/h | 19122m | 6.7m/s | -55.3°C | 4.5% | 0hPa | 2.6V | 00:00:00 | 01:13:50 | 00:00:00 | |
| OE5DRO-10 | 2026-09-01 12:17:04 | 45.87084 | 16.86651 | 25° | 27km/h | 19104m | 5.9m/s | -55.1°C | 4.3% | 0hPa | 2.7V | 00:00:00 | 00:00:00 | 00:00:00 | |
| OE5DXL-15 | 2026-09-01 12:17:02 | 45.87071 | 16.86641 | 31° | 24km/h | 19092m | 7.0m/s | -55.2°C | 4.3% | 0hPa | 2.6V | 00:00:00 | 00:00:00 | 08:30:00 | |
| 9A1FER-15 | 2026-09-01 12:16:59 | 45.87052 | 16.86623 | 35° | 27km/h | 19074m | 6.0m/s | -55.1°C | 4.2% | 0hPa | 2.7V | 00:00:00 | 01:13:42 | 08:30:00 | |
| PG1ADW-2 | 2026-09-01 12:16:55 | 45.87028 | 16.86600 | 31° | 24km/h | 19050m | 5.9m/s | -55.4°C | 4.2% | 0hPa | 2.6V | 00:00:00 | 00:00:00 | 00:00:00 | |
| 9A1FER-10 | 2026-09-01 12:16:54 | 45.87021 | 16.86595 | 26° | 26km/h | 19044m | 6.2m/s | -55.7°C | 4.3% | 0hPa | 2.6V | 00:00:00 | 01:13:37 | 00:00:00 | |
| OE5DRO-10 | 2026-09-01 12:16:45 | 45.86972 | 16.86552 | 34° | 20km/h | 18994m | 6.7m/s | -56.6°C | 4.7% | 0hPa | 2.6V | 00:00:00 | 00:00:00 | 00:00:00 | |
| 9A1FER-15 | 2026-09-01 12:16:44 | 45.86968 | 16.86548 | 31° | 20km/h | 18988m | 5.5m/s | -56.6°C | 4.8% | 0hPa | 2.6V | 00:00:00 | 01:13:27 | 00:00:00 | |
| PETON7-10 | 2026-09-01 12:16:43 | 45.86964 | 16.86545 | 26° | 20km/h | 18982m | 5.8m/s | -56.7°C | 4.8% | 0hPa | 2.6V | 00:00:00 | 00:00:00 | 00:00:00 | |
| 9A1FER-10 | 2026-09-01 12:16:39 | 45.86947 | 16.86532 | 44° | 22km/h | 18959m | 5.2m/s | -56.8°C | 4.8% | 0hPa | 2.7V | 00:00:00 | 01:13:22 | 00:00:00 | |
| 9A1FER-3 | 2026-09-01 12:16:37 | 45.86940 | 16.86521 | 54° | 22km/h | 18947m | 5.4m/s | -56.8°C | 4.8% | 0hPa | 2.7V | 00:00:00 | 01:13:20 | 00:00:00 | |
| PG1ADW-2 | 2026-09-01 12:16:35 | 45.86935 | 16.86508 | 65° | 22km/h | 18936m | 6.9m/s | -56.8°C | 4.7% | 0hPa | 2.7V | 00:00:00 | 00:00:00 | 00:00:00 | |
| OE5DXL-15 | 2026-09-01 12:16:32 | 45.86927 | 16.86488 | 57° | 26km/h | 18920m | 5.6m/s | -56.9°C | 4.8% | 0hPa | 2.7V | 00:00:00 | 00:00:00 | 00:00:00 | |
| 9A1FER-15 | 2026-09-01 12:16:29 | 45.86919 | 16.86471 | 52° | 24km/h | 18904m | 4.1m/s | -56.9°C | 4.9% | 0hPa | 2.7V | 00:00:00 | 01:13:12 | 00:00:00 | |
| PETON7-10 | 2026-09-01 12:16:28 | 45.86916 | 16.86465 | 51° | 24km/h | 18899m | 6.3m/s | -56.9°C | 4.8% | 0hPa | 2.7V | 00:00:00 | 00:00:00 | 00:00:00 | |
| OE5DRO-10 | 2026-09-01 12:16:25 | 45.86904 | 16.86443 | 60° | 26km/h | 18883m | 5.8m/s | -56.8°C | 4.9% | 0hPa | 2.7V | 00:00:00 | 00:00:00 | 00:00:00 | |
| 9A1FER-3 | 2026-09-01 12:16:22 | 45.86895 | 16.86421 | 48° | 27km/h | 18867m | 5.9m/s | -56.7°C | 4.9% | 0hPa | 2.7V | 00:00:00 | 01:13:05 | 08:30:00 | |
| PG1ADW-2 | 2026-09-01 12:16:15 | 45.86864 | 16.86380 | 46° | 29km/h | 18827m | 5.4m/s | -56.9°C | 5.0% | 0hPa | 2.7V | 00:00:00 | 01:12:58 | 00:00:00 | |
| 9A1FER-15 | 2026-09-01 12:16:14 | 45.86860 | 16.86373 | 45° | 29km/h | 18820m | 7.0m/s | -56.9°C | 5.0% | 0hPa | 2.6V | 00:00:00 | 01:12:57 | 00:00:00 | |
| PETON7-10 | 2026-09-01 12:16:13 | 45.86854 | 16.86365 | 46° | 29km/h | 18814m | 4.9m/s | -56.9°C | 4.9% | 0hPa | 2.6V | 00:00:00 | 01:12:56 | 00:00:00 | |
| 9A1FER-3 | 2026-09-01 12:16:07 | 45.86825 | 16.86317 | 47° | 27km/h | 18780m | 5.7m/s | -56.5°C | 4.8% | 0hPa | 2.6V | 00:00:00 | 01:12:50 | 00:00:00 | |
| 9A1FER-10 | 2026-09-01 12:16:06 | 45.86821 | 16.86310 | 43° | 27km/h | 18774m | 5.7m/s | -56.5°C | 4.9% | 0hPa | 2.6V | 00:00:00 | 01:12:49 | 00:00:00 | |
| OE5DXL-15 | 2026-09-01 12:16:03 | 45.86798 | 16.86284 | 41° | 26km/h | 18751m | 5.0m/s | -56.2°C | 4.8% | 0hPa | 2.6V | 00:00:00 | 00:00:00 | 00:00:00 | |
| 9A1FER-15 | 2026-09-01 12:15:59 | 45.86780 | 16.86263 | 40° | 26km/h | 18735m | 4.6m/s | -56.1°C | 4.8% | 0hPa | 2.6V | 00:00:00 | 01:12:42 | 00:00:00 | |
| PETON7-10 | 2026-09-01 12:15:58 | 45.86774 | 16.86256 | 44° | 26km/h | 18729m | 6.5m/s | -56.1°C | 4.8% | 0hPa | 2.6V | 00:00:00 | 00:00:00 | 08:30:00 | |
| PG1ADW-2 | 2026-09-01 12:15:55 | 45.86761 | 16.86238 | 41° | 24km/h | 18712m | 5.5m/s | -56.0°C | 4.7% | 0hPa | 2.7V | 00:00:00 | 00:00:00 | 00:00:00 | |
| 9A1FER-3 | 2026-09-01 12:15:52 | 45.86749 | 16.86221 | 48° | 24km/h | 18695m | 4.6m/s | -55.8°C | 4.7% | 0hPa | 2.7V | 00:00:00 | 01:12:35 | 00:00:00 | |
| 9A1FER-10 | 2026-09-01 12:15:51 | 45.86745 | 16.86215 | 44° | 24km/h | 18689m | 7.2m/s | -55.8°C | 4.6% | 0hPa | 2.7V | 00:00:00 | 01:12:34 | 00:00:00 | |
| OE5DRO-10 | 2026-09-01 12:15:47 | 45.86723 | 16.86189 | 38° | 22km/h | 18665m | 6.4m/s | -56.1°C | 4.5% | 0hPa | 2.7V | 00:00:00 | 00:00:00 | 00:00:00 | |
| 9A1FER-15 | 2026-09-01 12:15:44 | 45.86708 | 16.86171 | 47° | 20km/h | 18649m | 5.1m/s | -56.1°C | 4.7% | 0hPa | 2.7V | 00:00:00 | 01:12:27 | 00:00:00 | |
| PETON7-10 | 2026-09-01 12:15:43 | 45.86705 | 16.86166 | 50° | 20km/h | 18643m | 5.6m/s | -56.1°C | 4.6% | 0hPa | 2.7V | 00:00:00 | 00:00:00 | 00:00:00 | |
| OE3JTB-15 | 2026-09-01 12:15:39 | 45.86693 | 16.86141 | 71° | 22km/h | 18619m | 4.9m/s | -56.1°C | 4.8% | 0hPa | 2.7V | 00:00:00 | 01:12:22 | 00:00:00 | |
| 9A1FER-3 | 2026-09-01 12:15:37 | 45.86689 | 16.86126 | 63° | 20km/h | 18607m | 5.7m/s | -56.0°C | 4.7% | 0hPa | 2.7V | 00:00:00 | 01:12:20 | 00:00:00 | |
| 9A1FER-10 | 2026-09-01 12:15:36 | 45.86686 | 16.86119 | 63° | 20km/h | 18602m | 4.2m/s | -56.0°C | 4.6% | 0hPa | 2.6V | 00:00:00 | 01:12:19 | 00:00:00 | |
| PG1ADW-2 | 2026-09-01 12:15:35 | 45.86684 | 16.86112 | 65° | 20km/h | 18597m | 6.5m/s | -56.0°C | 4.5% | 0hPa | 2.7V | 00:00:00 | 00:00:00 | 00:00:00 | |
| OE5DXL-15 | 2026-09-01 12:15:33 | 45.86678 | 16.86091 | 66° | 24km/h | 18580m | 4.8m/s | -56.1°C | 4.5% | 0hPa | 2.7V | 00:00:00 | 00:00:00 | 00:00:00 | |
| 9A1FER-15 | 2026-09-01 12:15:31 | 45.86674 | 16.86074 | 73° | 22km/h | 18563m | 6.2m/s | 0°C | 0% | 0hPa | 2.6V | 00:00:00 | 01:12:12 | 00:00:00 | |
| PETON7-10 | 2026-09-01 12:15:28 | 45.86672 | 16.86069 | 66° | 22km/h | 18557m | 6.1m/s | -56.2°C | 4.7% | 0hPa | 2.6V | 00:00:00 | 01:12:11 | 00:00:00 | |
| 9A1FER-10 | 2026-09-01 12:15:22 | 45.86657 | 16.86020 | 59° | 26km/h | 18521m | 4.2m/s | -56.4°C | 4.7% | 0hPa | 2.6V | 00:00:00 | 01:12:04 | 00:00:00 | |
| PG1ADW-2 | 2026-09-01 12:15:15 | 45.86643 | 16.85977 | 71° | 31km/h | 18490m | 6.4m/s | -56.5°C | 4.7% | 0hPa | 2.6V | 00:00:00 | 00:00:00 | 00:00:00 | |
| 9A1FER-15 | 2026-09-01 12:15:14 | 45.86641 | 16.85968 | 74° | 29km/h | 18485m | 4.4m/s | 0°C | 0% | 0hPa | 2.7V | 00:00:00 | 01:11:57 | 00:00:00 | |
| PETON7-10 | 2026-09-01 12:15:13 | 45.86639 | 16.85959 | 70° | 31km/h | 18480m | 5.3m/s | -56.5°C | 4.7% | 0hPa | 2.7V | 00:00:00 | 00:00:00 | 00:00:00 | |
| OE3JTB-15 | 2026-09-01 12:15:10 | 45.86630 | 16.85932 | 64° | 35km/h | 18464m | 5.9m/s | -56.5°C | 4.7% | 0hPa | 2.6V | 00:00:00 | 00:00:00 | 00:00:00 | |
| OE5DRO-10 | 2026-09-01 12:15:09 | 45.86627 | 16.85923 | 63° | 33km/h | 18459m | 4.8m/s | -56.6°C | 4.8% | 0hPa | 2.6V | 00:00:00 | 00:00:00 | 08:30:00 | |
| 9A1FER-3 | 2026-09-01 12:15:07 | 45.86620 | 16.85906 | 59° | 35km/h | 18448m | 4.1m/s | -56.7°C | 5.0% | 0hPa | 2.6V | 00:00:00 | 01:11:50 | 00:00:00 | |
| 9A1FER-10 | 2026-09-01 12:15:06 | 45.86617 | 16.85897 | 62° | 35km/h | 18443m | 5.5m/s | -56.7°C | 5.1% | 0hPa | 2.6V | 00:00:00 | 01:11:49 | 00:00:00 | |
| 9A1FER-15 | 2026-09-01 12:15:00 | 45.86593 | 16.85819 | 67° | 35km/h | 18407m | 4.7m/s | 0°C | 0% | 0hPa | 2.6V | 00:00:00 | 01:11:42 | 00:00:00 | |
| PG1ADW-2 | 2026-09-01 12:14:55 | 45.86575 | 16.85768 | 64° | 31km/h | 18385m | 4.5m/s | 0°C | 0% | 0hPa | 2.6V | 00:00:00 | 01:11:38 | 00:00:00 | |
| 9A1FER-3 | 2026-09-01 12:14:52 | 45.86563 | 16.85736 | 63° | 31km/h | 18369m | 4.7m/s | -56.5°C | 5.0% | 0hPa | 2.6V | 00:00:00 | 01:11:35 | 00:00:00 | |
| 9A1FER-10 | 2026-09-01 12:14:51 | 45.86560 | 16.85726 | 66° | 31km/h | 18364m | 5.8m/s | -56.3°C | 4.9% | 0hPa | 2.6V | 00:00:00 | 01:11:34 | 00:00:00 | |
| OE5DRO-10 | 2026-09-01 12:14:47 | 45.86545 | 16.85684 | 63° | 27km/h | 18343m | 5.7m/s | -56.2°C | 4.9% | 0hPa | 2.6V | 00:00:00 | 00:00:00 | 00:00:00 | |
| 9A1FER-15 | 2026-09-01 12:14:44 | 45.86534 | 16.85654 | 60° | 29km/h | 18327m | 5.8m/s | 0°C | 0% | 0hPa | 2.6V | 00:00:00 | 01:11:27 | 00:00:00 | |
| PETON7-10 | 2026-09-01 12:14:43 | 45.86530 | 16.85645 | 58° | 27km/h | 18322m | 4.8m/s | -56.1°C | 4.7% | 0hPa | 2.6V | 00:00:00 | 01:11:26 | 00:00:00 | |
| OE3JTB-15 | 2026-09-01 12:14:40 | 45.86520 | 16.85618 | 61° | 22km/h | 18306m | 5.6m/s | -56.1°C | 4.7% | 0hPa | 2.6V | 00:00:00 | 00:00:00 | 00:00:00 | |
| 9A1FER-3 | 2026-09-01 12:14:37 | 45.86510 | 16.85590 | 71° | 24km/h | 18290m | 5.8m/s | -56.0°C | 4.7% | 0hPa | 2.6V | 00:00:00 | 01:11:20 | 00:00:00 | |
| 9A1FER-10 | 2026-09-01 12:14:36 | 45.86508 | 16.85580 | 72° | 24km/h | 18284m | 5.1m/s | -55.9°C | 4.7% | 0hPa | 2.6V | 00:00:00 | 01:11:19 | 00:00:00 | |
| PG1ADW-2 | 2026-09-01 12:14:35 | 45.86505 | 16.85571 | 70° | 24km/h | 18279m | 6.0m/s | 0°C | 0% | 0hPa | 2.6V | 00:00:00 | 00:00:00 | 00:00:00 | |
| PETON7-10 | 2026-09-01 12:14:28 | 45.86490 | 16.85514 | 77° | 24km/h | 18239m | 7.0m/s | -55.7°C | 4.9% | 0hPa | 2.6V | 00:00:00 | 00:00:00 | 00:00:00 | |
| 9A1FER-3 | 2026-09-01 12:14:22 | 45.86486 | 16.85462 | 90° | 20km/h | 18207m | 4.5m/s | -55.7°C | 4.7% | 0hPa | 2.6V | 00:00:00 | 01:11:05 | 00:00:00 | |
| 9A1FER-10 | 2026-09-01 12:14:21 | 45.86486 | 16.85453 | 86° | 20km/h | 18201m | 6.2m/s | -55.6°C | 4.6% | 0hPa | 2.6V | 00:00:00 | 01:11:04 | 00:00:00 | |
| PG1ADW-2 | 2026-09-01 12:14:15 | 45.86483 | 16.85399 | 89° | 38km/h | 18170m | 4.4m/s | 0°C | 0% | 0hPa | 2.6V | 00:00:00 | 00:00:00 | 00:00:00 | |
| PETON7-10 | 2026-09-01 12:14:13 | 45.86484 | 16.85387 | 104° | 22km/h | 18158m | 6.7m/s | -55.1°C | 4.6% | 0hPa | 2.6V | 00:00:00 | 00:00:00 | 00:00:00 | |
| 9A1FER-3 | 2026-09-01 12:14:07 | 45.86489 | 16.85353 | 89° | 26km/h | 18123m | 6.2m/s | -55.0°C | 4.5% | 0hPa | 2.6V | 00:00:00 | 01:10:50 | 08:30:00 | |
| 9A1FER-10 | 2026-09-01 12:14:06 | 45.86488 | 16.85343 | 84° | 26km/h | 18117m | 4.7m/s | -55.1°C | 4.6% | 0hPa | 2.7V | 00:00:00 | 01:10:49 | 08:30:00 | |
| OE5DRO-10 | 2026-09-01 12:14:05 | 45.86487 | 16.85334 | 79° | 26km/h | 18112m | 5.1m/s | -55.0°C | 4.6% | 0hPa | 2.7V | 00:00:00 | 00:00:00 | 00:00:00 | |
| OE3JTB-15 | 2026-09-01 12:14:03 | 45.86484 | 16.85315 | 83° | 27km/h | 18102m | 4.9m/s | -54.9°C | 4.5% | 0hPa | 2.6V | 00:00:00 | 01:10:46 | 00:00:00 | |
| PETON7-10 | 2026-09-01 12:13:58 | 45.86492 | 16.85274 | 122° | 27km/h | 18072m | 5.1m/s | -54.7°C | 4.5% | 0hPa | 2.6V | 00:00:00 | 01:10:41 | 00:00:00 | |
| 9A1FER-3 | 2026-09-01 12:13:52 | 45.86506 | 16.85223 | 103° | 29km/h | 18040m | 4.8m/s | -54.5°C | 4.5% | 0hPa | 2.6V | 00:00:00 | 01:10:35 | 00:00:00 | |
| 9A1FER-10 | 2026-09-01 12:13:51 | 45.86508 | 16.85213 | 102° | 29km/h | 18035m | 5.0m/s | -54.5°C | 4.5% | 0hPa | 2.6V | 00:00:00 | 01:10:34 | 00:00:00 | |
| OE5DRO-10 | 2026-09-01 12:13:46 | 45.86519 | 16.85164 | 110° | 31km/h | 18008m | 5.6m/s | -54.2°C | 4.3% | 0hPa | 2.6V | 00:00:00 | 00:00:00 | 00:00:00 | |
| PETON7-10 | 2026-09-01 12:13:43 | 45.86526 | 16.85131 | 110° | 31km/h | 17992m | 6.4m/s | -54.2°C | 4.2% | 0hPa | 2.6V | 00:00:00 | 00:00:00 | 08:30:00 | |
| 9A1FER-3 | 2026-09-01 12:13:37 | 45.86542 | 16.85070 | 115° | 31km/h | 17960m | 4.1m/s | -54.0°C | 4.4% | 0hPa | 2.6V | 00:00:00 | 01:10:20 | 00:00:00 | |
| 9A1FER-10 | 2026-09-01 12:13:36 | 45.86545 | 16.85061 | 115° | 31km/h | 17955m | 6.1m/s | -54.0°C | 4.4% | 0hPa | 2.6V | 00:00:00 | 01:10:19 | 00:00:00 | |
| OE3JTB-15 | 2026-09-01 12:13:33 | 45.86553 | 16.85032 | 112° | 33km/h | 17937m | 4.7m/s | -53.9°C | 4.3% | 0hPa | 2.6V | 00:00:00 | 00:00:00 | 08:30:00 | |
| OE5DRO-10 | 2026-09-01 12:13:28 | 45.86568 | 16.84964 | 100° | 35km/h | 17904m | 6.2m/s | -53.7°C | 4.1% | 0hPa | 2.7V | 00:00:00 | 00:00:00 | 00:00:00 | |
| 9A1FER-3 | 2026-09-01 12:13:22 | 45.86575 | 16.84909 | 107° | 35km/h | 17877m | 6.2m/s | -53.8°C | 4.1% | 0hPa | 2.7V | 00:00:00 | 01:10:05 | 00:00:00 | |
| 9A1FER-10 | 2026-09-01 12:13:21 | 45.86577 | 16.84899 | 109° | 35km/h | 17872m | 3.9m/s | -53.8°C | 4.1% | 0hPa | 2.7V | 00:00:00 | 01:10:04 | 00:00:00 | |
| OE5DXL-15 | 2026-09-01 12:13:19 | 45.86583 | 16.84879 | 114° | 37km/h | 17862m | 5.1m/s | -53.8°C | 4.1% | 0hPa | 2.6V | 00:00:00 | 00:00:00 | 00:00:00 | |
| PETON7-10 | 2026-09-01 12:13:13 | 45.86606 | 16.84804 | 112° | 37km/h | 17830m | 6.3m/s | -54.5°C | 4.4% | 0hPa | 2.6V | 00:00:00 | 01:09:56 | 00:00:00 | |
| OE5DRO-10 | 2026-09-01 12:13:08 | 45.86616 | 16.84742 | 96° | 37km/h | 17803m | 5.7m/s | -54.8°C | 4.4% | 0hPa | 2.6V | 00:00:00 | 00:00:00 | 00:00:00 | |
| 9A1FER-3 | 2026-09-01 12:13:07 | 45.86616 | 16.84730 | 94° | 37km/h | 17797m | 5.3m/s | -54.8°C | 4.4% | 0hPa | 2.7V | 00:00:00 | 01:09:50 | 00:00:00 | |
| 9A1FER-10 | 2026-09-01 12:13:06 | 45.86617 | 16.84718 | 95° | 37km/h | 17792m | 5.3m/s | -54.8°C | 4.4% | 0hPa | 2.7V | 00:00:00 | 01:09:49 | 00:00:00 | |
| OE3JTB-15 | 2026-09-01 12:13:04 | 45.86619 | 16.84693 | 97° | 40km/h | 17782m | 5.7m/s | -54.8°C | 4.4% | 0hPa | 2.7V | 00:00:00 | 00:00:00 | 00:00:00 | |
| PETON7-10 | 2026-09-01 12:12:58 | 45.86627 | 16.84614 | 96° | 40km/h | 17750m | 4.6m/s | -54.8°C | 4.4% | 0hPa | 2.7V | 00:00:00 | 00:00:00 | 00:00:00 | |
| 9A1FER-3 | 2026-09-01 12:12:52 | 45.86626 | 16.84533 | 88° | 42km/h | 17718m | 6.3m/s | -54.7°C | 4.4% | 0hPa | 2.6V | 00:00:00 | 01:09:35 | 00:00:00 | |
| 9A1FER-10 | 2026-09-01 12:12:51 | 45.86625 | 16.84518 | 90° | 42km/h | 17713m | 4.6m/s | -54.7°C | 4.3% | 0hPa | 2.6V | 00:00:00 | 01:09:34 | 00:00:00 | |
| OE5DXL-15 | 2026-09-01 12:12:49 | 45.86627 | 16.84488 | 97° | 46km/h | 17702m | 4.8m/s | 0°C | 0% | 0hPa | 2.6V | 00:00:00 | 00:00:00 | 00:00:00 | |
| PETON7-10 | 2026-09-01 12:12:43 | 45.86635 | 16.84398 | 95° | 44km/h | 17670m | 6.2m/s | -55.0°C | 4.4% | 0hPa | 2.6V | 00:00:00 | 00:00:00 | 00:00:00 | |
| 9A1FER-3 | 2026-09-01 12:12:37 | 45.86640 | 16.84306 | 96° | 47km/h | 17638m | 5.0m/s | -55.1°C | 4.4% | 0hPa | 2.6V | 00:00:00 | 01:09:20 | 00:00:00 | |
| OE3JTB-15 | 2026-09-01 12:12:35 | 45.86642 | 16.84271 | 97° | 47km/h | 17626m | 4.8m/s | -55.2°C | 4.4% | 0hPa | 2.7V | 00:00:00 | 01:09:18 | 00:00:00 | |
| PETON7-10 | 2026-09-01 12:12:28 | 45.86648 | 16.84156 | 101° | 47km/h | 17588m | 5.1m/s | -55.7°C | 4.7% | 0hPa | 2.7V | 00:00:00 | 01:09:11 | 00:00:00 | |
| 9A1FER-3 | 2026-09-01 12:12:22 | 45.86665 | 16.84053 | 98° | 49km/h | 17556m | 5.9m/s | -55.8°C | 4.6% | 0hPa | 2.7V | 00:00:00 | 01:09:05 | 00:00:00 | |
| 9A1FER-10 | 2026-09-01 12:12:21 | 45.86666 | 16.84036 | 95° | 49km/h | 17551m | 4.4m/s | -55.7°C | 4.6% | 0hPa | 2.7V | 00:00:00 | 01:09:04 | 00:00:00 | |
| OE5DXL-15 | 2026-09-01 12:12:19 | 45.86668 | 16.84001 | 94° | 49km/h | 17541m | 4.7m/s | 0°C | 0% | 0hPa | 2.7V | 00:00:00 | 00:00:00 | 00:00:00 | |
| PETON7-10 | 2026-09-01 12:12:13 | 45.86673 | 16.83901 | 91° | 49km/h | 17508m | 5.4m/s | -55.8°C | 4.8% | 0hPa | 2.7V | 00:00:00 | 00:00:00 | 00:00:00 | |
| OE5DRO-10 | 2026-09-01 12:12:11 | 45.86672 | 16.83866 | 87° | 51km/h | 17498m | 6.3m/s | -55.7°C | 4.7% | 0hPa | 2.6V | 00:00:00 | 00:00:00 | 08:30:00 | |
| 9A1FER-3 | 2026-09-01 12:12:07 | 45.86666 | 16.83789 | 82° | 47km/h | 17476m | 4.2m/s | -55.8°C | 4.7% | 0hPa | 2.6V | 00:00:00 | 01:08:50 | 00:00:00 | |
| 9A1FER-10 | 2026-09-01 12:12:06 | 45.86664 | 16.83769 | 83° | 47km/h | 17471m | 6.0m/s | -55.7°C | 4.7% | 0hPa | 2.6V | 00:00:00 | 01:08:49 | 00:00:00 | |
| PETON7-10 | 2026-09-01 12:11:58 | 45.86651 | 16.83636 | 85° | 47km/h | 17427m | 5.1m/s | -55.6°C | 4.5% | 0hPa | 2.6V | 00:00:00 | 00:00:00 | 00:00:00 | |
| 9A1FER-3 | 2026-09-01 12:11:52 | 45.86644 | 16.83528 | 84° | 47km/h | 17395m | 5.0m/s | -55.7°C | 4.6% | 0hPa | 2.6V | 00:00:00 | 01:08:35 | 08:30:00 | |
| 9A1FER-10 | 2026-09-01 12:11:51 | 45.86642 | 16.83509 | 84° | 46km/h | 17390m | 6.1m/s | -55.8°C | 4.7% | 0hPa | 2.7V | 00:00:00 | 01:08:34 | 08:30:00 | |
| OE5DXL-15 | 2026-09-01 12:11:49 | 45.86638 | 16.83473 | 81° | 46km/h | 17378m | 6.1m/s | 0°C | 0% | 0hPa | 2.7V | 00:00:00 | 01:08:32 | 00:00:00 | |
| PETON7-10 | 2026-09-01 12:11:43 | 45.86626 | 16.83383 | 79° | 46km/h | 17346m | 4.4m/s | -56.0°C | 4.8% | 0hPa | 2.7V | 00:00:00 | 01:08:26 | 00:00:00 | |
| OE3JTB-15 | 2026-09-01 12:11:37 | 45.86610 | 16.83281 | 73° | 44km/h | 17314m | 4.9m/s | -56.1°C | 4.7% | 0hPa | 2.7V | 00:00:00 | 00:00:00 | 00:00:00 | |
| 9A1FER-10 | 2026-09-01 12:11:36 | 45.86606 | 16.83264 | 70° | 44km/h | 17309m | 5.8m/s | -56.1°C | 4.7% | 0hPa | 2.7V | 00:00:00 | 01:08:19 | 00:00:00 | |
| OE5DRO-10 | 2026-09-01 12:11:33 | 45.86592 | 16.83218 | 67° | 44km/h | 17293m | 5.8m/s | -56.1°C | 4.7% | 0hPa | 2.7V | 00:00:00 | 00:00:00 | 00:00:00 | |
| PETON7-10 | 2026-09-01 12:11:28 | 45.86570 | 16.83150 | 69° | 44km/h | 17265m | 5.4m/s | -56.0°C | 4.8% | 0hPa | 2.7V | 00:00:00 | 00:00:00 | 08:30:00 | |
| 9A1FER-3 | 2026-09-01 12:11:22 | 45.86549 | 16.83056 | 75° | 42km/h | 17233m | 6.0m/s | -56.3°C | 4.6% | 0hPa | 2.7V | 00:00:00 | 01:08:05 | 00:00:00 | |
| 9A1FER-10 | 2026-09-01 12:11:21 | 45.86545 | 16.83040 | 72° | 42km/h | 17227m | 5.1m/s | -56.2°C | 4.6% | 0hPa | 2.7V | 00:00:00 | 01:08:04 | 00:00:00 | |
| OE5DXL-15 | 2026-09-01 12:11:18 | 45.86536 | 16.82995 | 76° | 40km/h | 17211m | 5.0m/s | 0°C | 0% | 0hPa | 2.7V | 00:00:00 | 00:00:00 | 08:30:00 | |
| OE5DRO-10 | 2026-09-01 12:11:15 | 45.86528 | 16.82938 | 86° | 40km/h | 17188m | 5.7m/s | -56.4°C | 4.8% | 0hPa | 2.7V | 00:00:00 | 00:00:00 | 00:00:00 | |
| PETON7-10 | 2026-09-01 12:11:13 | 45.86527 | 16.82923 | 86° | 40km/h | 17182m | 6.1m/s | -56.4°C | 4.9% | 0hPa | 2.6V | 00:00:00 | 00:00:00 | 00:00:00 | |
| OE3JTB-15 | 2026-09-01 12:11:08 | 45.86526 | 16.82846 | 91° | 47km/h | 17154m | 6.7m/s | -56.4°C | 4.9% | 0hPa | 2.6V | 00:00:00 | 01:07:51 | 00:00:00 | |
| 9A1FER-3 | 2026-09-01 12:11:07 | 45.86526 | 16.82831 | 90° | 42km/h | 17148m | 4.6m/s | -56.4°C | 4.9% | 0hPa | 2.6V | 00:00:00 | 01:07:50 | 00:00:00 | |
| 9A1FER-10 | 2026-09-01 12:11:06 | 45.86526 | 16.82817 | 93° | 44km/h | 17143m | 6.5m/s | -56.5°C | 4.9% | 0hPa | 2.6V | 00:00:00 | 01:07:49 | 00:00:00 | |
| PETON7-10 | 2026-09-01 12:10:58 | 45.86532 | 16.82709 | 96° | 51km/h | 17097m | 4.1m/s | -56.6°C | 5.0% | 0hPa | 2.7V | 00:00:00 | 01:07:41 | 00:00:00 | |
| OE5DRO-10 | 2026-09-01 12:10:55 | 45.86537 | 16.82656 | 100° | 51km/h | 17080m | 5.1m/s | -56.5°C | 5.1% | 0hPa | 2.7V | 00:00:00 | 00:00:00 | 00:00:00 | |
| 9A1FER-3 | 2026-09-01 12:10:52 | 45.86541 | 16.82600 | 96° | 51km/h | 17064m | 5.2m/s | -56.5°C | 5.1% | 0hPa | 2.7V | 00:00:00 | 01:07:35 | 00:00:00 | |
| 9A1FER-10 | 2026-09-01 12:10:51 | 45.86543 | 16.82582 | 98° | 51km/h | 17058m | 6.1m/s | -56.4°C | 5.0% | 0hPa | 2.7V | 00:00:00 | 01:07:34 | 00:00:00 | |
| PETON7-10 | 2026-09-01 12:10:43 | 45.86549 | 16.82435 | 91° | 51km/h | 17015m | 5.2m/s | -56.1°C | 4.9% | 0hPa | 2.7V | 00:00:00 | 00:00:00 | 00:00:00 | |
| OE3JTB-15 | 2026-09-01 12:10:39 | 45.86551 | 16.82358 | 92° | 51km/h | 16993m | 4.8m/s | -55.9°C | 4.8% | 0hPa | 2.7V | 00:00:00 | 00:00:00 | 00:00:00 | |
| 9A1FER-3 | 2026-09-01 12:10:37 | 45.86553 | 16.82319 | 97° | 53km/h | 16983m | 6.2m/s | -55.8°C | 4.8% | 0hPa | 2.6V | 00:00:00 | 01:07:20 | 00:00:00 | |
| 9A1FER-10 | 2026-09-01 12:10:36 | 45.86555 | 16.82300 | 98° | 53km/h | 16978m | 4.4m/s | -55.7°C | 4.8% | 0hPa | 2.6V | 00:00:00 | 01:07:19 | 00:00:00 | |
| PETON7-10 | 2026-09-01 12:10:28 | 45.86566 | 16.82155 | 92° | 51km/h | 16935m | 4.8m/s | -55.4°C | 4.7% | 0hPa | 2.6V | 00:00:00 | 00:00:00 | 00:00:00 | |
| 9A1FER-3 | 2026-09-01 12:10:22 | 45.86572 | 16.82032 | 101° | 49km/h | 16903m | 5.0m/s | -55.3°C | 4.7% | 0hPa | 2.6V | 00:00:00 | 01:07:05 | 00:00:00 | |
| 9A1FER-10 | 2026-09-01 12:10:21 | 45.86574 | 16.82013 | 102° | 49km/h | 16898m | 4.1m/s | -55.3°C | 4.6% | 0hPa | 2.7V | 00:00:00 | 01:07:04 | 00:00:00 | |
| OE5DRO-10 | 2026-09-01 12:10:17 | 45.86582 | 16.81945 | 100° | 51km/h | 16877m | 5.4m/s | -55.4°C | 4.6% | 0hPa | 2.7V | 00:00:00 | 00:00:00 | 00:00:00 | |
| PETON7-10 | 2026-09-01 12:10:13 | 45.86588 | 16.81877 | 96° | 53km/h | 16857m | 5.7m/s | -55.6°C | 4.6% | 0hPa | 2.7V | 00:00:00 | 01:06:56 | 00:00:00 | |
| OE3JTB-15 | 2026-09-01 12:10:11 | 45.86592 | 16.81822 | 98° | 51km/h | 16841m | 4.4m/s | -55.8°C | 4.6% | 0hPa | 2.7V | 00:00:00 | 00:00:00 | 00:00:00 | |
| 9A1FER-3 | 2026-09-01 12:10:07 | 45.86599 | 16.81766 | 101° | 53km/h | 16825m | 6.0m/s | -55.9°C | 4.7% | 0hPa | 2.7V | 00:00:00 | 01:06:50 | 00:00:00 | |
| 9A1FER-10 | 2026-09-01 12:10:06 | 45.86601 | 16.81747 | 101° | 53km/h | 16819m | 5.1m/s | -56.0°C | 4.8% | 0hPa | 2.7V | 00:00:00 | 01:06:49 | 00:00:00 | |
| PETON7-10 | 2026-09-01 12:09:58 | 45.86607 | 16.81589 | 88° | 51km/h | 16780m | 4.0m/s | -56.5°C | 5.0% | 0hPa | 2.7V | 00:00:00 | 00:00:00 | 00:00:00 | |
| 9A1FER-3 | 2026-09-01 12:09:52 | 45.86606 | 16.81478 | 91° | 53km/h | 16749m | 5.3m/s | -56.5°C | 5.1% | 0hPa | 2.6V | 00:00:00 | 01:06:35 | 00:00:00 | |
| 9A1FER-10 | 2026-09-01 12:09:51 | 45.86606 | 16.81462 | 92° | 53km/h | 16745m | 4.0m/s | -56.5°C | 5.0% | 0hPa | 2.6V | 00:00:00 | 01:06:34 | 00:00:00 | |
| PETON7-10 | 2026-09-01 12:09:43 | 45.86611 | 16.81312 | 93° | 57km/h | 16705m | 5.9m/s | -56.3°C | 5.0% | 0hPa | 2.6V | 00:00:00 | 00:00:00 | 00:00:00 | |
| OE3JTB-15 | 2026-09-01 12:09:41 | 45.86612 | 16.81272 | 92° | 66km/h | 16694m | 5.9m/s | -56.2°C | 4.9% | 0hPa | 2.6V | 00:00:00 | 01:06:24 | 00:00:00 | |
| OE5DRO-10 | 2026-09-01 12:09:39 | 45.86613 | 16.81231 | 94° | 58km/h | 16684m | 4.5m/s | -56.4°C | 4.9% | 0hPa | 2.6V | 00:00:00 | 00:00:00 | 00:00:00 | |
| 9A1FER-3 | 2026-09-01 12:09:37 | 45.86615 | 16.81192 | 94° | 58km/h | 16675m | 3.9m/s | -56.4°C | 4.9% | 0hPa | 2.6V | 00:00:00 | 01:06:20 | 08:30:00 | |
| 9A1FER-10 | 2026-09-01 12:09:36 | 45.86616 | 16.81172 | 94° | 60km/h | 16670m | 6.0m/s | -56.4°C | 4.9% | 0hPa | 2.6V | 00:00:00 | 01:06:19 | 08:30:00 | |
| PETON7-10 | 2026-09-01 12:09:28 | 45.86627 | 16.81002 | 100° | 64km/h | 16629m | 3.9m/s | -56.7°C | 4.9% | 0hPa | 2.7V | 00:00:00 | 01:06:11 | 00:00:00 | |
| 9A1FER-3 | 2026-09-01 12:09:22 | 45.86635 | 16.80871 | 91° | 69km/h | 16598m | 4.4m/s | -57.2°C | 5.1% | 0hPa | 2.7V | 00:00:00 | 01:06:05 | 00:00:00 | |
| 9A1FER-10 | 2026-09-01 12:09:21 | 45.86635 | 16.80849 | 90° | 71km/h | 16593m | 5.5m/s | -57.2°C | 5.2% | 0hPa | 2.7V | 00:00:00 | 01:06:04 | 00:00:00 | |
| OE5DRO-10 | 2026-09-01 12:09:20 | 45.86635 | 16.80826 | 89° | 71km/h | 16588m | 4.9m/s | -57.3°C | 5.2% | 0hPa | 2.7V | 00:00:00 | 00:00:00 | 08:30:00 | |
| PETON7-10 | 2026-09-01 12:09:13 | 45.86627 | 16.80653 | 85° | 75km/h | 16550m | 5.2m/s | -58.2°C | 5.6% | 0hPa | 2.7V | 00:00:00 | 00:00:00 | 08:30:00 | |
| 9A1FER-3 | 2026-09-01 12:09:07 | 45.86615 | 16.80493 | 83° | 73km/h | 16519m | 4.7m/s | -58.2°C | 5.5% | 0hPa | 2.7V | 00:00:00 | 01:05:50 | 00:00:00 | |
| 9A1FER-10 | 2026-09-01 12:09:06 | 45.86612 | 16.80466 | 81° | 75km/h | 16513m | 5.9m/s | -58.2°C | 5.6% | 0hPa | 2.7V | 00:00:00 | 01:05:49 | 00:00:00 | |
| OE5DRO-10 | 2026-09-01 12:09:01 | 45.86594 | 16.80332 | 79° | 73km/h | 16488m | 4.7m/s | -58.0°C | 5.4% | 0hPa | 2.7V | 00:00:00 | 00:00:00 | 00:00:00 | |
| PETON7-10 | 2026-09-01 12:08:57 | 45.86580 | 16.80227 | 79° | 73km/h | 16468m | 4.6m/s | -58.1°C | 5.5% | 0hPa | 2.7V | 00:00:00 | 00:00:00 | 00:00:00 | |
| 9A1FER-3 | 2026-09-01 12:08:52 | 45.86553 | 16.80102 | 70° | 71km/h | 16444m | 3.7m/s | -58.0°C | 5.5% | 0hPa | 2.7V | 00:00:00 | 01:05:35 | 00:00:00 | |
| 9A1FER-10 | 2026-09-01 12:08:51 | 45.86547 | 16.80077 | 70° | 71km/h | 16439m | 5.8m/s | -58.0°C | 5.5% | 0hPa | 2.7V | 00:00:00 | 01:05:34 | 00:00:00 | |
| OE3JTB-15 | 2026-09-01 12:08:45 | 45.86518 | 16.79925 | 79° | 64km/h | 16409m | 4.7m/s | -58.2°C | 5.5% | 0hPa | 2.7V | 00:00:00 | 00:00:00 | 08:30:00 | |
| OE5DRO-10 | 2026-09-01 12:08:42 | 45.86506 | 16.79847 | 77° | 62km/h | 16395m | 3.7m/s | -58.4°C | 5.7% | 0hPa | 2.7V | 00:00:00 | 00:00:00 | 00:00:00 | |
| 9A1FER-3 | 2026-09-01 12:08:37 | 45.86483 | 16.79731 | 73° | 60km/h | 16370m | 4.0m/s | -58.4°C | 5.5% | 0hPa | 2.7V | 00:00:00 | 01:05:20 | 00:00:00 | |
| 9A1FER-10 | 2026-09-01 12:08:36 | 45.86478 | 16.79708 | 74° | 60km/h | 16366m | 4.8m/s | -58.5°C | 5.6% | 0hPa | 2.7V | 00:00:00 | 01:05:19 | 00:00:00 | |
| PETON7-10 | 2026-09-01 12:08:27 | 45.86440 | 16.79510 | 72° | 57km/h | 16321m | 4.5m/s | -58.8°C | 5.8% | 0hPa | 2.7V | 00:00:00 | 00:00:00 | 00:00:00 | |
| OE5DRO-10 | 2026-09-01 12:08:23 | 45.86423 | 16.79435 | 76° | 57km/h | 16302m | 5.0m/s | -58.7°C | 6.0% | 0hPa | 2.7V | 00:00:00 | 00:00:00 | 00:00:00 | |
| 9A1FER-3 | 2026-09-01 12:08:22 | 45.86420 | 16.79415 | 79° | 57km/h | 16297m | 3.7m/s | -58.7°C | 6.0% | 0hPa | 2.7V | 00:00:00 | 01:05:05 | 00:00:00 | |
| 9A1FER-10 | 2026-09-01 12:08:21 | 45.86417 | 16.79395 | 79° | 57km/h | 16293m | 5.7m/s | -58.7°C | 6.0% | 0hPa | 2.7V | 00:00:00 | 01:05:04 | 00:00:00 | |
| PETON7-10 | 2026-09-01 12:08:12 | 45.86396 | 16.79215 | 79° | 55km/h | 16248m | 6.0m/s | -58.4°C | 5.5% | 0hPa | 2.7V | 00:00:00 | 00:00:00 | 00:00:00 | |
| 9A1FER-3 | 2026-09-01 12:08:08 | 45.86381 | 16.79113 | 79° | 55km/h | 16222m | 4.5m/s | -58.2°C | 5.6% | 0hPa | 2.7V | 00:00:00 | 01:04:50 | 00:00:00 | |
| 9A1FER-10 | 2026-09-01 12:08:07 | 45.86378 | 16.79093 | 81° | 55km/h | 16217m | 5.8m/s | -58.2°C | 5.6% | 0hPa | 2.7V | 00:00:00 | 01:04:49 | 00:00:00 | |
| OE5DRO-10 | 2026-09-01 12:08:04 | 45.86375 | 16.79053 | 86° | 55km/h | 16206m | 3.7m/s | -58.2°C | 5.6% | 0hPa | 2.6V | 00:00:00 | 00:00:00 | 00:00:00 | |
| PETON7-10 | 2026-09-01 12:07:56 | 45.86357 | 16.78901 | 78° | 57km/h | 16165m | 5.7m/s | -58.7°C | 5.7% | 0hPa | 2.6V | 00:00:00 | 01:04:39 | 00:00:00 | |
| 9A1FER-10 | 2026-09-01 12:07:52 | 45.86345 | 16.78803 | 85° | 57km/h | 16140m | 5.1m/s | -58.9°C | 5.9% | 0hPa | 2.6V | 00:00:00 | 01:04:34 | 00:00:00 | |
| OE5DRO-10 | 2026-09-01 12:07:45 | 45.86334 | 16.78678 | 79° | 57km/h | 16111m | 4.3m/s | -59.1°C | 5.9% | 0hPa | 2.6V | 00:00:00 | 00:00:00 | 00:00:00 | |
| PETON7-10 | 2026-09-01 12:07:41 | 45.86318 | 16.78596 | 74° | 57km/h | 16090m | 4.5m/s | -59.0°C | 5.8% | 0hPa | 2.6V | 00:00:00 | 00:00:00 | 00:00:00 | |
| 9A1FER-3 | 2026-09-01 12:07:37 | 45.86301 | 16.78519 | 77° | 57km/h | 16068m | 5.2m/s | -58.9°C | 5.7% | 0hPa | 2.7V | 00:00:00 | 01:04:20 | 00:00:00 | |
| 9A1FER-10 | 2026-09-01 12:07:36 | 45.86298 | 16.78499 | 78° | 57km/h | 16064m | 3.7m/s | -58.8°C | 5.7% | 0hPa | 2.7V | 00:00:00 | 01:04:19 | 00:00:00 | |
| OE5DRO-10 | 2026-09-01 12:07:26 | 45.86267 | 16.78301 | 78° | 62km/h | 16012m | 4.1m/s | -58.8°C | 5.9% | 0hPa | 2.7V | 00:00:00 | 00:00:00 | 00:00:00 | |
| 9A1FER-3 | 2026-09-01 12:07:22 | 45.86258 | 16.78216 | 84° | 62km/h | 15993m | 4.2m/s | -58.6°C | 5.9% | 0hPa | 2.7V | 00:00:00 | 01:04:05 | 08:30:00 | |
| 9A1FER-10 | 2026-09-01 12:07:21 | 45.86257 | 16.78195 | 86° | 62km/h | 15989m | 4.4m/s | -58.7°C | 5.9% | 0hPa | 2.7V | 00:00:00 | 01:04:04 | 08:30:00 | |
| OE3JTB-15 | 2026-09-01 12:07:08 | 45.86243 | 16.77901 | 89° | 64km/h | 15919m | 6.1m/s | -58.5°C | 5.8% | 0hPa | 2.7V | 00:00:00 | 00:00:00 | 00:00:00 | |
| 9A1FER-10 | 2026-09-01 12:07:07 | 45.86243 | 16.77854 | 92° | 62km/h | 15910m | 4.9m/s | -58.6°C | 5.7% | 0hPa | 2.7V | 00:00:00 | 01:03:49 | 00:00:00 | |
| PETON7-10 | 2026-09-01 12:06:56 | 45.86245 | 16.77630 | 86° | 64km/h | 15861m | 4.3m/s | -58.4°C | 5.8% | 0hPa | 2.7V | 00:00:00 | 00:00:00 | 08:30:00 | |
| 9A1FER-3 | 2026-09-01 12:06:52 | 45.86242 | 16.77540 | 88° | 66km/h | 15841m | 5.8m/s | -58.4°C | 5.8% | 0hPa | 2.7V | 00:00:00 | 01:03:35 | 00:00:00 | |
| 9A1FER-10 | 2026-09-01 12:06:51 | 45.86241 | 16.77516 | 86° | 66km/h | 15836m | 4.1m/s | -58.4°C | 5.9% | 0hPa | 2.7V | 00:00:00 | 01:03:34 | 00:00:00 | |
| OE5DRO-10 | 2026-09-01 12:06:48 | 45.86238 | 16.77444 | 86° | 68km/h | 15821m | 5.2m/s | -58.3°C | 5.8% | 0hPa | 2.7V | 00:00:00 | 00:00:00 | 00:00:00 | |
| PETON7-10 | 2026-09-01 12:06:40 | 45.86225 | 16.77262 | 82° | 71km/h | 15780m | 3.8m/s | -58.2°C | 5.7% | 0hPa | 2.7V | 00:00:00 | 00:00:00 | 00:00:00 | |
| 9A1FER-3 | 2026-09-01 12:06:37 | 45.86216 | 16.77186 | 80° | 71km/h | 15765m | 6.0m/s | -58.2°C | 5.7% | 0hPa | 2.7V | 00:00:00 | 01:03:20 | 00:00:00 | |
| 9A1FER-10 | 2026-09-01 12:06:36 | 45.86213 | 16.77160 | 80° | 71km/h | 15760m | 4.0m/s | -58.2°C | 5.8% | 0hPa | 2.7V | 00:00:00 | 01:03:19 | 00:00:00 | |
| OE5DRO-10 | 2026-09-01 12:06:29 | 45.86185 | 16.76985 | 75° | 69km/h | 15725m | 4.8m/s | -58.3°C | 5.9% | 0hPa | 2.7V | 00:00:00 | 00:00:00 | 08:30:00 | |
| PETON7-10 | 2026-09-01 12:06:25 | 45.86167 | 16.76890 | 74° | 69km/h | 15705m | 3.8m/s | -58.2°C | 5.8% | 0hPa | 2.7V | 00:00:00 | 01:03:08 | 00:00:00 | |
| 9A1FER-3 | 2026-09-01 12:06:22 | 45.86152 | 16.76815 | 75° | 69km/h | 15690m | 5.7m/s | -58.2°C | 5.8% | 0hPa | 2.7V | 00:00:00 | 01:03:05 | 00:00:00 | |
| 9A1FER-10 | 2026-09-01 12:06:21 | 45.86147 | 16.76790 | 73° | 69km/h | 15685m | 4.3m/s | -58.2°C | 5.7% | 0hPa | 2.7V | 00:00:00 | 01:03:04 | 00:00:00 | |
| OE5DRO-10 | 2026-09-01 12:06:11 | 45.86101 | 16.76521 | 78° | 64km/h | 15634m | 4.8m/s | -58.5°C | 6.0% | 0hPa | 2.7V | 00:00:00 | 00:00:00 | 00:00:00 | |
| PETON7-10 | 2026-09-01 12:06:10 | 45.86101 | 16.76521 | 78° | 66km/h | 15634m | 4.8m/s | -58.5°C | 6.0% | 0hPa | 2.7V | 00:00:00 | 00:00:00 | 00:00:00 | |
| 9A1FER-3 | 2026-09-01 12:06:07 | 45.86090 | 16.76450 | 76° | 64km/h | 15619m | 5.1m/s | -58.5°C | 5.9% | 0hPa | 2.7V | 00:00:00 | 01:02:50 | 00:00:00 | |
| 9A1FER-10 | 2026-09-01 12:06:06 | 45.86086 | 16.76428 | 77° | 64km/h | 15614m | 4.0m/s | -58.4°C | 5.8% | 0hPa | 2.7V | 00:00:00 | 01:02:49 | 00:00:00 | |
| PETON7-10 | 2026-09-01 12:05:55 | 45.86047 | 16.76182 | 80° | 66km/h | 15560m | 5.8m/s | -58.6°C | 6.1% | 0hPa | 2.7V | 00:00:00 | 00:00:00 | 00:00:00 | |
| 9A1FER-3 | 2026-09-01 12:05:52 | 45.86040 | 16.76113 | 83° | 66km/h | 15544m | 5.1m/s | -58.6°C | 6.2% | 0hPa | 2.7V | 00:00:00 | 01:02:35 | 00:00:00 | |
| 9A1FER-10 | 2026-09-01 12:05:51 | 45.86038 | 16.76090 | 82° | 66km/h | 15540m | 4.9m/s | -58.5°C | 6.0% | 0hPa | 2.7V | 00:00:00 | 01:02:34 | 00:00:00 | |
| PETON7-10 | 2026-09-01 12:05:40 | 45.86013 | 16.75834 | 89° | 66km/h | 15483m | 6.3m/s | -58.7°C | 6.2% | 0hPa | 2.7V | 00:00:00 | 01:02:23 | 00:00:00 | |
| 9A1FER-3 | 2026-09-01 12:05:37 | 45.86014 | 16.75762 | 91° | 66km/h | 15467m | 5.3m/s | -58.6°C | 6.2% | 0hPa | 2.7V | 00:00:00 | 01:02:20 | 00:00:00 | |
| 9A1FER-10 | 2026-09-01 12:05:36 | 45.86014 | 16.75738 | 90° | 66km/h | 15463m | 3.8m/s | -58.6°C | 6.1% | 0hPa | 2.7V | 00:00:00 | 01:02:19 | 00:00:00 | |
| OE5DRO-10 | 2026-09-01 12:05:32 | 45.86013 | 16.75642 | 87° | 68km/h | 15443m | 4.5m/s | -58.5°C | 6.1% | 0hPa | 2.7V | 00:00:00 | 00:00:00 | 00:00:00 | |
| PETON7-10 | 2026-09-01 12:05:25 | 45.86005 | 16.75477 | 88° | 71km/h | 15409m | 5.0m/s | -58.2°C | 6.1% | 0hPa | 2.7V | 00:00:00 | 00:00:00 | 00:00:00 | |
| 9A1FER-3 | 2026-09-01 12:05:22 | 45.86003 | 16.75404 | 89° | 73km/h | 15393m | 4.4m/s | -58.3°C | 6.2% | 0hPa | 2.7V | 00:00:00 | 01:02:05 | 00:00:00 | |
| 9A1FER-10 | 2026-09-01 12:05:21 | 45.86003 | 16.75379 | 90° | 73km/h | 15388m | 6.7m/s | -58.5°C | 6.3% | 0hPa | 2.7V | 00:00:00 | 01:02:04 | 00:00:00 | |
| OE5DRO-10 | 2026-09-01 12:05:13 | 45.85994 | 16.75171 | 83° | 73km/h | 15347m | 4.7m/s | -58.5°C | 6.2% | 0hPa | 2.7V | 00:00:00 | 00:00:00 | 00:00:00 | |
| PETON7-10 | 2026-09-01 12:05:10 | 45.85988 | 16.75091 | 84° | 73km/h | 15332m | 4.9m/s | -58.3°C | 6.4% | 0hPa | 2.7V | 00:00:00 | 00:00:00 | 00:00:00 | |
| 9A1FER-10 | 2026-09-01 12:05:07 | 45.85983 | 16.74982 | 88° | 69km/h | 15311m | 4.9m/s | -58.2°C | 6.1% | 0hPa | 2.7V | 00:00:00 | 01:01:49 | 08:30:00 | |
| PETON7-10 | 2026-09-01 12:04:55 | 45.85975 | 16.74700 | 90° | 69km/h | 15252m | 5.2m/s | -58.0°C | 6.1% | 0hPa | 2.7V | 00:00:00 | 01:01:38 | 00:00:00 | |
| OE5DRO-10 | 2026-09-01 12:04:54 | 45.85975 | 16.74676 | 90° | 71km/h | 15246m | 6.2m/s | -58.0°C | 6.2% | 0hPa | 2.7V | 00:00:00 | 00:00:00 | 00:00:00 | |
| 9A1FER-3 | 2026-09-01 12:04:52 | 45.85975 | 16.74627 | 92° | 71km/h | 15235m | 6.4m/s | -58.0°C | 6.2% | 0hPa | 2.7V | 00:00:00 | 01:01:35 | 00:00:00 | |
| 9A1FER-10 | 2026-09-01 12:04:51 | 45.85975 | 16.74602 | 92° | 73km/h | 15230m | 4.4m/s | -57.9°C | 6.1% | 0hPa | 2.7V | 00:00:00 | 01:01:34 | 00:00:00 | |
| PETON7-10 | 2026-09-01 12:04:40 | 45.85964 | 16.74318 | 83° | 75km/h | 15171m | 4.9m/s | -57.9°C | 6.3% | 0hPa | 2.7V | 00:00:00 | 00:00:00 | 08:30:00 | |
| 9A1FER-3 | 2026-09-01 12:04:37 | 45.85958 | 16.74238 | 85° | 75km/h | 15153m | 6.4m/s | -57.7°C | 6.2% | 0hPa | 2.7V | 00:00:00 | 01:01:20 | 00:00:00 | |
| 9A1FER-10 | 2026-09-01 12:04:36 | 45.85956 | 16.74211 | 86° | 75km/h | 15147m | 4.7m/s | -57.7°C | 6.1% | 0hPa | 2.7V | 00:00:00 | 01:01:19 | 00:00:00 | |
| OE5DRO-10 | 2026-09-01 12:04:35 | 45.85955 | 16.74184 | 86° | 75km/h | 15142m | 6.1m/s | -57.7°C | 6.1% | 0hPa | 2.7V | 00:00:00 | 00:00:00 | 00:00:00 | |
| PETON7-10 | 2026-09-01 12:04:25 | 45.85934 | 16.73917 | 87° | 73km/h | 15089m | 4.9m/s | -57.7°C | 6.2% | 0hPa | 2.7V | 00:00:00 | 00:00:00 | 00:00:00 | |
| 9A1FER-3 | 2026-09-01 12:04:22 | 45.85932 | 16.73838 | 90° | 73km/h | 15073m | 6.5m/s | -57.6°C | 6.2% | 0hPa | 2.7V | 00:00:00 | 01:01:05 | 00:00:00 | |
| 9A1FER-10 | 2026-09-01 12:04:21 | 45.85932 | 16.73810 | 89° | 73km/h | 15067m | 4.8m/s | -57.5°C | 6.2% | 0hPa | 2.7V | 00:00:00 | 01:01:04 | 00:00:00 | |
| OE5DRO-10 | 2026-09-01 12:04:16 | 45.85927 | 16.73677 | 86° | 75km/h | 15041m | 4.9m/s | -57.7°C | 6.2% | 0hPa | 2.7V | 00:00:00 | 00:00:00 | 00:00:00 | |
| PETON7-10 | 2026-09-01 12:04:10 | 45.85919 | 16.73517 | 86° | 75km/h | 15009m | 5.0m/s | -57.7°C | 6.2% | 0hPa | 2.7V | 00:00:00 | 01:00:53 | 00:00:00 | |
| 9A1FER-3 | 2026-09-01 12:04:07 | 45.85915 | 16.73437 | 88° | 77km/h | 14993m | 5.0m/s | -57.6°C | 6.2% | 0hPa | 2.7V | 00:00:00 | 01:00:50 | 00:00:00 | |
| 9A1FER-10 | 2026-09-01 12:04:06 | 45.85914 | 16.73410 | 88° | 77km/h | 14987m | 6.3m/s | -57.6°C | 6.1% | 0hPa | 2.7V | 00:00:00 | 01:00:49 | 00:00:00 | |
| OE5DRO-10 | 2026-09-01 12:03:57 | 45.85902 | 16.73164 | 86° | 78km/h | 14941m | 5.3m/s | -57.5°C | 6.3% | 0hPa | 2.7V | 00:00:00 | 00:00:00 | 00:00:00 | |
| PETON7-10 | 2026-09-01 12:03:55 | 45.85898 | 16.73107 | 85° | 78km/h | 14932m | 4.6m/s | -57.5°C | 6.4% | 0hPa | 2.7V | 00:00:00 | 00:00:00 | 00:00:00 | |
| OE3JTB-15 | 2026-09-01 12:03:54 | 45.85894 | 16.73019 | 88° | 78km/h | 14917m | 5.1m/s | -57.4°C | 6.4% | 0hPa | 2.7V | 00:00:00 | 00:00:00 | 00:00:00 | |
| 9A1FER-3 | 2026-09-01 12:03:51 | 45.85893 | 16.72990 | 89° | 77km/h | 14912m | 5.0m/s | -57.3°C | 6.3% | 0hPa | 2.7V | 00:00:00 | 01:00:34 | 00:00:00 | |
| PETON7-10 | 2026-09-01 12:03:40 | 45.85884 | 16.72680 | 87° | 77km/h | 14855m | 4.6m/s | -57.3°C | 6.2% | 0hPa | 2.7V | 00:00:00 | 00:00:00 | 00:00:00 | |
| OE5DRO-10 | 2026-09-01 12:03:38 | 45.85882 | 16.72625 | 87° | 78km/h | 14845m | 4.6m/s | -57.2°C | 6.3% | 0hPa | 2.7V | 00:00:00 | 00:00:00 | 08:30:00 | |
| 9A1FER-3 | 2026-09-01 12:03:36 | 45.85880 | 16.72571 | 89° | 78km/h | 14835m | 5.5m/s | -57.1°C | 6.2% | 0hPa | 2.7V | 00:00:00 | 01:00:19 | 00:00:00 | |
| PETON7-10 | 2026-09-01 12:03:25 | 45.85870 | 16.72260 | 90° | 84km/h | 14781m | 4.5m/s | -57.1°C | 6.5% | 0hPa | 2.7V | 00:00:00 | 01:00:08 | 00:00:00 | |
| OE3JTB-15 | 2026-09-01 12:03:24 | 45.85872 | 16.72141 | 94° | 88km/h | 14761m | 4.9m/s | -57.1°C | 6.5% | 0hPa | 2.7V | 00:00:00 | 00:00:00 | 00:00:00 | |
| 9A1FER-10 | 2026-09-01 12:03:21 | 45.85872 | 16.72141 | 94° | 88km/h | 14761m | 4.9m/s | -57.1°C | 6.5% | 0hPa | 2.7V | 00:00:00 | 01:00:04 | 00:00:00 | |
| OE5DRO-10 | 2026-09-01 12:03:19 | 45.85875 | 16.72081 | 93° | 88km/h | 14751m | 5.5m/s | -57.2°C | 6.6% | 0hPa | 2.7V | 00:00:00 | 00:00:00 | 00:00:00 | |
| PETON7-10 | 2026-09-01 12:03:11 | 45.85860 | 16.71798 | 83° | 88km/h | 14705m | 4.8m/s | -57.0°C | 6.2% | 0hPa | 2.7V | 00:00:00 | 00:00:00 | 00:00:00 | |
| 9A1FER-3 | 2026-09-01 12:03:06 | 45.85854 | 16.71670 | 89° | 88km/h | 14685m | 4.7m/s | -57.0°C | 6.4% | 0hPa | 2.7V | 00:00:00 | 00:59:49 | 00:00:00 | |
| OE5DRO-10 | 2026-09-01 12:03:00 | 45.85852 | 16.71477 | 89° | 89km/h | 14654m | 6.1m/s | 0°C | 0% | 0hPa | 2.7V | 00:00:00 | 00:00:00 | 00:00:00 | |
| PETON7-10 | 2026-09-01 12:02:55 | 45.85848 | 16.71323 | 90° | 89km/h | 14631m | 5.7m/s | -57.3°C | 6.5% | 0hPa | 2.7V | 00:00:00 | 00:00:00 | 00:00:00 | |
| 9A1FER-10 | 2026-09-01 12:02:51 | 45.85846 | 16.71197 | 87° | 93km/h | 14612m | 5.0m/s | -57.3°C | 6.4% | 0hPa | 2.7V | 00:00:00 | 00:59:34 | 08:30:00 | |
| OE5DRO-10 | 2026-09-01 12:02:41 | 45.85832 | 16.70865 | 90° | 100km/h | 14560m | 4.4m/s | 0°C | 0% | 0hPa | 2.7V | 00:00:00 | 00:00:00 | 00:00:00 | |
| PETON7-10 | 2026-09-01 12:02:40 | 45.85831 | 16.70830 | 89° | 99km/h | 14555m | 6.0m/s | -57.6°C | 6.9% | 0hPa | 2.7V | 00:00:00 | 00:59:23 | 00:00:00 | |
| 9A1FER-10 | 2026-09-01 12:02:36 | 45.85829 | 16.70685 | 87° | 99km/h | 14534m | 5.6m/s | -57.7°C | 6.7% | 0hPa | 2.7V | 00:00:00 | 00:59:19 | 00:00:00 | |
| PETON7-10 | 2026-09-01 12:02:25 | 45.85805 | 16.70298 | 89° | 102km/h | 14479m | 6.1m/s | -57.6°C | 6.8% | 0hPa | 2.7V | 00:00:00 | 00:00:00 | 08:30:00 | |
| 9A1FER-3 | 2026-09-01 12:02:21 | 45.85803 | 16.70150 | 89° | 102km/h | 14458m | 5.6m/s | -57.5°C | 6.9% | 0hPa | 2.7V | 00:00:00 | 00:59:04 | 00:00:00 | |
| OE5DRO-10 | 2026-09-01 12:02:19 | 45.85800 | 16.70077 | 87° | 100km/h | 14448m | 5.0m/s | 0°C | 0% | 0hPa | 2.7V | 00:00:00 | 00:00:00 | 00:00:00 | |
| PETON7-10 | 2026-09-01 12:02:10 | 45.85792 | 16.69746 | 90° | 100km/h | 14405m | 5.6m/s | -57.7°C | 7.2% | 0hPa | 2.7V | 00:00:00 | 00:00:00 | 00:00:00 | |
| 9A1FER-10 | 2026-09-01 12:02:06 | 45.85789 | 16.69596 | 86° | 97km/h | 14385m | 5.7m/s | -57.6°C | 7.1% | 0hPa | 2.7V | 00:00:00 | 00:58:49 | 00:00:00 | |
| PETON7-10 | 2026-09-01 12:01:55 | 45.85775 | 16.69208 | 88° | 95km/h | 14333m | 5.8m/s | -57.7°C | 7.3% | 0hPa | 2.7V | 00:00:00 | 00:58:38 | 00:00:00 | |
| OE3JTB-15 | 2026-09-01 12:01:53 | 45.85768 | 16.69073 | 84° | 104km/h | 14314m | 4.6m/s | -57.9°C | 7.3% | 0hPa | 2.7V | 00:00:00 | 00:00:00 | 00:00:00 | |
| 9A1FER-3 | 2026-09-01 12:01:51 | 45.85768 | 16.69073 | 84° | 97km/h | 14314m | 4.6m/s | -57.9°C | 7.3% | 0hPa | 2.7V | 00:00:00 | 00:58:34 | 00:00:00 | |
| PETON7-10 | 2026-09-01 12:01:40 | 45.85747 | 16.68694 | 88° | 104km/h | 14261m | 5.2m/s | -58.6°C | 7.8% | 0hPa | 2.7V | 00:00:00 | 00:00:00 | 00:00:00 | |
| 9A1FER-10 | 2026-09-01 12:01:36 | 45.85743 | 16.68545 | 90° | 108km/h | 14242m | 4.2m/s | -58.6°C | 7.4% | 0hPa | 2.7V | 00:00:00 | 00:58:19 | 00:00:00 | |
| 9A1FER-10 | 2026-09-01 12:01:21 | 45.85727 | 16.67960 | 85° | 108km/h | 14170m | 5.3m/s | -58.7°C | 7.5% | 0hPa | 2.7V | 00:00:00 | 00:58:04 | 00:00:00 | |
| 9A1FER-3 | 2026-09-01 12:01:06 | 45.85685 | 16.67373 | 85° | 110km/h | 14100m | 5.7m/s | -58.3°C | 7.3% | 0hPa | 2.7V | 00:00:00 | 00:57:49 | 00:00:00 | |
| OE5DRO-10 | 2026-09-01 12:01:05 | 45.85682 | 16.67334 | 85° | 113km/h | 14095m | 4.6m/s | 0°C | 0% | 0hPa | 2.7V | 00:00:00 | 00:00:00 | 00:00:00 | |
| PETON7-10 | 2026-09-01 12:01:04 | 45.85677 | 16.67257 | 84° | 111km/h | 14085m | 4.3m/s | -58.3°C | 7.0% | 0hPa | 2.7V | 00:00:00 | 00:00:00 | 00:00:00 | |
| OE3JTB-15 | 2026-09-01 12:01:02 | 45.85669 | 16.67143 | 86° | 110km/h | 14070m | 5.4m/s | -58.3°C | 7.0% | 0hPa | 2.7V | 00:00:00 | 00:00:00 | 00:00:00 | |
| 9A1FER-10 | 2026-09-01 12:00:51 | 45.85662 | 16.66782 | 89° | 110km/h | 14028m | 4.6m/s | -58.0°C | 7.2% | 0hPa | 2.7V | 00:00:00 | 00:57:34 | 00:00:00 | |
| PETON7-10 | 2026-09-01 12:00:48 | 45.85660 | 16.66662 | 89° | 110km/h | 14013m | 5.7m/s | -58.2°C | 7.1% | 0hPa | 2.7V | 00:00:00 | 00:57:31 | 00:00:00 | |
| 9A1FER-3 | 2026-09-01 12:00:36 | 45.85647 | 16.66191 | 90° | 113km/h | 13956m | 4.7m/s | -57.9°C | 7.2% | 0hPa | 2.7V | 00:00:00 | 00:57:19 | 08:30:00 | |
| OE3JTB-15 | 2026-09-01 12:00:25 | 45.85631 | 16.65661 | 85° | 117km/h | 13897m | 3.2m/s | -57.8°C | 7.4% | 0hPa | 2.7V | 00:00:00 | 00:57:06 | 00:00:00 | |
| 9A1FER-3 | 2026-09-01 12:00:21 | 45.85627 | 16.65580 | 87° | 117km/h | 13889m | 3.9m/s | -57.8°C | 7.4% | 0hPa | 2.7V | 00:00:00 | 00:57:04 | 00:00:00 | |
| 9A1FER-10 | 2026-09-01 12:00:06 | 45.85606 | 16.64946 | 89° | 117km/h | 13820m | 4.6m/s | -58.1°C | 8.1% | 0hPa | 2.7V | 00:00:00 | 00:56:49 | 00:00:00 | |
| OE5DRO-10 | 2026-09-01 12:00:02 | 45.85602 | 16.64778 | 86° | 120km/h | 13800m | 3.9m/s | 0°C | 0% | 0hPa | 2.7V | 00:00:00 | 00:00:00 | 00:00:00 | |
| 9A1FER-10 | 2026-09-01 11:59:51 | 45.85563 | 16.64317 | 86° | 119km/h | 13749m | 3.7m/s | -58.4°C | 8.6% | 0hPa | 2.7V | 00:00:00 | 00:56:34 | 00:00:00 | |
| OE3JTB-15 | 2026-09-01 11:59:45 | 45.85545 | 16.64018 | 84° | 124km/h | 13718m | 3.8m/s | -58.4°C | 9.4% | 0hPa | 2.7V | 00:00:00 | 00:00:00 | 08:30:00 | |
| 9A1FER-3 | 2026-09-01 11:59:36 | 45.85525 | 16.63672 | 91° | 124km/h | 13679m | 4.1m/s | -58.9°C | 9.2% | 0hPa | 2.7V | 00:00:00 | 00:56:19 | 00:00:00 | |
| 9A1FER-10 | 2026-09-01 11:59:21 | 45.85488 | 16.62997 | 87° | 124km/h | 13611m | 4.3m/s | -58.6°C | 9.7% | 0hPa | 2.7V | 00:00:00 | 00:56:04 | 00:00:00 | |
| OE3JTB-15 | 2026-09-01 11:59:16 | 45.85473 | 16.62679 | 86° | 124km/h | 13579m | 4.9m/s | -58.4°C | 9.7% | 0hPa | 2.7V | 00:00:00 | 00:00:00 | 00:00:00 | |
| 9A1FER-3 | 2026-09-01 11:59:06 | 45.85454 | 16.62326 | 85° | 126km/h | 13544m | 3.1m/s | -58.2°C | 9.9% | 0hPa | 2.7V | 00:00:00 | 00:55:49 | 00:00:00 | |
| 9A1FER-10 | 2026-09-01 11:58:51 | 45.85414 | 16.61645 | 86° | 126km/h | 13475m | 4.1m/s | -58.2°C | 10.6% | 0hPa | 2.7V | 00:00:00 | 00:55:34 | 00:00:00 | |
| OE3JTB-15 | 2026-09-01 11:58:46 | 45.85400 | 16.61416 | 84° | 128km/h | 13453m | 4.3m/s | -58.1°C | 10.6% | 0hPa | 2.7V | 00:00:00 | 00:55:29 | 00:00:00 | |
| PETON7-10 | 2026-09-01 11:58:36 | 45.85366 | 16.60965 | 83° | 128km/h | 13405m | 6.1m/s | -58.0°C | 10.9% | 0hPa | 2.7V | 00:00:00 | 00:00:00 | 00:00:00 | |
| PETON7-10 | 2026-09-01 11:58:21 | 45.85327 | 16.60275 | 86° | 126km/h | 13330m | 4.7m/s | -57.8°C | 12.5% | 0hPa | 2.7V | 00:00:00 | 00:55:04 | 00:00:00 | |
| OE3JTB-15 | 2026-09-01 11:58:15 | 45.85311 | 16.59999 | 85° | 131km/h | 13303m | 5.5m/s | -57.8°C | 13.2% | 0hPa | 2.7V | 00:00:00 | 00:00:00 | 00:00:00 | |
| 9A1FER-10 | 2026-09-01 11:58:06 | 45.85286 | 16.59591 | 86° | 126km/h | 13258m | 4.1m/s | -57.6°C | 14.8% | 0hPa | 2.7V | 00:00:00 | 00:54:49 | 00:00:00 | |
| 9A1FER-3 | 2026-09-01 11:57:51 | 45.85233 | 16.58911 | 84° | 131km/h | 13185m | 5.2m/s | -57.5°C | 18.6% | 0hPa | 2.7V | 00:00:00 | 00:54:34 | 00:00:00 | |
| OE5DRO-10 | 2026-09-01 11:57:37 | 45.85188 | 16.58253 | 84° | 139km/h | 13115m | 4.5m/s | 0°C | 0% | 0hPa | 2.7V | 00:00:00 | 00:00:00 | 00:00:00 | |
| 9A1FER-10 | 2026-09-01 11:57:21 | 45.85119 | 16.57468 | 82° | 139km/h | 13035m | 3.9m/s | -57.2°C | 20.5% | 0hPa | 2.7V | 00:00:00 | 00:54:04 | 00:00:00 | |
| OE5DRO-10 | 2026-09-01 11:57:16 | 45.85097 | 16.57218 | 84° | 141km/h | 13011m | 4.9m/s | 0°C | 0% | 0hPa | 2.7V | 00:00:00 | 00:00:00 | 00:00:00 | |
| 9A1FER-3 | 2026-09-01 11:57:06 | 45.85052 | 16.56720 | 82° | 139km/h | 12959m | 5.8m/s | -57.6°C | 23.2% | 0hPa | 2.7V | 00:00:00 | 00:53:49 | 00:00:00 | |
| OE5DRO-10 | 2026-09-01 11:56:56 | 45.84987 | 16.56223 | 78° | 139km/h | 12911m | 5.5m/s | 0°C | 0% | 0hPa | 2.7V | 00:00:00 | 00:00:00 | 00:00:00 | |
| PETON7-10 | 2026-09-01 11:56:51 | 45.84949 | 16.55977 | 79° | 139km/h | 12885m | 5.3m/s | 0°C | 0% | 0hPa | 2.7V | 00:00:00 | 00:53:34 | 00:00:00 | |
| PETON7-10 | 2026-09-01 11:56:36 | 45.84842 | 16.55235 | 80° | 142km/h | 12812m | 5.9m/s | 0°C | 0% | 0hPa | 2.7V | 00:00:00 | 00:00:00 | 00:00:00 | |
| 9A1FER-3 | 2026-09-01 11:56:21 | 45.84742 | 16.54476 | 80° | 141km/h | 12743m | 4.2m/s | -57.9°C | 28.6% | 0hPa | 2.7V | 00:00:00 | 00:53:04 | 00:00:00 | |
| PETON7-10 | 2026-09-01 11:56:18 | 45.84721 | 16.54325 | 78° | 141km/h | 12728m | 5.0m/s | 0°C | 0% | 0hPa | 2.7V | 00:00:00 | 00:00:00 | 00:00:00 | |
| 9A1FER-10 | 2026-09-01 11:56:06 | 45.84645 | 16.53727 | 82° | 141km/h | 12672m | 5.2m/s | -57.6°C | 29.4% | 0hPa | 2.7V | 00:00:00 | 00:52:49 | 08:30:00 | |
| PETON7-10 | 2026-09-01 11:56:03 | 45.84627 | 16.53577 | 80° | 141km/h | 12657m | 4.7m/s | 0°C | 0% | 0hPa | 2.7V | 00:00:00 | 00:52:46 | 00:00:00 | |
| 9A1FER-3 | 2026-09-01 11:55:51 | 45.84550 | 16.52979 | 82° | 139km/h | 12603m | 3.4m/s | -57.4°C | 29.6% | 0hPa | 2.7V | 00:00:00 | 00:52:34 | 00:00:00 | |
| PETON7-10 | 2026-09-01 11:55:48 | 45.84533 | 16.52827 | 81° | 139km/h | 12589m | 4.6m/s | 0°C | 0% | 0hPa | 2.7V | 00:00:00 | 00:00:00 | 00:00:00 | |
| 9A1FER-10 | 2026-09-01 11:55:36 | 45.84460 | 16.52232 | 81° | 141km/h | 12535m | 3.9m/s | -57.1°C | 27.9% | 0hPa | 2.7V | 00:00:00 | 00:52:19 | 00:00:00 | |
| PETON7-10 | 2026-09-01 11:55:28 | 45.84419 | 16.51826 | 81° | 139km/h | 12499m | 5.3m/s | 0°C | 0% | 0hPa | 2.7V | 00:00:00 | 00:00:00 | 00:00:00 | |
| 9A1FER-10 | 2026-09-01 11:55:21 | 45.84375 | 16.51481 | 79° | 142km/h | 12467m | 4.6m/s | -56.8°C | 27.6% | 0hPa | 2.7V | 00:00:00 | 00:52:04 | 00:00:00 | |
| PETON7-10 | 2026-09-01 11:55:06 | 45.84279 | 16.50724 | 81° | 141km/h | 12396m | 6.3m/s | 0°C | 0% | 0hPa | 2.7V | 00:00:00 | 00:51:49 | 00:00:00 | |
| 9A1FER-10 | 2026-09-01 11:54:51 | 45.84205 | 16.49965 | 83° | 139km/h | 12325m | 4.2m/s | -55.6°C | 26.5% | 0hPa | 2.7V | 00:00:00 | 00:51:34 | 00:00:00 | |
| PETON7-10 | 2026-09-01 11:54:37 | 45.84147 | 16.49267 | 85° | 126km/h | 12259m | 5.2m/s | 0°C | 0% | 0hPa | 2.7V | 00:00:00 | 00:00:00 | 00:00:00 | |
| 9A1FER-3 | 2026-09-01 11:54:36 | 45.84143 | 16.49217 | 84° | 141km/h | 12254m | 3.8m/s | -55.4°C | 27.3% | 0hPa | 2.7V | 00:00:00 | 00:51:19 | 00:00:00 | |
| 9A1FER-10 | 2026-09-01 11:54:21 | 45.84077 | 16.48406 | 83° | 141km/h | 12185m | 4.4m/s | -55.0°C | 28.2% | 0hPa | 2.7V | 00:00:00 | 00:51:03 | 00:00:00 | |
| 9A1FER-3 | 2026-09-01 11:54:06 | 45.84008 | 16.47704 | 81° | 139km/h | 12120m | 4.2m/s | -54.8°C | 31.9% | 0hPa | 2.7V | 00:00:00 | 00:50:49 | 00:00:00 | |
| 9A1FER-10 | 2026-09-01 11:54:05 | 45.84002 | 16.47654 | 81° | 139km/h | 12115m | 5.0m/s | -54.9°C | 32.1% | 0hPa | 2.7V | 00:00:00 | 00:50:48 | 00:00:00 | |
| 9A1FER-3 | 2026-09-01 11:53:51 | 45.83907 | 16.46960 | 82° | 139km/h | 12054m | 5.4m/s | -54.9°C | 32.1% | 0hPa | 2.7V | 00:00:00 | 00:50:34 | 08:30:00 | |
| 9A1FER-10 | 2026-09-01 11:53:50 | 45.83901 | 16.46911 | 82° | 141km/h | 12049m | 4.0m/s | -54.9°C | 32.2% | 0hPa | 2.7V | 00:00:00 | 00:50:33 | 08:30:00 | |
| OE3JTB-15 | 2026-09-01 11:53:43 | 45.83866 | 16.46560 | 84° | 139km/h | 12016m | 4.9m/s | -54.8°C | 32.1% | 0hPa | 2.7V | 00:00:00 | 00:00:00 | 00:00:00 | |
| 9A1FER-3 | 2026-09-01 11:53:36 | 45.83842 | 16.46208 | 86° | 141km/h | 11983m | 3.7m/s | -54.6°C | 33.1% | 0hPa | 2.7V | 00:00:00 | 00:50:19 | 00:00:00 | |
| 9A1FER-10 | 2026-09-01 11:53:35 | 45.83838 | 16.46158 | 85° | 141km/h | 11979m | 5.3m/s | -54.6°C | 32.8% | 0hPa | 2.7V | 00:00:00 | 00:50:18 | 00:00:00 | |
| 9A1FER-3 | 2026-09-01 11:53:21 | 45.83799 | 16.45445 | 88° | 137km/h | 11916m | 4.7m/s | -54.1°C | 33.0% | 0hPa | 2.7V | 00:00:00 | 00:50:04 | 00:00:00 | |
| 9A1FER-10 | 2026-09-01 11:53:20 | 45.83797 | 16.45395 | 88° | 137km/h | 11911m | 3.4m/s | -54.1°C | 33.3% | 0hPa | 2.7V | 00:00:00 | 00:50:03 | 00:00:00 | |
| OE3JTB-15 | 2026-09-01 11:53:12 | 45.83767 | 16.44999 | 84° | 137km/h | 11876m | 3.8m/s | -53.9°C | 33.0% | 0hPa | 2.7V | 00:00:00 | 00:49:55 | 00:00:00 | |
| 9A1FER-3 | 2026-09-01 11:53:06 | 45.83754 | 16.44707 | 88° | 135km/h | 11848m | 4.7m/s | -53.7°C | 31.9% | 0hPa | 2.7V | 00:00:00 | 00:49:49 | 00:00:00 | |
| 9A1FER-10 | 2026-09-01 11:53:05 | 45.83752 | 16.44659 | 88° | 135km/h | 11844m | 3.8m/s | -53.7°C | 32.3% | 0hPa | 2.7V | 00:00:00 | 00:49:48 | 00:00:00 | |
| 9A1FER-3 | 2026-09-01 11:52:51 | 45.83712 | 16.43975 | 85° | 137km/h | 11781m | 3.8m/s | -53.5°C | 34.7% | 0hPa | 2.7V | 00:00:00 | 00:49:34 | 00:00:00 | |
| 9A1FER-10 | 2026-09-01 11:52:50 | 45.83708 | 16.43926 | 85° | 137km/h | 11777m | 4.8m/s | -53.5°C | 34.7% | 0hPa | 2.7V | 00:00:00 | 00:49:33 | 00:00:00 | |
| OE3JTB-15 | 2026-09-01 11:52:42 | 45.83678 | 16.43480 | 85° | 133km/h | 11733m | 5.6m/s | -53.4°C | 35.8% | 0hPa | 2.7V | 00:00:00 | 00:00:00 | 00:00:00 | |
| 9A1FER-3 | 2026-09-01 11:52:36 | 45.83660 | 16.43235 | 83° | 133km/h | 11710m | 3.9m/s | -53.5°C | 37.1% | 0hPa | 2.7V | 00:00:00 | 00:49:19 | 00:00:00 | |
| 9A1FER-10 | 2026-09-01 11:52:35 | 45.83656 | 16.43187 | 84° | 133km/h | 11705m | 5.9m/s | -53.4°C | 37.5% | 0hPa | 2.7V | 00:00:00 | 00:49:18 | 00:00:00 | |
| 9A1FER-3 | 2026-09-01 11:52:21 | 45.83616 | 16.42516 | 84° | 130km/h | 11639m | 5.1m/s | -53.3°C | 38.7% | 0hPa | 2.7V | 00:00:00 | 00:49:04 | 00:00:00 | |
| 9A1FER-10 | 2026-09-01 11:52:20 | 45.83612 | 16.42469 | 84° | 130km/h | 11635m | 3.8m/s | -53.3°C | 38.9% | 0hPa | 2.7V | 00:00:00 | 00:49:03 | 00:00:00 | |
| OE3JTB-15 | 2026-09-01 11:52:12 | 45.83597 | 16.42050 | 89° | 130km/h | 11590m | 6.1m/s | -53.1°C | 41.6% | 0hPa | 2.7V | 00:00:00 | 00:00:00 | 00:00:00 | |
| 9A1FER-3 | 2026-09-01 11:52:06 | 45.83588 | 16.41812 | 88° | 130km/h | 11565m | 4.8m/s | -53.2°C | 44.7% | 0hPa | 2.7V | 00:00:00 | 00:48:49 | 00:00:00 | |
| 9A1FER-10 | 2026-09-01 11:52:05 | 45.83587 | 16.41766 | 88° | 130km/h | 11561m | 5.1m/s | -53.2°C | 44.5% | 0hPa | 2.7V | 00:00:00 | 00:48:48 | 00:00:00 | |
| 9A1FER-3 | 2026-09-01 11:51:51 | 45.83563 | 16.41112 | 87° | 130km/h | 11482m | 4.7m/s | -52.9°C | 46.0% | 0hPa | 2.7V | 00:00:00 | 00:48:34 | 00:00:00 | |
| 9A1FER-10 | 2026-09-01 11:51:50 | 45.83560 | 16.41067 | 85° | 130km/h | 11478m | 4.6m/s | -52.9°C | 45.8% | 0hPa | 2.7V | 00:00:00 | 00:48:33 | 00:00:00 | |
| OE3JTB-15 | 2026-09-01 11:51:42 | 45.83548 | 16.40700 | 91° | 128km/h | 11437m | 4.9m/s | -52.5°C | 44.7% | 0hPa | 2.7V | 00:00:00 | 00:48:25 | 00:00:00 | |
| 9A1FER-3 | 2026-09-01 11:51:36 | 45.83542 | 16.40412 | 86° | 126km/h | 11407m | 5.5m/s | -52.4°C | 46.4% | 0hPa | 2.7V | 00:00:00 | 00:48:19 | 08:30:00 | |
| 9A1FER-10 | 2026-09-01 11:51:35 | 45.83539 | 16.40365 | 86° | 126km/h | 11402m | 5.4m/s | -52.4°C | 46.3% | 0hPa | 2.7V | 00:00:00 | 00:48:18 | 08:30:00 | |
| 9A1FER-3 | 2026-09-01 11:51:21 | 45.83512 | 16.39733 | 87° | 128km/h | 11330m | 5.2m/s | -52.0°C | 47.7% | 0hPa | 2.7V | 00:00:00 | 00:48:04 | 00:00:00 | |
| 9A1FER-10 | 2026-09-01 11:51:20 | 45.83510 | 16.39687 | 88° | 128km/h | 11325m | 6.0m/s | -51.9°C | 47.7% | 0hPa | 2.7V | 00:00:00 | 00:48:03 | 00:00:00 | |
| OE3JTB-15 | 2026-09-01 11:51:13 | 45.83498 | 16.39360 | 87° | 124km/h | 11288m | 5.6m/s | -51.7°C | 50.8% | 0hPa | 2.7V | 00:00:00 | 00:00:00 | 08:30:00 | |
| 9A1FER-3 | 2026-09-01 11:51:06 | 45.83484 | 16.39041 | 90° | 124km/h | 11250m | 4.6m/s | -51.6°C | 52.5% | 0hPa | 2.9V | 00:00:00 | 00:47:49 | 00:00:00 | |
| 9A1FER-10 | 2026-09-01 11:51:05 | 45.83483 | 16.38997 | 90° | 124km/h | 11245m | 4.2m/s | -51.6°C | 52.5% | 0hPa | 2.9V | 00:00:00 | 00:47:48 | 00:00:00 | |
| 9A1FER-3 | 2026-09-01 11:50:51 | 45.83460 | 16.38368 | 86° | 120km/h | 11179m | 5.6m/s | -51.2°C | 55.2% | 0hPa | 2.9V | 00:00:00 | 00:47:34 | 00:00:00 | |
| 9A1FER-10 | 2026-09-01 11:50:50 | 45.83457 | 16.38324 | 86° | 120km/h | 11174m | 4.3m/s | -51.2°C | 55.5% | 0hPa | 2.7V | 00:00:00 | 00:47:33 | 00:00:00 | |
| OE3JTB-15 | 2026-09-01 11:50:44 | 45.83440 | 16.38066 | 85° | 119km/h | 11147m | 5.3m/s | -51.1°C | 56.4% | 0hPa | 2.9V | 00:00:00 | 00:00:00 | 00:00:00 | |
| 9A1FER-3 | 2026-09-01 11:50:36 | 45.83415 | 16.37718 | 82° | 119km/h | 11110m | 4.6m/s | -50.8°C | 59.2% | 0hPa | 2.9V | 00:00:00 | 00:47:19 | 00:00:00 | |
| 9A1FER-10 | 2026-09-01 11:50:35 | 45.83410 | 16.37675 | 81° | 119km/h | 11105m | 5.4m/s | -50.7°C | 59.2% | 0hPa | 2.9V | 00:00:00 | 00:47:18 | 00:00:00 | |
| 9A1FER-3 | 2026-09-01 11:50:21 | 45.83368 | 16.37078 | 81° | 115km/h | 11042m | 4.8m/s | -50.4°C | 57.5% | 0hPa | 2.9V | 00:00:00 | 00:47:04 | 00:00:00 | |
| OE3JTB-15 | 2026-09-01 11:50:15 | 45.83344 | 16.36832 | 85° | 113km/h | 11015m | 4.1m/s | -50.1°C | 58.4% | 0hPa | 2.9V | 00:00:00 | 00:46:58 | 00:00:00 | |
| 9A1FER-3 | 2026-09-01 11:50:07 | 45.83313 | 16.36456 | 83° | 111km/h | 10975m | 4.8m/s | -49.8°C | 56.1% | 0hPa | 2.9V | 00:00:00 | 00:46:49 | 00:00:00 | |
| 9A1FER-10 | 2026-09-01 11:50:05 | 45.83309 | 16.36416 | 83° | 111km/h | 10970m | 4.6m/s | -49.8°C | 55.8% | 0hPa | 2.7V | 00:00:00 | 00:46:48 | 00:00:00 | |
| 9A1FER-3 | 2026-09-01 11:49:51 | 45.83262 | 16.35855 | 83° | 111km/h | 10906m | 5.3m/s | -49.4°C | 58.5% | 0hPa | 2.9V | 00:00:00 | 00:46:34 | 00:00:00 | |
| 9A1FER-10 | 2026-09-01 11:49:50 | 45.83258 | 16.35816 | 83° | 111km/h | 10901m | 4.9m/s | -49.4°C | 58.8% | 0hPa | 2.9V | 00:00:00 | 00:46:33 | 00:00:00 | |
| OE3JTB-15 | 2026-09-01 11:49:46 | 45.83242 | 16.35660 | 82° | 108km/h | 10883m | 4.6m/s | -49.2°C | 58.2% | 0hPa | 2.9V | 00:00:00 | 00:00:00 | 00:00:00 | |
| 9A1FER-3 | 2026-09-01 11:49:36 | 45.83218 | 16.35251 | 88° | 106km/h | 10836m | 5.8m/s | -49.0°C | 55.1% | 0hPa | 2.9V | 00:00:00 | 00:46:19 | 00:00:00 | |
| 9A1FER-10 | 2026-09-01 11:49:35 | 45.83216 | 16.35212 | 88° | 106km/h | 10831m | 4.8m/s | -48.9°C | 55.5% | 0hPa | 2.9V | 00:00:00 | 00:46:18 | 00:00:00 | |
| 9A1FER-3 | 2026-09-01 11:49:21 | 45.83176 | 16.34680 | 83° | 104km/h | 10762m | 4.5m/s | -48.5°C | 57.5% | 0hPa | 2.9V | 00:00:00 | 00:46:04 | 08:30:00 | |
| 9A1FER-10 | 2026-09-01 11:49:20 | 45.83173 | 16.34642 | 83° | 102km/h | 10758m | 4.7m/s | -48.5°C | 57.6% | 0hPa | 2.9V | 00:00:00 | 00:46:03 | 08:30:00 | |
| OE3JTB-15 | 2026-09-01 11:49:17 | 45.83162 | 16.34527 | 83° | 100km/h | 10743m | 5.8m/s | -48.4°C | 60.2% | 0hPa | 2.7V | 00:00:00 | 00:00:00 | 00:00:00 | |
| 9A1FER-3 | 2026-09-01 11:49:06 | 45.83132 | 16.34124 | 85° | 100km/h | 10686m | 5.7m/s | -48.0°C | 60.9% | 0hPa | 2.7V | 00:00:00 | 00:45:49 | 00:00:00 | |
| 9A1FER-10 | 2026-09-01 11:49:05 | 45.83129 | 16.34085 | 84° | 100km/h | 10680m | 6.0m/s | -48.0°C | 62.2% | 0hPa | 2.7V | 00:00:00 | 00:45:48 | 00:00:00 | |
| 9A1FER-3 | 2026-09-01 11:48:51 | 45.83090 | 16.33587 | 83° | 97km/h | 10608m | 6.0m/s | -47.4°C | 59.9% | 0hPa | 2.7V | 00:00:00 | 00:45:34 | 00:00:00 | |
| 9A1FER-10 | 2026-09-01 11:48:50 | 45.83086 | 16.33551 | 84° | 97km/h | 10602m | 6.0m/s | -47.3°C | 60.3% | 0hPa | 2.7V | 00:00:00 | 00:45:33 | 00:00:00 | |
| OE3JTB-15 | 2026-09-01 11:48:48 | 45.83081 | 16.33481 | 85° | 100km/h | 10592m | 5.4m/s | -47.3°C | 60.2% | 0hPa | 2.7V | 00:00:00 | 00:45:31 | 00:00:00 | |
| 9A1FER-3 | 2026-09-01 11:48:36 | 45.83058 | 16.33061 | 85° | 102km/h | 10529m | 6.9m/s | -46.7°C | 58.7% | 0hPa | 2.7V | 00:00:00 | 00:45:19 | 00:00:00 | |
| 9A1FER-10 | 2026-09-01 11:48:35 | 45.83056 | 16.33024 | 86° | 102km/h | 10522m | 7.3m/s | -46.6°C | 59.0% | 0hPa | 2.9V | 00:00:00 | 00:45:18 | 00:00:00 | |
| 9A1FER-3 | 2026-09-01 11:48:21 | 45.83031 | 16.32508 | 90° | 100km/h | 10443m | 6.1m/s | -45.9°C | 55.3% | 0hPa | 2.9V | 00:00:00 | 00:45:04 | 00:00:00 | |
| OE3JTB-15 | 2026-09-01 11:48:19 | 45.83030 | 16.32433 | 88° | 100km/h | 10433m | 6.1m/s | -45.9°C | 55.4% | 0hPa | 2.9V | 00:00:00 | 00:00:00 | 00:00:00 | |
| 9A1FER-10 | 2026-09-01 11:48:18 | 45.83028 | 16.32396 | 87° | 100km/h | 10427m | 6.1m/s | -45.8°C | 55.9% | 0hPa | 2.9V | 00:00:00 | 00:45:01 | 00:00:00 | |
| 9A1FER-3 | 2026-09-01 11:48:06 | 45.83002 | 16.31962 | 87° | 99km/h | 10362m | 6.5m/s | -45.3°C | 52.9% | 0hPa | 2.9V | 00:00:00 | 00:44:49 | 00:00:00 | |
| 9A1FER-10 | 2026-09-01 11:48:03 | 45.82996 | 16.31850 | 85° | 99km/h | 10342m | 5.1m/s | -45.1°C | 52.6% | 0hPa | 2.9V | 00:00:00 | 00:44:46 | 00:00:00 | |
| 9A1FER-3 | 2026-09-01 11:47:51 | 45.82964 | 16.31427 | 83° | 100km/h | 10279m | 5.1m/s | -44.6°C | 52.6% | 0hPa | 2.9V | 00:00:00 | 00:44:34 | 00:00:00 | |
| OE3JTB-15 | 2026-09-01 11:47:50 | 45.82961 | 16.31390 | 84° | 100km/h | 10273m | 6.2m/s | -44.5°C | 52.6% | 0hPa | 2.9V | 00:00:00 | 00:00:00 | 00:00:00 | |
| 9A1FER-10 | 2026-09-01 11:47:48 | 45.82956 | 16.31314 | 85° | 100km/h | 10261m | 6.3m/s | -44.4°C | 53.1% | 0hPa | 2.9V | 00:00:00 | 00:44:31 | 00:00:00 | |
| 9A1FER-3 | 2026-09-01 11:47:36 | 45.82921 | 16.30885 | 83° | 100km/h | 10192m | 4.6m/s | -43.9°C | 56.5% | 0hPa | 2.7V | 00:00:00 | 00:44:19 | 00:00:00 | |
| 9A1FER-10 | 2026-09-01 11:47:33 | 45.82911 | 16.30777 | 82° | 100km/h | 10176m | 6.2m/s | -43.8°C | 57.1% | 0hPa | 2.7V | 00:00:00 | 00:44:16 | 00:00:00 | |
| OE3JTB-15 | 2026-09-01 11:47:21 | 45.82876 | 16.30345 | 84° | 99km/h | 10111m | 4.4m/s | 0°C | 0% | 0hPa | 2.7V | 00:00:00 | 00:44:04 | 00:00:00 | |
| 9A1FER-10 | 2026-09-01 11:47:17 | 45.82868 | 16.30203 | 86° | 100km/h | 10093m | 4.4m/s | -43.1°C | 56.7% | 0hPa | 2.7V | 00:00:00 | 00:44:00 | 00:00:00 | |
| 9A1FER-3 | 2026-09-01 11:47:06 | 45.82836 | 16.29807 | 86° | 97km/h | 10033m | 6.3m/s | -42.5°C | 54.0% | 0hPa | 2.7V | 00:00:00 | 00:43:49 | 08:30:00 | |
| 9A1FER-10 | 2026-09-01 11:47:02 | 45.82827 | 16.29666 | 83° | 95km/h | 10007m | 5.9m/s | -42.3°C | 53.2% | 0hPa | 2.9V | 00:00:00 | 00:43:45 | 08:30:00 | |
| OE3JTB-15 | 2026-09-01 11:46:53 | 45.82791 | 16.29317 | 80° | 93km/h | 9953m | 4.0m/s | 0°C | 0% | 0hPa | 2.9V | 00:00:00 | 00:00:00 | 00:00:00 | |
| 9A1FER-3 | 2026-09-01 11:46:51 | 45.82787 | 16.29283 | 81° | 95km/h | 9948m | 5.6m/s | -41.8°C | 52.2% | 0hPa | 2.9V | 00:00:00 | 00:43:34 | 00:00:00 | |
| 9A1FER-10 | 2026-09-01 11:46:47 | 45.82775 | 16.29149 | 86° | 97km/h | 9924m | 6.0m/s | -41.6°C | 53.0% | 0hPa | 2.9V | 00:00:00 | 00:43:30 | 00:00:00 | |
| 9A1FER-3 | 2026-09-01 11:46:36 | 45.82749 | 16.28766 | 86° | 99km/h | 9861m | 6.1m/s | -41.1°C | 54.4% | 0hPa | 2.9V | 00:00:00 | 00:43:19 | 00:00:00 | |
| 9A1FER-10 | 2026-09-01 11:46:33 | 45.82738 | 16.28625 | 82° | 99km/h | 9840m | 5.7m/s | -41.0°C | 54.6% | 0hPa | 2.9V | 00:00:00 | 00:43:15 | 00:00:00 | |
| 9A1FER-3 | 2026-09-01 11:46:21 | 45.82711 | 16.28233 | 83° | 95km/h | 9790m | 5.0m/s | -40.6°C | 53.1% | 0hPa | 2.9V | 00:00:00 | 00:43:04 | 00:00:00 | |
| 9A1FER-10 | 2026-09-01 11:46:17 | 45.82697 | 16.28095 | 81° | 95km/h | 9767m | 4.3m/s | -40.4°C | 52.6% | 0hPa | 2.9V | 00:00:00 | 00:43:00 | 00:00:00 | |
| 9A1FER-3 | 2026-09-01 11:46:06 | 45.82667 | 16.27719 | 86° | 97km/h | 9714m | 5.1m/s | -40.0°C | 53.9% | 0hPa | 2.7V | 00:00:00 | 00:42:49 | 00:00:00 | |
| 9A1FER-10 | 2026-09-01 11:46:02 | 45.82659 | 16.27580 | 85° | 97km/h | 9691m | 6.5m/s | -39.8°C | 53.6% | 0hPa | 2.7V | 00:00:00 | 00:42:45 | 00:00:00 | |
| 9A1FER-3 | 2026-09-01 11:45:51 | 45.82628 | 16.27200 | 85° | 95km/h | 9638m | 4.7m/s | -39.4°C | 59.2% | 0hPa | 2.7V | 00:00:00 | 00:42:34 | 00:00:00 | |
| 9A1FER-10 | 2026-09-01 11:45:47 | 45.82619 | 16.27059 | 85° | 93km/h | 9617m | 5.7m/s | -39.2°C | 56.6% | 0hPa | 2.7V | 00:00:00 | 00:42:30 | 00:00:00 | |
| 9A1FER-3 | 2026-09-01 11:45:36 | 45.82588 | 16.26687 | 87° | 89km/h | 9550m | 5.7m/s | -38.6°C | 50.5% | 0hPa | 2.7V | 00:00:00 | 00:42:19 | 00:00:00 | |
| 9A1FER-10 | 2026-09-01 11:45:32 | 45.82581 | 16.26559 | 86° | 91km/h | 9529m | 5.4m/s | -38.5°C | 48.7% | 0hPa | 2.9V | 00:00:00 | 00:42:15 | 00:00:00 | |
| 9A1FER-3 | 2026-09-01 11:45:22 | 45.82545 | 16.26204 | 86° | 89km/h | 9471m | 6.6m/s | -38.0°C | 46.5% | 0hPa | 2.9V | 00:00:00 | 00:42:04 | 00:00:00 | |
| 9A1FER-10 | 2026-09-01 11:45:19 | 45.82537 | 16.26072 | 83° | 89km/h | 9448m | 5.0m/s | -37.8°C | 46.2% | 0hPa | 2.9V | 00:00:00 | 00:00:00 | 00:00:00 | |
| 9A1FER-3 | 2026-09-01 11:45:07 | 45.82497 | 16.25722 | 83° | 86km/h | 9387m | 5.8m/s | -37.2°C | 43.2% | 0hPa | 2.9V | 00:00:00 | 00:41:49 | 00:00:00 | |
| 9A1FER-3 | 2026-09-01 11:44:51 | 45.82464 | 16.25264 | 81° | 86km/h | 9318m | 4.6m/s | -36.6°C | 44.8% | 0hPa | 2.9V | 00:00:00 | 00:41:34 | 08:30:00 | |
| 9A1FER-10 | 2026-09-01 11:44:47 | 45.82451 | 16.25141 | 85° | 86km/h | 9300m | 5.3m/s | -36.5°C | 45.9% | 0hPa | 2.9V | 00:00:00 | 00:41:30 | 08:30:00 | |
| 9A1FER-3 | 2026-09-01 11:44:36 | 45.82426 | 16.24806 | 81° | 86km/h | 9249m | 4.9m/s | -36.2°C | 50.9% | 0hPa | 2.7V | 00:00:00 | 00:41:19 | 00:00:00 | |
| 9A1FER-10 | 2026-09-01 11:44:32 | 45.82412 | 16.24682 | 81° | 86km/h | 9232m | 3.6m/s | -36.1°C | 52.7% | 0hPa | 2.7V | 00:00:00 | 00:41:15 | 00:00:00 | |
| 9A1FER-3 | 2026-09-01 11:44:21 | 45.82401 | 16.24344 | 88° | 84km/h | 9180m | 6.1m/s | -35.8°C | 52.7% | 0hPa | 2.7V | 00:00:00 | 00:41:04 | 00:00:00 | |
| 9A1FER-10 | 2026-09-01 11:44:17 | 45.82396 | 16.24222 | 85° | 84km/h | 9156m | 6.3m/s | -35.6°C | 51.5% | 0hPa | 2.7V | 00:00:00 | 00:41:00 | 00:00:00 | |
| 9A1FER-3 | 2026-09-01 11:44:07 | 45.82376 | 16.23894 | 88° | 80km/h | 9093m | 5.6m/s | -35.0°C | 44.3% | 0hPa | 2.7V | 00:00:00 | 00:40:49 | 00:00:00 | |
| 9A1FER-10 | 2026-09-01 11:44:02 | 45.82377 | 16.23770 | 92° | 78km/h | 9069m | 6.5m/s | -34.8°C | 43.3% | 0hPa | 2.9V | 00:00:00 | 00:40:45 | 00:00:00 | |
| 9A1FER-3 | 2026-09-01 11:43:51 | 45.82353 | 16.23460 | 83° | 80km/h | 9004m | 4.9m/s | -34.3°C | 43.4% | 0hPa | 2.9V | 00:00:00 | 00:40:34 | 00:00:00 | |
| 9A1FER-10 | 2026-09-01 11:43:47 | 45.82348 | 16.23350 | 90° | 80km/h | 8986m | 5.6m/s | -34.1°C | 43.6% | 0hPa | 2.9V | 00:00:00 | 00:40:30 | 00:00:00 | |
| 9A1FER-3 | 2026-09-01 11:43:36 | 45.82339 | 16.23030 | 86° | 80km/h | 8932m | 6.3m/s | -33.6°C | 43.6% | 0hPa | 2.9V | 00:00:00 | 00:40:19 | 00:00:00 | |
| 9A1FER-10 | 2026-09-01 11:43:32 | 45.82334 | 16.22918 | 88° | 82km/h | 8913m | 4.3m/s | -33.5°C | 43.7% | 0hPa | 2.9V | 00:00:00 | 00:40:15 | 00:00:00 | |
| 9A1FER-3 | 2026-09-01 11:43:21 | 45.82321 | 16.22591 | 85° | 80km/h | 8866m | 5.1m/s | -33.1°C | 44.3% | 0hPa | 2.9V | 00:00:00 | 00:40:04 | 00:00:00 | |
| 9A1FER-10 | 2026-09-01 11:43:17 | 45.82314 | 16.22476 | 86° | 80km/h | 8844m | 6.2m/s | -33.0°C | 42.8% | 0hPa | 2.9V | 00:00:00 | 00:40:00 | 00:00:00 | |
| 9A1FER-3 | 2026-09-01 11:43:06 | 45.82288 | 16.22160 | 83° | 80km/h | 8775m | 6.0m/s | -32.4°C | 44.7% | 0hPa | 2.9V | 00:00:00 | 00:39:49 | 00:00:00 | |
| 9A1FER-10 | 2026-09-01 11:43:02 | 45.82280 | 16.22042 | 85° | 80km/h | 8757m | 7.0m/s | -32.2°C | 44.2% | 0hPa | 2.9V | 00:00:00 | 00:39:45 | 00:00:00 | |
| 9A1FER-3 | 2026-09-01 11:42:51 | 45.82263 | 16.21728 | 86° | 84km/h | 8695m | 4.3m/s | -31.7°C | 43.2% | 0hPa | 2.9V | 00:00:00 | 00:39:34 | 00:00:00 | |
| 9A1FER-10 | 2026-09-01 11:42:47 | 45.82253 | 16.21608 | 83° | 82km/h | 8676m | 3.5m/s | -31.5°C | 43.7% | 0hPa | 2.9V | 00:00:00 | 00:39:30 | 00:00:00 | |
| 9A1FER-3 | 2026-09-01 11:42:36 | 45.82232 | 16.21278 | 86° | 80km/h | 8628m | 4.7m/s | -31.1°C | 47.2% | 0hPa | 2.9V | 00:00:00 | 00:39:19 | 08:30:00 | |
| 9A1FER-10 | 2026-09-01 11:42:32 | 45.82227 | 16.21160 | 88° | 80km/h | 8612m | 4.3m/s | -31.1°C | 49.1% | 0hPa | 2.7V | 00:00:00 | 00:39:15 | 08:30:00 | |
| 9A1FER-3 | 2026-09-01 11:42:21 | 45.82210 | 16.20839 | 88° | 80km/h | 8561m | 4.7m/s | -30.7°C | 46.4% | 0hPa | 2.9V | 00:00:00 | 00:39:04 | 00:00:00 | |
| 9A1FER-10 | 2026-09-01 11:42:17 | 45.82211 | 16.20721 | 94° | 80km/h | 8544m | 4.5m/s | -30.6°C | 43.7% | 0hPa | 2.9V | 00:00:00 | 00:39:00 | 00:00:00 | |
| 9A1FER-3 | 2026-09-01 11:42:06 | 45.82190 | 16.20406 | 84° | 77km/h | 8493m | 4.6m/s | -30.2°C | 26.6% | 0hPa | 2.9V | 00:00:00 | 00:38:49 | 00:00:00 | |
| 9A1FER-10 | 2026-09-01 11:42:02 | 45.82179 | 16.20290 | 82° | 75km/h | 8472m | 5.2m/s | -30.0°C | 24.5% | 0hPa | 2.9V | 00:00:00 | 00:38:45 | 00:00:00 | |
| 9A1FER-3 | 2026-09-01 11:41:51 | 45.82154 | 16.19996 | 82° | 75km/h | 8409m | 2.9m/s | -29.4°C | 19.4% | 0hPa | 2.9V | 00:00:00 | 00:38:34 | 00:00:00 | |
| 9A1FER-10 | 2026-09-01 11:41:47 | 45.82143 | 16.19888 | 81° | 73km/h | 8385m | 7.0m/s | -29.3°C | 18.8% | 0hPa | 2.9V | 00:00:00 | 00:38:30 | 00:00:00 | |
| 9A1FER-3 | 2026-09-01 11:41:36 | 45.82127 | 16.19594 | 88° | 77km/h | 8319m | 6.5m/s | -28.7°C | 15.6% | 0hPa | 2.9V | 00:00:00 | 00:38:19 | 00:00:00 | |
| 9A1FER-10 | 2026-09-01 11:41:32 | 45.82123 | 16.19492 | 85° | 78km/h | 8293m | 6.4m/s | -28.5°C | 15.9% | 0hPa | 2.9V | 00:00:00 | 00:38:15 | 00:00:00 | |
| 9A1FER-3 | 2026-09-01 11:41:21 | 45.82098 | 16.19176 | 85° | 73km/h | 8231m | 6.6m/s | -28.0°C | 13.0% | 0hPa | 2.9V | 00:00:00 | 00:38:04 | 00:00:00 | |
| 9A1FER-10 | 2026-09-01 11:41:17 | 45.82091 | 16.19064 | 87° | 73km/h | 8206m | 6.6m/s | -27.8°C | 10.8% | 0hPa | 2.9V | 00:00:00 | 00:38:00 | 00:00:00 | |
| 9A1FER-3 | 2026-09-01 11:41:06 | 45.82078 | 16.18784 | 87° | 73km/h | 8140m | 6.2m/s | -27.4°C | 7.7% | 0hPa | 2.9V | 00:00:00 | 00:37:49 | 00:00:00 | |
| 9A1FER-10 | 2026-09-01 11:41:02 | 45.82067 | 16.18669 | 80° | 71km/h | 8117m | 6.3m/s | -27.2°C | 7.6% | 0hPa | 2.7V | 00:00:00 | 00:37:45 | 00:00:00 | |
| 9A1FER-3 | 2026-09-01 11:40:51 | 45.82038 | 16.18391 | 82° | 73km/h | 8058m | 6.7m/s | -26.8°C | 7.1% | 0hPa | 2.9V | 00:00:00 | 00:37:34 | 00:00:00 | |
| 9A1FER-10 | 2026-09-01 11:40:47 | 45.82025 | 16.18284 | 83° | 73km/h | 8034m | 4.7m/s | -26.7°C | 6.8% | 0hPa | 2.9V | 00:00:00 | 00:37:30 | 00:00:00 | |
| 9A1FER-3 | 2026-09-01 11:40:36 | 45.82008 | 16.18002 | 83° | 75km/h | 7975m | 4.1m/s | -26.3°C | 6.3% | 0hPa | 2.9V | 00:00:00 | 00:37:19 | 00:00:00 | |
| 9A1FER-10 | 2026-09-01 11:40:32 | 45.81998 | 16.17892 | 84° | 73km/h | 7952m | 6.9m/s | -26.1°C | 6.1% | 0hPa | 2.9V | 00:00:00 | 00:37:15 | 00:00:00 | |
| 9A1FER-3 | 2026-09-01 11:40:21 | 45.81969 | 16.17599 | 86° | 69km/h | 7886m | 5.0m/s | -25.7°C | 12.6% | 0hPa | 2.9V | 00:00:00 | 00:37:04 | 08:30:00 | |
| 9A1FER-10 | 2026-09-01 11:40:17 | 45.81960 | 16.17496 | 80° | 69km/h | 7867m | 6.2m/s | -25.7°C | 26.8% | 0hPa | 2.9V | 00:00:00 | 00:37:00 | 08:30:00 | |
| 9A1FER-3 | 2026-09-01 11:40:06 | 45.81920 | 16.17227 | 75° | 62km/h | 7811m | 5.3m/s | -25.5°C | 55.8% | 0hPa | 2.9V | 00:00:00 | 00:36:49 | 00:00:00 | |
| 9A1FER-10 | 2026-09-01 11:40:02 | 45.81901 | 16.17132 | 74° | 60km/h | 7792m | 5.8m/s | -25.4°C | 48.8% | 0hPa | 2.9V | 00:00:00 | 00:36:45 | 00:00:00 | |
| 9A1FER-3 | 2026-09-01 11:39:51 | 45.81861 | 16.16898 | 74° | 58km/h | 7733m | 7.6m/s | -24.9°C | 29.5% | 0hPa | 2.9V | 00:00:00 | 00:36:34 | 00:00:00 | |
| 9A1FER-10 | 2026-09-01 11:39:47 | 45.81846 | 16.16815 | 80° | 57km/h | 7706m | 5.0m/s | -24.6°C | 25.4% | 0hPa | 2.9V | 00:00:00 | 00:36:30 | 00:00:00 | |
| 9A1FER-3 | 2026-09-01 11:39:36 | 45.81804 | 16.16593 | 80° | 57km/h | 7640m | 4.9m/s | -23.9°C | 19.0% | 0hPa | 2.9V | 00:00:00 | 00:36:19 | 00:00:00 | |
| 9A1FER-10 | 2026-09-01 11:39:32 | 45.81790 | 16.16523 | 73° | 60km/h | 7618m | 5.4m/s | -23.7°C | 12.5% | 0hPa | 2.9V | 00:00:00 | 00:36:15 | 00:00:00 | |
| 9A1FER-3 | 2026-09-01 11:39:21 | 45.81738 | 16.16299 | 76° | 55km/h | 7557m | 5.1m/s | -23.4°C | 12.6% | 0hPa | 2.9V | 00:00:00 | 00:36:04 | 00:00:00 | |
| 9A1FER-10 | 2026-09-01 11:39:17 | 45.81723 | 16.16212 | 79° | 53km/h | 7538m | 6.4m/s | -23.3°C | 12.4% | 0hPa | 2.9V | 00:00:00 | 00:36:00 | 00:00:00 | |
| 9A1FER-3 | 2026-09-01 11:39:06 | 45.81690 | 16.16015 | 75° | 51km/h | 7482m | 3.4m/s | -22.8°C | 13.0% | 0hPa | 2.9V | 00:00:00 | 00:35:49 | 00:00:00 | |
| 9A1FER-10 | 2026-09-01 11:39:02 | 45.81673 | 16.15939 | 72° | 51km/h | 7461m | 4.7m/s | -22.6°C | 12.8% | 0hPa | 2.9V | 00:00:00 | 00:35:45 | 00:00:00 | |
| 9A1FER-3 | 2026-09-01 11:38:51 | 45.81643 | 16.15743 | 78° | 53km/h | 7406m | 3.4m/s | -22.0°C | 12.5% | 0hPa | 2.9V | 00:00:00 | 00:35:34 | 00:00:00 | |
| 9A1FER-10 | 2026-09-01 11:38:47 | 45.81634 | 16.15666 | 82° | 55km/h | 7387m | 5.4m/s | -21.9°C | 11.7% | 0hPa | 2.7V | 00:00:00 | 00:35:30 | 00:00:00 | |
| 9A1FER-3 | 2026-09-01 11:38:36 | 45.81608 | 16.15457 | 83° | 53km/h | 7331m | 5.0m/s | -21.5°C | 12.3% | 0hPa | 2.9V | 00:00:00 | 00:35:19 | 00:00:00 | |
| 9A1FER-10 | 2026-09-01 11:38:32 | 45.81595 | 16.15379 | 75° | 53km/h | 7311m | 5.1m/s | -21.3°C | 12.1% | 0hPa | 2.9V | 00:00:00 | 00:35:15 | 00:00:00 | |
| 9A1FER-3 | 2026-09-01 11:38:21 | 45.81577 | 16.15174 | 76° | 53km/h | 7250m | 7.1m/s | -20.8°C | 12.3% | 0hPa | 2.9V | 00:00:00 | 00:35:04 | 00:00:00 | |
| 9A1FER-10 | 2026-09-01 11:38:17 | 45.81564 | 16.15100 | 81° | 53km/h | 7223m | 5.7m/s | -20.6°C | 12.2% | 0hPa | 2.9V | 00:00:00 | 00:35:00 | 00:00:00 | |
| 9A1FER-3 | 2026-09-01 11:38:06 | 45.81536 | 16.14893 | 78° | 53km/h | 7159m | 3.9m/s | -20.1°C | 12.1% | 0hPa | 2.9V | 00:00:00 | 00:34:49 | 08:30:00 | |
| 9A1FER-10 | 2026-09-01 11:38:02 | 45.81523 | 16.14822 | 72° | 53km/h | 7134m | 8.2m/s | -19.9°C | 12.2% | 0hPa | 2.9V | 00:00:00 | 00:34:45 | 08:30:00 | |
| 9A1FER-3 | 2026-09-01 11:37:51 | 45.81492 | 16.14615 | 84° | 53km/h | 7074m | 5.2m/s | -19.3°C | 11.9% | 0hPa | 2.9V | 00:00:00 | 00:34:34 | 00:00:00 | |
| 9A1FER-10 | 2026-09-01 11:37:47 | 45.81484 | 16.14542 | 80° | 55km/h | 7049m | 8.6m/s | -19.2°C | 11.6% | 0hPa | 2.9V | 00:00:00 | 00:34:30 | 00:00:00 | |
| 9A1FER-3 | 2026-09-01 11:37:36 | 45.81457 | 16.14327 | 79° | 55km/h | 6987m | 4.9m/s | -18.6°C | 10.8% | 0hPa | 2.9V | 00:00:00 | 00:34:19 | 00:00:00 | |
| 9A1FER-10 | 2026-09-01 11:37:32 | 45.81442 | 16.14249 | 71° | 55km/h | 6968m | 5.5m/s | -18.5°C | 10.6% | 0hPa | 2.9V | 00:00:00 | 00:34:15 | 00:00:00 | |
| 9A1FER-3 | 2026-09-01 11:37:21 | 45.81415 | 16.14035 | 79° | 55km/h | 6911m | 4.1m/s | -17.9°C | 10.5% | 0hPa | 2.9V | 00:00:00 | 00:34:04 | 00:00:00 | |
| 9A1FER-10 | 2026-09-01 11:37:17 | 45.81407 | 16.13956 | 82° | 55km/h | 6893m | 4.2m/s | -17.8°C | 10.4% | 0hPa | 2.9V | 00:00:00 | 00:34:00 | 00:00:00 | |
| 9A1FER-3 | 2026-09-01 11:37:06 | 45.81384 | 16.13744 | 79° | 53km/h | 6836m | 7.6m/s | -17.3°C | 10.2% | 0hPa | 2.7V | 00:00:00 | 00:33:49 | 00:00:00 | |
| 9A1FER-10 | 2026-09-01 11:37:02 | 45.81368 | 16.13663 | 73° | 51km/h | 6812m | 5.1m/s | -17.1°C | 10.1% | 0hPa | 2.7V | 00:00:00 | 00:33:45 | 00:00:00 | |
| 9A1FER-3 | 2026-09-01 11:36:51 | 45.81340 | 16.13468 | 82° | 49km/h | 6753m | 3.9m/s | -16.5°C | 10.2% | 0hPa | 2.7V | 00:00:00 | 00:33:34 | 00:00:00 | |
| 9A1FER-10 | 2026-09-01 11:36:47 | 45.81330 | 16.13393 | 77° | 51km/h | 6732m | 5.3m/s | -16.4°C | 10.2% | 0hPa | 2.7V | 00:00:00 | 00:33:30 | 00:00:00 | |
| 9A1FER-3 | 2026-09-01 11:36:36 | 45.81303 | 16.13201 | 80° | 47km/h | 6670m | 4.4m/s | -15.8°C | 9.8% | 0hPa | 2.7V | 00:00:00 | 00:33:19 | 00:00:00 | |
| 9A1FER-10 | 2026-09-01 11:36:32 | 45.81299 | 16.13123 | 88° | 47km/h | 6650m | 6.4m/s | -15.7°C | 9.6% | 0hPa | 2.9V | 00:00:00 | 00:33:15 | 00:00:00 | |
| 9A1FER-3 | 2026-09-01 11:36:21 | 45.81287 | 16.12943 | 85° | 51km/h | 6591m | 5.6m/s | -15.2°C | 9.4% | 0hPa | 2.9V | 00:00:00 | 00:33:04 | 00:00:00 | |
| 9A1FER-10 | 2026-09-01 11:36:17 | 45.81275 | 16.12867 | 74° | 51km/h | 6570m | 6.2m/s | -15.0°C | 9.2% | 0hPa | 2.9V | 00:00:00 | 00:33:00 | 00:00:00 | |
| 9A1FER-10 | 2026-09-01 11:36:02 | 45.81229 | 16.12596 | 75° | 46km/h | 6492m | 5.1m/s | -14.5°C | 11.4% | 0hPa | 2.9V | 00:00:00 | 00:32:45 | 00:00:00 | |
| 9A1FER-3 | 2026-09-01 11:35:51 | 45.81196 | 16.12425 | 83° | 46km/h | 6440m | 5.3m/s | -14.2°C | 13.2% | 0hPa | 2.9V | 00:00:00 | 00:32:34 | 08:30:00 | |
| 9A1FER-10 | 2026-09-01 11:35:47 | 45.81184 | 16.12354 | 76° | 46km/h | 6418m | 4.2m/s | -14.1°C | 13.0% | 0hPa | 2.9V | 00:00:00 | 00:32:30 | 08:30:00 | |
| 9A1FER-3 | 2026-09-01 11:35:36 | 45.81154 | 16.12184 | 84° | 51km/h | 6358m | 6.6m/s | -13.7°C | 13.7% | 0hPa | 2.9V | 00:00:00 | 00:32:19 | 00:00:00 | |
| 9A1FER-10 | 2026-09-01 11:35:32 | 45.81146 | 16.12118 | 79° | 53km/h | 6334m | 4.2m/s | -13.5°C | 13.5% | 0hPa | 2.9V | 00:00:00 | 00:32:15 | 00:00:00 | |
| 9A1FER-3 | 2026-09-01 11:35:21 | 45.81119 | 16.11912 | 89° | 49km/h | 6283m | 3.7m/s | -13.1°C | 13.2% | 0hPa | 2.9V | 00:00:00 | 00:32:04 | 00:00:00 | |
| 9A1FER-10 | 2026-09-01 11:35:17 | 45.81114 | 16.11836 | 82° | 47km/h | 6263m | 5.8m/s | -12.9°C | 12.9% | 0hPa | 2.9V | 00:00:00 | 00:32:00 | 00:00:00 | |
| 9A1FER-3 | 2026-09-01 11:35:06 | 45.81097 | 16.11649 | 84° | 51km/h | 6210m | 4.6m/s | -12.4°C | 12.5% | 0hPa | 2.9V | 00:00:00 | 00:31:49 | 00:00:00 | |
| 9A1FER-10 | 2026-09-01 11:35:03 | 45.81091 | 16.11577 | 85° | 53km/h | 6190m | 3.4m/s | -12.2°C | 12.3% | 0hPa | 2.9V | 00:00:00 | 00:31:45 | 00:00:00 | |
| 9A1FER-3 | 2026-09-01 11:34:51 | 45.81075 | 16.11372 | 85° | 53km/h | 6139m | 5.9m/s | -11.9°C | 13.2% | 0hPa | 2.9V | 00:00:00 | 00:31:34 | 00:00:00 | |
| 9A1FER-10 | 2026-09-01 11:34:47 | 45.81064 | 16.11293 | 76° | 55km/h | 6118m | 5.0m/s | -11.7°C | 12.9% | 0hPa | 2.9V | 00:00:00 | 00:31:30 | 00:00:00 | |
| 9A1FER-3 | 2026-09-01 11:34:36 | 45.81035 | 16.11087 | 88° | 55km/h | 6058m | 6.0m/s | -11.2°C | 12.2% | 0hPa | 2.9V | 00:00:00 | 00:31:19 | 00:00:00 | |
| 9A1FER-10 | 2026-09-01 11:34:32 | 45.81026 | 16.11003 | 81° | 53km/h | 6036m | 4.5m/s | -11.0°C | 12.0% | 0hPa | 2.9V | 00:00:00 | 00:31:15 | 00:00:00 | |
| 9A1FER-3 | 2026-09-01 11:34:21 | 45.81005 | 16.10798 | 80° | 53km/h | 5976m | 4.2m/s | -10.5°C | 12.0% | 0hPa | 2.9V | 00:00:00 | 00:31:04 | 00:00:00 | |
| 9A1FER-10 | 2026-09-01 11:34:17 | 45.80993 | 16.10724 | 75° | 51km/h | 5953m | 5.2m/s | -10.3°C | 11.7% | 0hPa | 2.9V | 00:00:00 | 00:31:00 | 00:00:00 | |
| 9A1FER-3 | 2026-09-01 11:34:06 | 45.80979 | 16.10519 | 83° | 57km/h | 5891m | 4.7m/s | -9.8°C | 11.3% | 0hPa | 2.9V | 00:00:00 | 00:30:49 | 00:00:00 | |
| 9A1FER-10 | 2026-09-01 11:34:02 | 45.80966 | 16.10448 | 75° | 60km/h | 5868m | 6.2m/s | -9.7°C | 11.1% | 0hPa | 2.9V | 00:00:00 | 00:30:45 | 00:00:00 | |
| 9A1FER-3 | 2026-09-01 11:33:51 | 45.80952 | 16.10214 | 91° | 55km/h | 5812m | 5.0m/s | -9.2°C | 10.8% | 0hPa | 2.9V | 00:00:00 | 00:30:34 | 00:00:00 | |
| 9A1FER-10 | 2026-09-01 11:33:47 | 45.80949 | 16.10125 | 84° | 53km/h | 5791m | 5.6m/s | -9.1°C | 10.9% | 0hPa | 2.9V | 00:00:00 | 00:30:30 | 00:00:00 | |
| 9A1FER-3 | 2026-09-01 11:33:36 | 45.80945 | 16.09918 | 92° | 55km/h | 5738m | 5.6m/s | -8.8°C | 12.6% | 0hPa | 2.9V | 00:00:00 | 00:30:19 | 08:30:00 | |
| 9A1FER-10 | 2026-09-01 11:33:32 | 45.80947 | 16.09836 | 92° | 55km/h | 5713m | 7.5m/s | -8.7°C | 14.0% | 0hPa | 2.9V | 00:00:00 | 00:30:15 | 08:30:00 | |
| 9A1FER-10 | 2026-09-01 11:33:17 | 45.80958 | 16.09541 | 92° | 49km/h | 5631m | 6.8m/s | -8.0°C | 13.2% | 0hPa | 2.9V | 00:00:00 | 00:30:00 | 00:00:00 | |
| 9A1FER-3 | 2026-09-01 11:33:06 | 45.80967 | 16.09350 | 93° | 51km/h | 5571m | 4.9m/s | -7.6°C | 13.5% | 0hPa | 2.9V | 00:00:00 | 00:29:49 | 00:00:00 | |
| 9A1FER-10 | 2026-09-01 11:33:02 | 45.80973 | 16.09277 | 99° | 51km/h | 5547m | 5.3m/s | -7.4°C | 13.8% | 0hPa | 2.9V | 00:00:00 | 00:29:45 | 00:00:00 | |
| 9A1FER-3 | 2026-09-01 11:32:51 | 45.80986 | 16.09077 | 97° | 49km/h | 5490m | 6.0m/s | -7.0°C | 12.0% | 0hPa | 2.9V | 00:00:00 | 00:29:34 | 00:00:00 | |
| 9A1FER-10 | 2026-09-01 11:32:47 | 45.80991 | 16.09006 | 99° | 47km/h | 5461m | 6.4m/s | -6.9°C | 12.5% | 0hPa | 2.9V | 00:00:00 | 00:29:30 | 00:00:00 | |
| 9A1FER-3 | 2026-09-01 11:32:36 | 45.81018 | 16.08820 | 91° | 46km/h | 5409m | 5.1m/s | -6.7°C | 15.5% | 0hPa | 2.9V | 00:00:00 | 00:29:19 | 00:00:00 | |
| 9A1FER-10 | 2026-09-01 11:32:32 | 45.81022 | 16.08749 | 102° | 44km/h | 5387m | 7.6m/s | -6.6°C | 16.0% | 0hPa | 2.9V | 00:00:00 | 00:29:15 | 00:00:00 | |
| 9A1FER-3 | 2026-09-01 11:32:21 | 45.81037 | 16.08579 | 103° | 46km/h | 5324m | 5.5m/s | -6.2°C | 17.1% | 0hPa | 2.9V | 00:00:00 | 00:29:04 | 00:00:00 | |
| 9A1FER-10 | 2026-09-01 11:32:17 | 45.81046 | 16.08512 | 102° | 47km/h | 5300m | 6.7m/s | -6.1°C | 16.9% | 0hPa | 2.9V | 00:00:00 | 00:29:00 | 00:00:00 | |
| 9A1FER-3 | 2026-09-01 11:32:06 | 45.81053 | 16.08330 | 95° | 47km/h | 5237m | 5.7m/s | -5.6°C | 17.4% | 0hPa | 2.9V | 00:00:00 | 00:28:49 | 00:00:00 | |
| 9A1FER-10 | 2026-09-01 11:32:02 | 45.81058 | 16.08261 | 98° | 47km/h | 5213m | 5.3m/s | -5.3°C | 17.3% | 0hPa | 2.9V | 00:00:00 | 00:28:45 | 00:00:00 | |
| 9A1FER-3 | 2026-09-01 11:31:51 | 45.81062 | 16.08073 | 91° | 47km/h | 5164m | 3.2m/s | -4.9°C | 17.4% | 0hPa | 3.0V | 00:00:00 | 00:28:34 | 00:00:00 | |
| 9A1FER-10 | 2026-09-01 11:31:47 | 45.81061 | 16.08007 | 91° | 49km/h | 5141m | 4.8m/s | -4.7°C | 16.4% | 0hPa | 3.0V | 00:00:00 | 00:28:30 | 00:00:00 | |
| 9A1FER-3 | 2026-09-01 11:31:36 | 45.81066 | 16.07812 | 90° | 53km/h | 5093m | 4.0m/s | -4.3°C | 13.6% | 0hPa | 3.0V | 00:00:00 | 00:28:19 | 00:00:00 | |
| 9A1FER-10 | 2026-09-01 11:31:32 | 45.81064 | 16.07734 | 89° | 49km/h | 5076m | 5.4m/s | -4.2°C | 12.2% | 0hPa | 3.0V | 00:00:00 | 00:28:15 | 00:00:00 | |
| 9A1FER-3 | 2026-09-01 11:31:21 | 45.81055 | 16.07532 | 94° | 57km/h | 5014m | 4.4m/s | -3.8°C | 9.9% | 0hPa | 3.0V | 00:00:00 | 00:28:04 | 08:30:00 | |
| 9A1FER-10 | 2026-09-01 11:31:17 | 45.81053 | 16.07467 | 90° | 60km/h | 4998m | 3.0m/s | -3.6°C | 9.4% | 0hPa | 2.9V | 00:00:00 | 00:28:00 | 08:30:00 | |
| 9A1FER-3 | 2026-09-01 11:31:06 | 45.81059 | 16.07223 | 89° | 55km/h | 4945m | 5.1m/s | -3.2°C | 8.7% | 0hPa | 3.0V | 00:00:00 | 00:27:49 | 00:00:00 | |
| 9A1FER-10 | 2026-09-01 11:31:02 | 45.81060 | 16.07143 | 92° | 57km/h | 4926m | 3.6m/s | -3.1°C | 8.6% | 0hPa | 3.0V | 00:00:00 | 00:27:45 | 00:00:00 | |
| 9A1FER-3 | 2026-09-01 11:30:51 | 45.81043 | 16.06932 | 90° | 60km/h | 4869m | 6.7m/s | -3.1°C | 9.4% | 0hPa | 3.0V | 00:00:00 | 00:27:34 | 00:00:00 | |
| 9A1FER-10 | 2026-09-01 11:30:47 | 45.81048 | 16.06840 | 96° | 62km/h | 4847m | 6.5m/s | -3.2°C | 9.7% | 0hPa | 3.0V | 00:00:00 | 00:27:30 | 00:00:00 | |
| 9A1FER-3 | 2026-09-01 11:30:36 | 45.81055 | 16.06603 | 98° | 62km/h | 4790m | 6.1m/s | -3.0°C | 10.6% | 0hPa | 3.0V | 00:00:00 | 00:27:19 | 00:00:00 | |
| 9A1FER-10 | 2026-09-01 11:30:32 | 45.81062 | 16.06506 | 94° | 60km/h | 4772m | 2.6m/s | -3.0°C | 11.0% | 0hPa | 3.0V | 00:00:00 | 00:27:15 | 00:00:00 | |
| 9A1FER-3 | 2026-09-01 11:30:21 | 45.81084 | 16.06267 | 104° | 66km/h | 4720m | 5.2m/s | -2.8°C | 12.1% | 0hPa | 3.0V | 00:00:00 | 00:27:04 | 00:00:00 | |
| 9A1FER-10 | 2026-09-01 11:30:17 | 45.81097 | 16.06180 | 101° | 66km/h | 4701m | 5.1m/s | -2.7°C | 12.1% | 0hPa | 3.0V | 00:00:00 | 00:27:00 | 00:00:00 | |
| 9A1FER-3 | 2026-09-01 11:30:06 | 45.81123 | 16.05911 | 96° | 64km/h | 4649m | 3.1m/s | -2.6°C | 12.8% | 0hPa | 3.0V | 00:00:00 | 00:26:49 | 00:00:00 | |
| 9A1FER-10 | 2026-09-01 11:30:02 | 45.81137 | 16.05825 | 107° | 64km/h | 4631m | 8.3m/s | -2.5°C | 12.6% | 0hPa | 3.0V | 00:00:00 | 00:26:45 | 00:00:00 | |
| 9A1FER-3 | 2026-09-01 11:29:51 | 45.81174 | 16.05575 | 111° | 57km/h | 4569m | 6.7m/s | -2.1°C | 12.5% | 0hPa | 3.0V | 00:00:00 | 00:26:34 | 00:00:00 | |
| 9A1FER-10 | 2026-09-01 11:29:47 | 45.81189 | 16.05491 | 98° | 57km/h | 4549m | 6.2m/s | -1.9°C | 12.6% | 0hPa | 3.0V | 00:00:00 | 00:26:30 | 00:00:00 | |
| 9A1FER-3 | 2026-09-01 11:29:36 | 45.81225 | 16.05279 | 115° | 57km/h | 4492m | 5.0m/s | -2.0°C | 15.8% | 0hPa | 3.0V | 00:00:00 | 00:26:19 | 00:00:00 | |
| 9A1FER-10 | 2026-09-01 11:29:32 | 45.81246 | 16.05199 | 107° | 57km/h | 4469m | 4.1m/s | -2.0°C | 14.9% | 0hPa | 3.0V | 00:00:00 | 00:26:15 | 00:00:00 | |
| 9A1FER-3 | 2026-09-01 11:29:21 | 45.81292 | 16.04983 | 107° | 57km/h | 4410m | 6.3m/s | -2.0°C | 17.8% | 0hPa | 3.0V | 00:00:00 | 00:26:04 | 00:00:00 | |
| 9A1FER-10 | 2026-09-01 11:29:17 | 45.81308 | 16.04901 | 102° | 58km/h | 4388m | 4.1m/s | -1.9°C | 17.7% | 0hPa | 3.0V | 00:00:00 | 00:26:00 | 00:00:00 | |
| 9A1FER-3 | 2026-09-01 11:29:06 | 45.81333 | 16.04677 | 112° | 51km/h | 4333m | 5.5m/s | -1.6°C | 18.8% | 0hPa | 3.0V | 00:00:00 | 00:25:49 | 08:30:00 | |
| 9A1FER-10 | 2026-09-01 11:29:02 | 45.81356 | 16.04599 | 112° | 47km/h | 4309m | 5.3m/s | -1.6°C | 19.8% | 0hPa | 3.0V | 00:00:00 | 00:25:45 | 08:30:00 | |
| 9A1FER-3 | 2026-09-01 11:28:51 | 45.81400 | 16.04422 | 117° | 47km/h | 4253m | 5.3m/s | -1.5°C | 15.1% | 0hPa | 3.0V | 00:00:00 | 00:25:34 | 00:00:00 | |
| 9A1FER-10 | 2026-09-01 11:28:47 | 45.81422 | 16.04360 | 110° | 47km/h | 4236m | 3.1m/s | -1.3°C | 13.6% | 0hPa | 3.0V | 00:00:00 | 00:25:30 | 00:00:00 | |
| 9A1FER-3 | 2026-09-01 11:28:36 | 45.81463 | 16.04180 | 113° | 44km/h | 4185m | 5.7m/s | -1.7°C | 12.2% | 0hPa | 3.0V | 00:00:00 | 00:25:19 | 00:00:00 | |
| 9A1FER-10 | 2026-09-01 11:28:32 | 45.81479 | 16.04125 | 116° | 44km/h | 4166m | 3.1m/s | -1.6°C | 13.8% | 0hPa | 3.0V | 00:00:00 | 00:25:15 | 00:00:00 | |
| 9A1FER-3 | 2026-09-01 11:28:21 | 45.81529 | 16.03960 | 108° | 42km/h | 4110m | 5.4m/s | -1.4°C | 17.5% | 0hPa | 3.0V | 00:00:00 | 00:25:04 | 00:00:00 | |
| 9A1FER-10 | 2026-09-01 11:28:17 | 45.81541 | 16.03902 | 105° | 46km/h | 4092m | 4.1m/s | -1.2°C | 18.1% | 0hPa | 3.0V | 00:00:00 | 00:25:00 | 00:00:00 | |
| 9A1FER-3 | 2026-09-01 11:28:06 | 45.81597 | 16.03753 | 124° | 53km/h | 4036m | 3.3m/s | -1.0°C | 24.2% | 0hPa | 3.0V | 00:00:00 | 00:24:49 | 00:00:00 | |
| 9A1FER-10 | 2026-09-01 11:28:02 | 45.81622 | 16.03680 | 110° | 53km/h | 4015m | 6.9m/s | -1.0°C | 25.5% | 0hPa | 3.0V | 00:00:00 | 00:24:45 | 00:00:00 | |
| 9A1FER-3 | 2026-09-01 11:27:51 | 45.81684 | 16.03493 | 115° | 51km/h | 3955m | 6.2m/s | -0.7°C | 27.5% | 0hPa | 3.0V | 00:00:00 | 00:24:34 | 00:00:00 | |
| 9A1FER-10 | 2026-09-01 11:27:47 | 45.81708 | 16.03417 | 114° | 47km/h | 3937m | 2.5m/s | -0.6°C | 27.6% | 0hPa | 3.0V | 00:00:00 | 00:24:30 | 00:00:00 | |
| 9A1FER-3 | 2026-09-01 11:27:36 | 45.81760 | 16.03237 | 114° | 46km/h | 3881m | 4.5m/s | -0.2°C | 23.0% | 0hPa | 3.0V | 00:00:00 | 00:24:19 | 00:00:00 | |
| 9A1FER-10 | 2026-09-01 11:27:32 | 45.81777 | 16.03175 | 117° | 46km/h | 3865m | 5.9m/s | -0.2°C | 24.0% | 0hPa | 3.0V | 00:00:00 | 00:24:15 | 00:00:00 | |
| 9A1FER-3 | 2026-09-01 11:27:21 | 45.81846 | 16.03025 | 120° | 42km/h | 3801m | 4.5m/s | 0.1°C | 22.4% | 0hPa | 3.0V | 00:00:00 | 00:24:04 | 00:00:00 | |
| 9A1FER-10 | 2026-09-01 11:27:17 | 45.81876 | 16.02970 | 131° | 40km/h | 3781m | 8.0m/s | 0.2°C | 21.8% | 0hPa | 3.0V | 00:00:00 | 00:24:00 | 00:00:00 | |
| 9A1FER-3 | 2026-09-01 11:27:06 | 45.81945 | 16.02851 | 139° | 42km/h | 3724m | 4.9m/s | 0.6°C | 21.3% | 0hPa | 3.0V | 00:00:00 | 00:23:49 | 00:00:00 | |
| 9A1FER-10 | 2026-09-01 11:27:02 | 45.81975 | 16.02812 | 132° | 40km/h | 3709m | 3.7m/s | 0.8°C | 20.9% | 0hPa | 3.0V | 00:00:00 | 00:23:45 | 00:00:00 | |
| 9A1FER-3 | 2026-09-01 11:26:51 | 45.82056 | 16.02690 | 130° | 37km/h | 3649m | 3.4m/s | 1.0°C | 26.8% | 0hPa | 3.0V | 00:00:00 | 00:23:34 | 08:30:00 | |
| 9A1FER-10 | 2026-09-01 11:26:47 | 45.82078 | 16.02652 | 131° | 37km/h | 3633m | 3.5m/s | 1.0°C | 30.0% | 0hPa | 3.0V | 00:00:00 | 00:23:30 | 08:30:00 | |
| 9A1FER-3 | 2026-09-01 11:26:36 | 45.82148 | 16.02540 | 138° | 33km/h | 3569m | 6.0m/s | 1.0°C | 45.4% | 0hPa | 3.0V | 00:00:00 | 00:23:19 | 00:00:00 | |
| 9A1FER-10 | 2026-09-01 11:26:32 | 45.82173 | 16.02505 | 131° | 33km/h | 3548m | 4.6m/s | 1.2°C | 47.8% | 0hPa | 3.0V | 00:00:00 | 00:23:15 | 00:00:00 | |
| 9A1FER-3 | 2026-09-01 11:26:21 | 45.82218 | 16.02396 | 117° | 35km/h | 3494m | 4.8m/s | 1.6°C | 51.5% | 0hPa | 3.0V | 00:00:00 | 00:23:04 | 00:00:00 | |
| 9A1FER-10 | 2026-09-01 11:26:17 | 45.82233 | 16.02351 | 120° | 35km/h | 3474m | 5.8m/s | 1.7°C | 53.6% | 0hPa | 3.0V | 00:00:00 | 00:23:00 | 00:00:00 | |
| 9A1FER-10 | 2026-09-01 11:26:02 | 45.82300 | 16.02193 | 129° | 31km/h | 3402m | 3.3m/s | 2.3°C | 57.1% | 0hPa | 3.0V | 00:00:00 | 00:22:45 | 00:00:00 | |
| 9A1FER-3 | 2026-09-01 11:25:51 | 45.82339 | 16.02084 | 125° | 31km/h | 3351m | 5.6m/s | 2.8°C | 58.7% | 0hPa | 3.0V | 00:00:00 | 00:22:34 | 00:00:00 | |
| 9A1FER-10 | 2026-09-01 11:25:47 | 45.82352 | 16.02048 | 124° | 31km/h | 3327m | 6.5m/s | 3.0°C | 59.6% | 0hPa | 3.0V | 00:00:00 | 00:22:30 | 00:00:00 | |
| 9A1FER-3 | 2026-09-01 11:25:36 | 45.82406 | 16.01949 | 115° | 31km/h | 3269m | 8.7m/s | 3.4°C | 59.9% | 0hPa | 3.0V | 00:00:00 | 00:22:19 | 00:00:00 | |
| 9A1FER-10 | 2026-09-01 11:25:32 | 45.82417 | 16.01909 | 112° | 35km/h | 3239m | 6.1m/s | 3.5°C | 66.7% | 0hPa | 3.0V | 00:00:00 | 00:22:15 | 00:00:00 | |
| 9A1FER-3 | 2026-09-01 11:25:21 | 45.82466 | 16.01799 | 119° | 35km/h | 3187m | 3.7m/s | 3.7°C | 73.0% | 0hPa | 3.0V | 00:00:00 | 00:22:04 | 00:00:00 | |
| 9A1FER-10 | 2026-09-01 11:25:17 | 45.82484 | 16.01754 | 129° | 31km/h | 3164m | 4.2m/s | 3.4°C | 85.7% | 0hPa | 3.0V | 00:00:00 | 00:22:00 | 00:00:00 | |
| 9A1FER-3 | 2026-09-01 11:25:06 | 45.82539 | 16.01649 | 115° | 24km/h | 3103m | 5.4m/s | 3.4°C | 94.8% | 0hPa | 3.0V | 00:00:00 | 00:21:49 | 00:00:00 | |
| 9A1FER-10 | 2026-09-01 11:25:02 | 45.82549 | 16.01615 | 117° | 22km/h | 3077m | 6.4m/s | 3.6°C | 93.8% | 0hPa | 3.0V | 00:00:00 | 00:21:45 | 00:00:00 | |
| 9A1FER-3 | 2026-09-01 11:24:51 | 45.82577 | 16.01532 | 106° | 22km/h | 3013m | 7.7m/s | 3.8°C | 93.9% | 0hPa | 3.0V | 00:00:00 | 00:21:34 | 00:00:00 | |
| 9A1FER-10 | 2026-09-01 11:24:47 | 45.82574 | 16.01502 | 67° | 22km/h | 2988m | 5.5m/s | 4.1°C | 92.3% | 0hPa | 3.0V | 00:00:00 | 00:21:30 | 00:00:00 | |
| 9A1FER-3 | 2026-09-01 11:24:36 | 45.82573 | 16.01421 | 100° | 20km/h | 2936m | 5.2m/s | 4.4°C | 88.6% | 0hPa | 3.0V | 00:00:00 | 00:21:19 | 08:30:00 | |
| 9A1FER-10 | 2026-09-01 11:24:32 | 45.82574 | 16.01386 | 97° | 18km/h | 2913m | 6.8m/s | 4.6°C | 87.4% | 0hPa | 3.0V | 00:00:00 | 00:21:15 | 08:30:00 | |
| 9A1FER-3 | 2026-09-01 11:24:21 | 45.82575 | 16.01315 | 78° | 22km/h | 2854m | 8.8m/s | 4.9°C | 83.8% | 0hPa | 3.0V | 00:00:00 | 00:21:04 | 00:00:00 | |
| 9A1FER-10 | 2026-09-01 11:24:17 | 45.82564 | 16.01288 | 43° | 20km/h | 2825m | 5.0m/s | 5.1°C | 82.6% | 0hPa | 3.0V | 00:00:00 | 00:21:00 | 00:00:00 | |
| 9A1FER-3 | 2026-09-01 11:24:06 | 45.82532 | 16.01217 | 73° | 18km/h | 2763m | 5.4m/s | 5.6°C | 76.7% | 0hPa | 3.0V | 00:00:00 | 00:20:49 | 00:00:00 | |
| 9A1FER-10 | 2026-09-01 11:24:02 | 45.82526 | 16.01196 | 43° | 20km/h | 2740m | 7.0m/s | 5.7°C | 75.6% | 0hPa | 3.0V | 00:00:00 | 00:20:45 | 00:00:00 | |
| 9A1FER-3 | 2026-09-01 11:23:51 | 45.82476 | 16.01167 | 8° | 15km/h | 2678m | 4.6m/s | 6.1°C | 71.5% | 0hPa | 3.0V | 00:00:00 | 00:20:34 | 00:00:00 | |
| 9A1FER-10 | 2026-09-01 11:23:47 | 45.82458 | 16.01156 | 35° | 15km/h | 2662m | 4.9m/s | 6.1°C | 69.4% | 0hPa | 3.0V | 00:00:00 | 00:20:30 | 00:00:00 | |
| 9A1FER-3 | 2026-09-01 11:23:36 | 45.82430 | 16.01125 | 50° | 22km/h | 2610m | 4.7m/s | 6.4°C | 61.7% | 0hPa | 3.0V | 00:00:00 | 00:20:19 | 00:00:00 | |
| 9A1FER-10 | 2026-09-01 11:23:32 | 45.82417 | 16.01104 | 38° | 20km/h | 2586m | 4.7m/s | 6.4°C | 53.0% | 0hPa | 3.0V | 00:00:00 | 00:20:15 | 00:00:00 | |
| 9A1FER-10 | 2026-09-01 11:23:17 | 45.82348 | 16.01105 | 331° | 22km/h | 2509m | 4.7m/s | 6.9°C | 49.3% | 0hPa | 3.0V | 00:00:00 | 00:20:00 | 00:00:00 | |
| 9A1FER-3 | 2026-09-01 11:23:06 | 45.82293 | 16.01115 | 340° | 18km/h | 2457m | 7.8m/s | 7.3°C | 51.2% | 0hPa | 3.0V | 00:00:00 | 00:19:49 | 00:00:00 | |
| 9A1FER-10 | 2026-09-01 11:23:02 | 45.82271 | 16.01131 | 321° | 15km/h | 2437m | 5.3m/s | 7.4°C | 51.3% | 0hPa | 3.0V | 00:00:00 | 00:19:45 | 00:00:00 | |
| 9A1FER-3 | 2026-09-01 11:22:51 | 45.82240 | 16.01175 | 353° | 15km/h | 2380m | 5.6m/s | 7.7°C | 54.0% | 0hPa | 3.0V | 00:00:00 | 00:19:34 | 00:00:00 | |
| 9A1FER-10 | 2026-09-01 11:22:47 | 45.82233 | 16.01179 | 284° | 18km/h | 2362m | 4.9m/s | 7.8°C | 53.6% | 0hPa | 3.0V | 00:00:00 | 00:19:30 | 00:00:00 | |
| 9A1FER-3 | 2026-09-01 11:22:36 | 45.82219 | 16.01242 | 299° | 18km/h | 2305m | 3.9m/s | 8.2°C | 50.9% | 0hPa | 3.0V | 00:00:00 | 00:19:19 | 00:00:00 | |
| 9A1FER-10 | 2026-09-01 11:22:32 | 45.82214 | 16.01275 | 279° | 18km/h | 2283m | 4.9m/s | 8.4°C | 48.6% | 0hPa | 3.0V | 00:00:00 | 00:19:15 | 00:00:00 | |
| 9A1FER-3 | 2026-09-01 11:22:21 | 45.82192 | 16.01327 | 292° | 18km/h | 2227m | 4.5m/s | 8.7°C | 52.0% | 0hPa | 3.0V | 00:00:00 | 00:19:04 | 08:30:00 | |
| 9A1FER-10 | 2026-09-01 11:22:17 | 45.82180 | 16.01361 | 297° | 15km/h | 2208m | 3.4m/s | 8.8°C | 53.3% | 0hPa | 3.0V | 00:00:00 | 00:19:00 | 08:30:00 | |
| 9A1FER-3 | 2026-09-01 11:22:06 | 45.82161 | 16.01411 | 301° | 16km/h | 2160m | 5.1m/s | 9.1°C | 55.0% | 0hPa | 3.0V | 00:00:00 | 00:18:49 | 00:00:00 | |
| 9A1FER-10 | 2026-09-01 11:22:02 | 45.82155 | 16.01430 | 322° | 16km/h | 2141m | 3.8m/s | 9.2°C | 54.7% | 0hPa | 3.0V | 00:00:00 | 00:18:45 | 00:00:00 | |
| 9A1FER-3 | 2026-09-01 11:21:51 | 45.82130 | 16.01478 | 274° | 13km/h | 2094m | 5.7m/s | 9.5°C | 54.4% | 0hPa | 3.0V | 00:00:00 | 00:18:34 | 00:00:00 | |
| 9A1FER-10 | 2026-09-01 11:21:47 | 45.82127 | 16.01502 | 282° | 13km/h | 2073m | 5.9m/s | 9.6°C | 54.8% | 0hPa | 3.0V | 00:00:00 | 00:18:30 | 00:00:00 | |
| 9A1FER-3 | 2026-09-01 11:21:36 | 45.82136 | 16.01542 | 274° | 16km/h | 2020m | 4.7m/s | 10.0°C | 55.0% | 0hPa | 3.0V | 00:00:00 | 00:18:19 | 00:00:00 | |
| 9A1FER-10 | 2026-09-01 11:21:32 | 45.82132 | 16.01566 | 289° | 16km/h | 1999m | 3.8m/s | 10.1°C | 54.7% | 0hPa | 3.0V | 00:00:00 | 00:18:15 | 00:00:00 | |
| 9A1FER-3 | 2026-09-01 11:21:21 | 45.82128 | 16.01631 | 254° | 15km/h | 1946m | 4.1m/s | 10.6°C | 53.3% | 0hPa | 0V | 00:00:00 | 00:18:04 | 00:00:00 | |
| 9A1FER-10 | 2026-09-01 11:21:17 | 45.82130 | 16.01658 | 278° | 15km/h | 1932m | 4.3m/s | 10.7°C | 53.9% | 0hPa | 0V | 00:00:00 | 00:18:00 | 00:00:00 | |
| 9A1FER-3 | 2026-09-01 11:21:06 | 45.82119 | 16.01710 | 298° | 16km/h | 1882m | 5.7m/s | 10.7°C | 56.7% | 0hPa | 0V | 00:00:00 | 00:17:49 | 00:00:00 |